     2              OBSERVATION DATA    GPS                 RINEX VERSION / TYPE
teqc 1997Sep10 19971010 23:13:34UTC                         PGM / RUN BY / DATE
                                                            COMMENT
Original Marker Name: 1105                                  COMMENT
Campaign Name: NGS Salton Trough 1991                       COMMENT
4-Character Station Name: 1105                              COMMENT
6-Character Antenna Code: TRMSST                            COMMENT
Vertical Measurement Point: BGP                             COMMENT
Vertical Offset to Rinex Ref. Point: 0.0597                 COMMENT
Radial Measurement Point: NGP                               COMMENT
Radial Offset to Rinex Ref. Point: 0.2334                   COMMENT
Antenna Height from Field Measurement: 1.5590 m             COMMENT
Original XYZ: -2244171.7400 -4878334.9489 3430314.3559      COMMENT
New XYZ position is based on association with SCEC monument COMMENT
E1C9N5S9+0011. Position of that monument is believed to be  COMMENT
valid to within 1 m horizontally; vertical accuracy         COMMENT
should be no worse than 3-times this value.                 COMMENT
                                                            COMMENT
Revised Rinex header created by UCSD GPS archive for        COMMENT
GSAC on 12-Apr-1999 (1999:102) 01:01:48 GMT                 COMMENT
For assistance contact dagnew@ucsd.edu or hjohnson@ucsd.edu COMMENT
                                                            COMMENT
HPGN CALIF STA 11-05 1990                                   MARKER NAME
unknown NATIONAL GEODETIC SURVEY                            OBSERVER / AGENCY
486 TRIMBLE 4000 SST NP 4.30 / SP 4.20                      REC # / TYPE / VERS
20 TR 4000SST L1/L2 GEO                                     ANT # / TYPE
 -2244175.0000 -4878342.0000  3430313.0000                  APPROX POSITION XYZ
        1.4817        0.0000        0.0000                  ANTENNA: DELTA H/E/N
     1     1     0                                          WAVELENGTH FACT L1/2
     3    C1    L1    L2                                    # / TYPES OF OBSERV
     0                                                      INTERVAL
  1991     3    25    21    50   45.000000                  TIME OF FIRST OBS
  1991     3    26     3    21   60.000000                  TIME OF LAST OBS
     0                                                      # OF SATELLITES
                                                            END OF HEADER
 91  3 25 21 50 45.0000000  0  4G18G11G 2G19
  20654573.0554         -0.38458        -0.45073
  23605638.3364         -0.85556        -0.16971
  24132634.7504         -0.22555        -0.37071
  21136418.0864         -0.21357
 91  3 25 21 51  0.0000000  0  4G18G11G 2G19
  20654544.1954       -138.99948
  23597239.8444     -44116.29046    -34375.71561
  24121223.734      -59964.606 5    -46725.54221
  21132658.4614     -19764.82647
 91  3 25 21 51 15.0000000  0  4G18G11G 2G19
  20654533.5944       -186.52448
  23588860.461      -88158.625 6    -68694.29921
  24109815.953     -119909.678 5    -93435.65321
  21128899.6094     -39518.44747
 91  3 25 21 51 30.0000000  0  4G18G11G 2G19
  20654546.5004       -133.67648
  23580494.891     -132118.146 6   -102948.36521
  24098414.1414    -179825.95645   -140123.34261
  21125147.3594     -59251.69346
 91  3 25 21 51 45.0000000  0  4G18G11G 2G19
  20654576.9844         35.12248
  23572149.1094    -175978.87646   -137125.44461
  24087022.867     -239697.850 5   -186776.45521
  21121395.375      -78948.806 7
 91  3 25 21 52  0.0000000  0  4G18G11G 2G19
  20654633.0394        306.27948
  23563818.586     -219753.837 6   -171235.69021
  24075633.0784    -299538.53945   -233405.23161
  21117653.9534     -98623.30946        -0.45573
 91  3 25 21 52 15.0000000  0  4G18G11G 2G19
  20654703.945         682.007 8       531.11323
  23555503.117     -263440.685 6   -205277.28521
  24064250.7974    -359345.62945   -280007.86261
  21113912.4534    -118273.26047    -15312.10663
 91  3 25 21 52 30.0000000  0  4G18G11G 2G19
  20654793.1644       1166.27148       908.43263
  23547210.898     -307035.193 6   -239246.92921
  24052877.438     -419115.199 5   -326581.24321
  21110181.2734    -137894.76346    -30601.58963
 91  3 25 21 52 45.0000000  0  4G18G11G 2G19
  20654905.8524       1756.56048      1368.36263
  23538930.8674    -350539.27446   -273146.12361
  24041511.070     -478849.316 5   -373126.98221
  21106450.8364    -157490.16247    -45870.72963
 91  3 25 21 53  0.0000000  0  4G18G11G 2G19
  20655040.9454       2455.03448      1912.59363
  23530669.4064    -393950.41246   -306972.89361
  24030148.414     -538545.823 5   -419643.43421
  21102730.4304    -177057.20546    -61117.77963
 91  3 25 21 53 15.0000000  0  4G18G11G 2G19
  20655194.4614       3265.57548      2544.15663
  23522425.8204    -437264.43046   -340723.97161
  24018795.1564    -598200.62445   -466127.38161
  21099008.3134    -196592.07247    -76339.75563
 91  3 25 21 53 30.0000000  0  4G18G11G 2G19
  20655369.9454       4182.87148      3258.89463
  23514201.4534    -480486.26046   -374403.21461
  24007453.953     -657818.942 5   -512582.92221
  21095296.6414    -216100.10446    -91540.82163
 91  3 25 21 53 45.0000000  0  4G18G11G 2G19
  20655562.7034       5204.97748      4055.31063
  23505993.3834    -523617.66546   -408012.01761
  23996116.6024    -717402.64245   -559011.44761
  21091589.4144    -235583.35847   -106722.57663
 91  3 25 21 54  0.0000000  0  4G18G11G 2G19
  20655779.1564       6337.16148      4937.49663
  23497803.484     -566652.938 6   -441545.91321
  23984783.695     -776946.294 5   -605408.81121
  21087887.5944    -255036.39346   -121880.78663
 91  3 25 21 54 15.0000000  0  4G18G11G 2G19
  20656015.0634       7576.00948      5902.79963
  23489630.5394    -609595.08746   -475007.24361
  23973455.469     -836453.139 5   -651777.47421
  21084190.9774    -274462.47347   -137017.99363
 91  3 25 21 54 30.0000000  0  4G18G11G 2G19
  20656271.9844       8924.98248      6953.90963
  23481480.6644    -652440.26446   -508393.00261
  23962142.9144    -895919.46545   -698114.55761
  21080501.3674    -293858.25946   -152131.59763
 91  3 25 21 54 45.0000000  0  4G18G11G 2G19
  20656550.703       10388.527 8      8094.29323
  23473346.602     -695183.497 6   -541699.33821
  23950836.547     -955340.582 5   -744416.46021
  21076815.0864    -313219.12647   -167217.98363
 91  3 25 21 55  0.0000000  0  4G18G11G 2G19
  20656848.6644      11958.64548      9317.72463
  23465229.766     -737832.800 6   -574932.48021
  23939535.945    -1014724.490 5   -790689.32221
  21073137.6414    -332553.52346   -182283.75163
 91  3 25 21 55 15.0000000  0  4G18G11G 2G19
  20657168.2814      13637.33448     10625.75463
  23457132.219     -780385.775 6   -608090.57021
  23928243.797    -1074069.149 5   -836931.62921
  21069463.2584    -351859.30847   -197327.22463
 91  3 25 21 55 30.0000000  0  4G18G11G 2G19
  20657507.8204      15416.95748     12012.43363
  23449051.586     -822849.308 6   -641178.96121
  23916954.0164   -1133381.65645   -883148.89161
  21065793.2734    -371143.57046   -212353.92263
 91  3 25 21 55 45.0000000  0  4G18G11G 2G19
  20657866.6254      17301.64048     13480.97963
  23440990.5704    -865219.18746   -674194.39461
  23905675.703    -1192657.783 5   -929337.77721
  21062127.7894    -390402.47447   -227360.86563
 91  3 25 21 56  0.0000000  0  4G18G11G 2G19
  20658245.273       19293.969 8     15033.39823
  23432941.4224    -907492.28346   -707134.41461
  23894401.930    -1251894.873 5   -975496.28721
  21058473.6884    -409633.46646   -242346.06063
 91  3 25 21 56 15.0000000  0  4G18G11G 2G19
  20658645.281       21399.537 8     16674.06123
  23424920.266     -949662.828 6   -739994.49521
  23883137.5234   -1311087.36245  -1021620.00761
  21054814.8594    -428830.97647   -257305.16663
 91  3 25 21 56 30.0000000  0  4G18G11G 2G19
  20659065.742       23613.566 8     18399.23423
  23416914.8984    -991734.98046   -772777.92861
  23871881.281    -1370239.694 5  -1067712.47221
  21051170.3054    -447999.69447   -272241.83863
 91  3 25 21 56 45.0000000  0  4G18G11G 2G19
  20659507.227       25930.439 8     20204.54923
  23408926.7504   -1033714.27646   -805489.02261
  23860630.5944   -1429357.36745  -1113777.91161
  21047523.867     -467145.272 7   -287160.47923
 91  3 25 21 57  0.0000000  0  4G18G11G 2G19
  20659970.992       28357.162 8     22095.45723
  23400956.1174   -1075593.34846   -838121.99861
  23849388.391    -1488433.274 6  -1159810.79921
  21043889.3754    -486260.61846   -302055.56263
 91  3 25 21 57 15.0000000  0  4G18G11G 2G19
  20660451.898       30889.952 8     24069.01323
  23393004.2814   -1117375.39446   -870679.38761
  23838153.4774   -1547470.67245  -1205813.69361
  21040254.148     -505349.178 7   -316929.77523
 91  3 25 21 57 30.0000000  0  4G18G11G 2G19
  20660955.695       33530.325 8     26126.40723
  23385074.8364   -1159058.75546   -903159.87061
  23826928.305    -1606468.327 6  -1251785.61521
  21036627.0474    -524409.87847   -331782.27563
 91  3 25 21 57 45.0000000  0  4G18G11G 2G19
  20661477.250       36280.594 8     28269.42623
  23377160.102    -1200640.647 6   -935561.28921
  23815706.711    -1665423.506 5  -1297724.45021
  21033007.234     -543440.319 7   -346611.20123
 91  3 25 21 58  0.0000000  0  4G18G11G 2G19
  20662022.016       39140.480 8     30497.86623
  23369264.938    -1242120.778 6   -967883.42021
  23804495.5784   -1724336.07945  -1343630.07661
  21029394.969     -562440.432 6   -361416.49923
 91  3 25 21 58 15.0000000  0  4G18G11G 2G19
  20662587.781       42109.710 8     32811.50223
  23361393.4454   -1283499.11946  -1000126.21561
  23793294.3754   -1783206.31145  -1389502.72661
  21025779.734     -581410.507 7   -376198.39023
 91  3 25 21 58 30.0000000  0  4G18G11G 2G19
  20663171.672       45184.668 8     35207.52423
  23353539.2664   -1324779.14946  -1032292.44461
  23782098.391    -1842037.860 5  -1435345.22821
  21022178.4774    -600354.27946   -390959.78063
 91  3 25 21 58 45.0000000  0  4G18G11G 2G19
  20663779.898       48374.730 8     37693.24523
  23345702.8364   -1365951.02846  -1064374.37861
  23770913.5944   -1900821.21045  -1481150.14861
  21018577.234     -619262.228 7   -405693.26123
 91  3 25 21 59  0.0000000  0  4G18G11G 2G19
  20664408.508       51675.417 8     40265.15823
  23337887.805    -1407018.833 6  -1096375.21721
  23759735.6484   -1959560.66946  -1526920.89861
  21014985.859     -638139.033 7   -420402.47223
 91  3 25 21 59 15.0000000  0  4G18G11G 2G19
  20665055.422       55083.309 8     42920.61424
  23330091.4534   -1447985.73746  -1128297.43761
  23748566.4694   -2018259.46345  -1572659.95261
  21011398.711     -656988.003 7   -435089.99323
 91  3 25 21 59 30.0000000  0  4G18G11G 2G19
  20665725.445       58599.241 8     45660.25324
  23322313.9384   -1488850.27346  -1160139.87661
  23737405.2344   -2076916.28446  -1618366.28961
  21007818.680     -675807.838 6   -449754.81123
 91  3 25 21 59 45.0000000  0  4G18G11G 2G19
  20666414.219       62222.997 8     48483.91024
  23314560.000    -1529612.411 6  -1191902.52221
  23726249.758    -2135531.276 5  -1664040.05321
  21004242.844     -694599.073 7   -464397.34623
 91  3 25 22  0  0.0000000  0  4G18G11G 2G19
  20667124.922       65950.634 8     51388.51424
  23306820.414    -1570275.977 6  -1223588.37721
  23715102.4454   -2194108.41745  -1709684.27661
  21000671.945     -713365.703 6   -479020.71623
 91  3 25 22  0 15.0000000  0  4G18G11G 2G19
  20667854.125       69785.694 8     54376.82224
  23299101.758    -1610836.815 6  -1255194.17821
  23703964.2584   -2252643.66945  -1755295.89861
  20997108.102     -732103.947 6   -493621.95823
 91  3 25 22  0 30.0000000  0  4G18G11G 2G19
  20668604.227       73728.328 8     57448.95924
  23291401.898    -1651294.429 6  -1286719.53421
  23692831.8754   -2311136.95845  -1800874.82661
  20993547.305     -750813.620 6   -508200.94223
 91  3 25 22  0 45.0000000  0  4G18G11G 2G19
  20669375.539       77778.319 8     60604.74824
  23283724.3364   -1691648.85146  -1318164.47961
  23681709.961    -2369588.447 6  -1846421.14321
  20989992.891     -769494.992 6   -522757.86823
 91  3 25 22  1  0.0000000  0  4G18G11G 2G19
  20670167.219       81934.324 8     63843.14724
  23276065.8284   -1731900.73846  -1349529.52661
  23670591.4694   -2427998.93345  -1891935.53561
  20986440.977     -788149.025 6   -537293.49123
 91  3 25 22  1 15.0000000  0  4G18G11G 2G19
  20670978.344       86201.547 8     67168.20623
  23268423.891    -1772044.822 6  -1380810.55121
  23659486.656    -2486363.390 5  -1937414.06821
  20982901.375     -806770.838 6   -551804.00923
 91  3 25 22  1 30.0000000  0  4G18G11G 2G19
  20671809.266       90569.703 8     70571.91324
  23260805.4144   -1812091.03246  -1412015.32061
  23648387.6644   -2544691.72245  -1982864.42561
  20979363.2424    -825370.60246   -566297.34363
 91  3 25 22  1 45.0000000  0  4G18G11G 2G19
  20672661.188       95047.988 8     74061.43824
  23253204.102    -1852029.680 6  -1443136.28621
  23637295.6334   -2602974.56345  -2028279.34161
  20975827.492     -843939.129 6   -580766.34423
 91  3 25 22  2  0.0000000  0  4G18G11G 2G19
  20673534.711       99639.884 8     77639.48624
  23245625.930    -1891856.924 6  -1474170.43521
  23626214.6254   -2661208.21545  -2073655.95261
  20972299.023     -862472.661 6   -595208.07223
 91  3 25 22  2 15.0000000  0  4G18G11G 2G19
  20674429.391      104341.943 8     81303.37424
  23238067.477    -1931575.940 6  -1505120.23221
  23615142.3054   -2719396.16546  -2118996.88961
  20968778.570     -880974.914 6   -609625.43023
 91  3 25 22  2 30.0000000  0  4G18G11G 2G19
  20675345.641      109152.616 8     85051.90024
  23230529.000    -1971187.606 6  -1535986.41721
  23604076.8594   -2777539.35845  -2164303.02061
  20965261.914     -899446.879 6   -624019.18223
 91  3 25 22  2 45.0000000  0  4G18G11G 2G19
  20676281.055      114067.212 8     88881.40524
  23223010.7114   -2010696.43546  -1566772.41961
  23593021.414    -2835642.435 6  -2209577.85321
  20961754.039     -917893.370 6   -638393.08823
 91  3 25 22  3  0.0000000  0  4G18G11G 2G19
  20677235.992      119088.931 8     92794.37924
  23215514.1174   -2050098.90646  -1597475.57361
  23581972.914    -2893702.100 6  -2254818.85121
  20958249.086     -936311.334 6   -652744.76223
 91  3 25 22  3 15.0000000  0  4G18G11G 2G19
  20678212.930      124220.617 8     96793.03624
  23208036.227    -2089391.595 6  -1628093.18421
  23570932.375    -2951715.434 6  -2300023.78121
  20954751.133     -954697.662 6   -667071.78723
 91  3 25 22  3 30.0000000  0  4G18G11G 2G19
  20679210.8204     129461.17248    100876.52764
  23200581.7814   -2128575.29946  -1658625.86361
  23559900.1024   -3009683.26946  -2345193.24161
  20951255.313     -973053.217 6   -681374.83323
 91  3 25 22  3 45.0000000  0  4G18G11G 2G19
  20680227.609      134808.574 8    105043.28124
  23193146.031    -2167651.848 6  -1689075.04621
  23548877.3834   -3067607.39746  -2390328.63661
  20947771.086     -991380.014 6   -695655.47023
 91  3 25 22  4  0.0000000  0  4G18G11G 2G19
  20681265.180      140260.619 8    109291.57024
  23185725.8594   -2206623.03946  -1719442.11461
  23537863.344    -3125489.912 6  -2435431.62421
  20944287.813    -1009680.407 6   -709915.52822
 91  3 25 22  4 15.0000000  0  4G18G11G 2G19
  20682322.2274     145816.02848    113620.40463
  23178330.4224   -2245489.81246  -1749727.85061
  23526856.375    -3183331.818 6  -2480502.95821
  20940809.297    -1027955.712 6   -724156.04123
 91  3 25 22  4 30.0000000  0  4G18G11G 2G19
  20683399.5784     151476.87748    118031.39263
  23170954.039    -2284249.678 6  -1779930.27121
  23515856.0704   -3241130.96246  -2525540.96061
  20937335.766    -1046203.681 6   -738375.25523
 91  3 25 22  4 45.0000000  0  4G18G11G 2G19
  20684497.781      157246.635 8    122527.25023
  23163601.773    -2322898.726 6  -1810046.30221
  23504863.4144   -3298883.47146  -2570542.66161
  20933871.375    -1064420.618 6   -752570.28123
 91  3 25 22  5  0.0000000  0  4G18G11G 2G19
  20685615.195      163119.224 8    127103.23924
  23156266.0314   -2361442.43946  -1840080.30061
  23493883.945    -3356595.081 6  -2615512.43721
  20930405.922    -1082612.137 6   -766745.50222
 91  3 25 22  5 15.0000000  0  4G18G11G 2G19
  20686754.2114     169103.59348    131766.32363
  23148953.0864   -2399871.78846  -1870025.15961
  23482909.797    -3414256.919 6  -2660443.48621
  20926954.844    -1100769.648 6   -780894.22422
 91  3 25 22  5 30.0000000  0  4G18G11G 2G19
  20687914.2814     175197.10248    136514.45564
  23141660.375    -2438188.902 6  -1899882.56521
  23471948.391    -3471871.386 6  -2705337.59321
  20923503.8284   -1118895.52446   -795018.29062
 91  3 25 22  5 45.0000000  0  4G18G11G 2G19
  20689094.8754     181398.91548    141346.97563
  23134390.406    -2476394.481 6  -1929653.07321
  23460992.5634   -3529439.46446  -2750195.57661
  20920061.5554   -1136990.85046   -809118.55362
 91  3 25 22  6  0.0000000  0  4G18G11G 2G19
  20690293.5394     187702.85748    146259.07664
  23127140.8134   -2514494.50446  -1959341.32461
  23450045.1414   -3586967.13346  -2795022.06061
  20916621.406    -1155061.853 6   -823199.87223
 91  3 25 22  6 15.0000000  0  4G18G11G 2G19
  20691514.6644     194122.67348    151261.46963
  23119913.781    -2552474.762 6  -1988936.24221
  23439106.6884   -3644440.23746  -2839806.04061
  20913191.0084   -1173094.58846   -837251.36262
 91  3 25 22  6 30.0000000  0  4G18G11G 2G19
  20692757.4614     200647.99548    156346.07363
  23112708.172    -2590345.039 6  -2018445.48021
  23428179.555    -3701868.709 6  -2884555.22721
  20909762.8754   -1191099.05646   -851280.83163
 91  3 25 22  6 45.0000000  0  4G18G11G 2G19
  20694019.4454     207277.37548    161511.76464
  23105521.742    -2628106.553 6  -2047869.95321
  23417258.438    -3759254.050 6  -2929270.82421
  20906345.1174   -1209076.72446   -865289.40863
 91  3 25 22  7  0.0000000  0  4G18G11G 2G19
  20695302.0394     214018.51948    166764.53564
  23098358.703    -2665750.983 6  -2077203.20021
  23406350.281    -3816588.246 6  -2973946.56921
  20902926.0784   -1227019.80846   -879271.03363
 91  3 25 22  7 15.0000000  0  4G18G11G 2G19
  20696605.211      220869.301 8    172102.74724
  23091217.7584   -2703280.26046  -2106446.69761
  23395445.047    -3873873.545 6  -3018584.22621
  20899521.2814   -1244930.36146   -893227.31163
 91  3 25 22  7 30.0000000  0  4G18G11G 2G19
  20697930.3524     227827.64848    177524.77864
  23084096.1414   -2740695.85846  -2135601.64261
  23384553.6484   -3931111.46546  -3063184.94361
  20896116.9304   -1262810.15746   -907159.62363
 91  3 25 22  7 45.0000000  0  4G18G11G 2G19
  20699273.750      234892.305 8    183029.64724
  23076996.7194   -2777999.17846  -2164669.08661
  23373668.3914   -3988303.40146  -3107749.84661
  20892722.3674   -1280660.78746   -921069.21363
 91  3 25 22  8  0.0000000  0  4G18G11G 2G19
  20700638.8594     242063.96448    188617.89564
  23069921.563    -2815188.870 6  -2193647.98321
  23362796.070    -4045448.208 6  -3152278.04521
  20889329.2894   -1298481.09246   -934955.16963
 91  3 25 22  8 15.0000000  0  4G18G11G 2G19
  20702025.1644     249346.54448    194292.57464
  23062865.625    -2852260.836 6  -2222535.15521
  23351930.7274   -4102541.86946  -3196766.38161
  20885946.6954   -1316267.44146   -948814.66663
 91  3 25 22  8 30.0000000  0  4G18G11G 2G19
  20703429.9534     256735.75948    200050.34464
  23055831.227    -2889218.961 6  -2251333.62521
  23341076.883    -4159588.549 6  -3241218.11721
  20882569.3594   -1334023.94946   -962650.91263
 91  3 25 22  8 45.0000000  0  4G18G11G 2G19
  20704857.516      264234.394 8    205893.38224
  23048822.2814   -2926059.81346  -2280040.70761
  23330229.586    -4216584.769 6  -3285630.53221
  20879195.7274   -1351747.33446   -976461.34962
 91  3 25 22  9  0.0000000  0  4G18G11G 2G19
  20706306.664      271843.511 8    211822.50623
  23041834.4064   -2962781.99246  -2308655.32861
  23319395.203    -4273529.639 6  -3330002.93921
  20875826.7974   -1369436.43046   -990245.06663
 91  3 25 22  9 15.0000000  0  4G18G11G 2G19
  20707774.828      279561.198 8    217836.23823
  23034867.9614   -2999387.34746  -2337178.91061
  23308564.9614   -4330425.10546  -3374336.85361
  20872469.5554   -1387093.35846  -1004003.70363
 91  3 25 22  9 30.0000000  0  4G18G11G 2G19
  20709263.6724     287384.41348    223932.19363
  23027924.523    -3035878.304 6  -2365613.34821
  23297749.3444   -4387273.58746  -3418634.16161
  20869111.453    -1404721.015 6  -1017739.55323
 91  3 25 22  9 45.0000000  0  4G18G11G 2G19
  20710775.047      295324.315 8    230119.07923
  23021003.188    -3072243.265 6  -2393949.60721
  23286944.117    -4444063.702 6  -3462885.99921
  20865766.141    -1422307.800 6  -1031443.55723
 91  3 25 22 10  0.0000000  0  4G18G11G 2G19
  20712305.234      303368.647 8    236387.33623
  23014106.5314   -3108494.50346  -2422197.26261
  23276143.8204   -4500808.01946  -3507102.14561
  20862423.016    -1439866.420 6  -1045125.60323
 91  3 25 22 10 15.0000000  0  4G18G11G 2G19
  20713855.695      311519.983 8    242738.97023
  23007228.648    -3144628.806 6  -2450353.78821
  23265354.633    -4557503.454 6  -3551280.20821
  20859090.3204   -1457393.90246  -1058783.38963
 91  3 25 22 10 30.0000000  0  4G18G11G 2G19
  20715426.961      319774.478 8    249170.98823
  23000375.328    -3180649.873 6  -2478422.08421
  23254573.969    -4614153.796 6  -3595423.15421
  20855762.320    -1474894.080 6  -1072419.90323
 91  3 25 22 10 45.0000000  0  4G18G11G 2G19
  20717019.352      328141.203 8    255690.46523
  22993543.1094   -3216547.96646  -2506394.56561
  23243805.6644   -4670749.44146  -3639523.46561
  20852438.5084   -1492357.39946  -1086027.69363
 91  3 25 22 11  0.0000000  0  4G18G11G 2G19
  20718632.102      336614.477 8    262292.96723
  22986734.4224   -3252328.51146  -2534275.44561
  23233044.688    -4727296.015 6  -3683585.53921
  20849118.0864   -1509789.73046  -1099611.33563
 91  3 25 22 11 15.0000000  0  4G18G11G 2G19
  20720265.492      345198.126 8    268981.47423
  22979950.414    -3287987.220 6  -2562061.37721
  23222293.7504   -4783789.46246  -3727606.22261
  20845811.828    -1527186.952 6  -1113167.62323
 91  3 25 22 11 30.0000000  0  4G18G11G 2G19
  20721919.086      353890.229 8    275754.49223
  22973188.0944   -3323525.88746  -2589753.78661
  23211553.9384   -4840231.61146  -3771586.93561
  20842502.445    -1544551.307 6  -1126698.30523
 91  3 25 22 11 45.0000000  0  4G18G11G 2G19
  20723593.547      362691.157 8    282612.30323
  22966447.125    -3358943.734 6  -2617352.03821
  23200823.5784   -4896621.91146  -3815527.25961
  20839206.875    -1561882.090 6  -1140202.82723
 91  3 25 22 12  0.0000000  0  4G18G11G 2G19
  20725287.742      371593.828 8    289549.39723
  22959728.1804   -3394247.57446  -2644861.45961
  23190101.8984   -4952967.44646  -3859432.69461
  20835913.289    -1579186.410 6  -1153686.72723
 91  3 25 22 12 15.0000000  0  4G18G11G 2G19
  20727003.961      380605.733 8    296571.60623
  22953032.3834   -3429429.40546  -2672275.81761
  23179386.055    -5009260.190 6  -3903296.99921
  20832627.8914   -1596456.28246  -1167143.77463
 91  3 25 22 12 30.0000000  0  4G18G11G 2G19
  20728738.031      389723.727 8    303676.48123
  22946361.617    -3464491.951 6  -2699597.22021
  23168685.6484   -5065503.11046  -3947122.47761
  20829346.359    -1613694.735 6  -1180576.35123
 91  3 25 22 12 45.0000000  0  4G18G11G 2G19
  20730492.914      398945.430 8    310862.17323
  22939710.8984   -3499437.10546  -2726827.15361
  23157990.391    -5121698.160 6  -3990910.66121
  20826073.516    -1630904.037 6  -1193986.21123
 91  3 25 22 13  0.0000000  0  4G18G11G 2G19
  20732268.891      408277.817 8    318134.11323
  22933084.516    -3534257.871 6  -2753960.14421
  23147306.805    -5177838.355 6  -4034656.08821
  20822803.813    -1648077.478 6  -1207368.13323
 91  3 25 22 13 15.0000000  0  4G18G11G 2G19
  20734065.328      417717.818 8    325489.90223
  22926481.6884   -3568956.76446  -2780998.18361
  23136633.195    -5233926.434 6  -4078360.92221
  20819544.172    -1665217.664 6  -1220724.13523
 91  3 25 22 13 30.0000000  0  4G18G11G 2G19
  20735882.469      427267.311 8    332931.01123
  22919902.4614   -3603531.61246  -2807939.57061
  23125971.664    -5289960.571 6  -4122023.71621
  20816286.789    -1682322.820 6  -1234052.84723
 91  3 25 22 13 45.0000000  0  4G18G11G 2G19
  20737721.375      436926.865 8    340457.88723
  22913347.3444   -3637981.45246  -2834783.53061
  23115319.7814   -5345939.98146  -4165643.87661
  20813040.7974   -1699392.10546  -1247353.60063
 91  3 25 22 14  0.0000000  0  4G18G11G 2G19
  20739579.4454     446692.41848    348067.35363
  22906813.3524   -3672310.06446  -2861533.04661
  23104675.664    -5401868.575 6  -4209224.42221
  20809800.227    -1716429.446 6  -1260629.45923
 91  3 25 22 14 15.0000000  0  4G18G11G 2G19
  20741458.4924     456566.11948    355761.08463
  22900305.1644   -3706514.99546  -2888186.17361
  23094041.7894   -5457744.11246  -4252763.65261
  20806562.281    -1733432.659 6  -1273878.73023
 91  3 25 22 14 30.0000000  0  4G18G11G 2G19
  20743357.7734     466549.73348    363540.46163
  22893819.539    -3740593.862 6  -2914741.06721
  23083421.086    -5513564.307 6  -4296259.73721
  20803331.203    -1750399.664 6  -1287099.79223
 91  3 25 22 14 45.0000000  0  4G18G11G 2G19
  20745277.094      476636.709 8    371400.39523
  22887356.266    -3774553.142 6  -2941202.78921
  23072808.938    -5569335.598 6  -4339717.72621
  20800110.109    -1767337.120 6  -1300297.82523
 91  3 25 22 14 59.9990000  0  4G18G11G 2G19
  20747218.2694     486832.08148    379344.77663
  22880919.5654   -3808384.27546  -2967564.64261
  23062206.120    -5625048.155 6  -4383129.94021
  20796893.2764   -1784237.82246  -1313467.21063
 91  3 25 22 15 14.9990000  0  4G18G11G 2G19
  20749179.440      497137.432 8    387374.86823
  22874505.675    -3842091.208 6  -2993829.72821
  23051613.1204   -5680709.08246  -4426501.92361
  20793686.2534   -1801103.72846  -1326609.49463
 91  3 25 22 15 29.9990000  0  4G18G11G 2G19
  20751161.0264     507548.68048    395487.47363
  22868115.3154   -3875674.65746  -3019998.58761
  23041032.261    -5736317.743 6  -4469833.17821
  20790481.2144   -1817936.66746  -1339726.08663
 91  3 25 22 15 44.9990000  0  4G18G11G 2G19
  20753162.0424     518064.85048    403681.83063
  22861747.9644   -3909135.45146  -3046071.86461
  23030459.1364   -5791874.99246  -4513124.38661
  20787286.253    -1834737.826 6  -1352817.91023
 91  3 25 22 15 59.9990000  0  4G18G11G 2G19
  20755183.6904     528688.70748    411960.09964
  22855405.003    -3942470.417 6  -3072047.11821
  23019896.284    -5847377.932 6  -4556373.25721
  20784091.847    -1851504.321 6  -1365882.72323
 91  3 25 22 16 14.9990000  0  4G18G11G 2G19
  20757224.5034     539420.07448    420322.13664
  22849084.8474   -3975679.33846  -3097924.14161
  23009343.3864   -5902826.36446  -4599579.67261
  20780910.9254   -1868236.20446  -1378920.55463
 91  3 25 22 16 29.9990000  0  4G18G11G 2G19
  20759288.4014     550261.66548    428770.06664
  22842791.347    -4008759.211 6  -3123700.61821
  22998804.7534   -5958217.66946  -4642741.56361
  20777731.5734   -1884930.59746  -1391929.16863
 91  3 25 22 16 44.9990000  0  4G18G11G 2G19
  20761371.4254     561208.23648    437299.80364
  22836518.550    -4041714.897 6  -3149380.32621
  22988275.097    -6013556.732 6  -4685862.75021
  20774564.2694   -1901592.66046  -1404912.60063
 91  3 25 22 16 59.9990000  0  4G18G11G 2G19
  20763474.9254     572259.57648    445911.18164
  22830270.675    -4074545.957 6  -3174962.91421
  22977754.237    -6068843.277 6  -4728942.99921
  20771396.7764   -1918222.12646  -1417870.62663
 91  3 25 22 17 14.9990000  0  4G18G11G 2G19
  20765598.3394     583420.78348    454608.16364
  22824047.081    -4107247.303 6  -3200444.44321
  22967244.612    -6124072.349 6  -4771978.47921
  20768241.956    -1934814.175 6  -1430799.51523
 91  3 25 22 17 29.9990000  0  4G18G11G 2G19
  20767742.5814     594688.33548    463388.00764
  22817850.144    -4139822.066 6  -3225827.32421
  22956743.0114   -6179247.07946  -4814971.61561
  20765088.612    -1951372.010 6  -1443701.74023
 91  3 25 22 17 44.9990000  0  4G18G11G 2G19
  20769906.2534     606057.63248    472247.13064
  22811672.526    -4172274.694 6  -3251115.03021
  22946252.980    -6234372.163 6  -4857926.06021
  20761946.0894   -1967900.31746  -1456580.95163
 91  3 25 22 17 59.9990000  0  4G18G11G 2G19
  20772092.4564     617540.05548    481194.40963
  22805523.815    -4204593.282 6  -3276298.30721
  22935776.534    -6289435.868 6  -4900832.66821
  20758808.159    -1984387.276 6  -1469427.94823
 91  3 25 22 18 14.9990000  0  4G18G11G 2G19
  20774296.2304     629126.52547    490222.76163
  22799396.761    -4236786.263 6  -3301383.69921
  22925305.3084   -6344446.72046  -4943698.09961
  20755678.112    -2000841.545 6  -1482249.47323
 91  3 25 22 18 29.9990000  0  4G18G11G 2G19
  20776521.2374     640822.88647    499336.74463
  22793296.8554   -4268847.49046  -3326366.43961
  22914852.245    -6399398.796 6  -4986517.73121
  20752551.183    -2017257.352 6  -1495041.03123
 91  3 25 22 18 44.9990000  0  4G18G11G 2G19
  20778768.323      652625.037 7    508533.17123
  22787219.401    -4300780.778 6  -3351249.47221
  22904403.1204   -6454295.97446  -5029294.58361
  20749436.2224   -2033638.61946  -1507805.65763
 91  3 25 22 18 59.9990000  0  4G18G11G 2G19
  20781034.3394     664532.15447    517811.38863
  22781166.300    -4332586.693 6  -3376033.25521
  22893968.347    -6509138.927 6  -5072029.17321
  20746323.112    -2049986.079 6  -1520543.95223
 91  3 25 22 19 14.9990000  0  4G18G11G 2G19
  20783321.0974     676546.97147    527173.51863
  22775140.2304   -4364262.19046  -3400715.42561
  22883541.4334   -6563924.75246  -5114719.25261
  20743221.175    -2066296.961 6  -1533253.74323
 91  3 25 22 19 29.9990000  0  4G18G11G 2G19
  20785627.4174     688668.64847    536618.92163
  22769137.948    -4395807.669 6  -3425296.27721
  22873127.7224   -6618653.92646  -5157365.19561
  20740119.159    -2082571.713 6  -1545935.38923
 91  3 25 22 19 44.9990000  0  4G18G11G 2G19
  20787955.0504     700896.70747    546147.21363
  22763159.4484   -4427223.15446  -3449775.83761
  22862721.214    -6673326.649 6  -5199967.13821
  20737034.769    -2098810.606 6  -1558589.08023
 91  3 25 22 19 59.9990000  0  4G18G11G 2G19
  20790301.8554     713228.70647    555756.49763
  22757206.0034   -4458511.00746  -3474155.95561
  22852327.026    -6727945.415 6  -5242527.04821
  20733947.675    -2115016.289 6  -1571216.91023
 91  3 25 22 20 14.9990000  0  4G18G11G 2G19
  20792666.9484     725661.92247    565444.65263
  22751275.237    -4489673.458 6  -3498438.33421
  22841945.0114   -6782512.51946  -5285046.69661
  20730873.339    -2131191.010 6  -1583820.59623
 91  3 25 22 20 29.9990000  0  4G18G11G 2G19
  20795053.8234     738201.20547    575215.45963
  22745367.573    -4520705.194 6  -3522618.86021
  22831572.3704   -6837023.00546  -5327522.22561
  20727799.175    -2147329.767 6  -1596396.27623
 91  3 25 22 20 44.9990000  0  4G18G11G 2G19
  20797460.917      750849.748 7    585071.41523
  22739490.636    -4551603.006 6  -3546695.04021
  22821210.2764   -6891473.73646  -5369951.18261
  20724738.1364   -2163429.50846  -1608941.53363
 91  3 25 22 20 59.9990000  0  4G18G11G 2G19
  20799887.292      763603.978 7    595009.72323
  22733636.331    -4582369.752 6  -3570669.07921
  22810858.4174   -6945867.59946  -5412335.84661
  20721682.2064   -2179493.18546  -1621458.68863
 91  3 25 22 21 14.9990000  0  4G18G11G 2G19
  20802336.019      776467.096 7    605032.87923
  22727805.097    -4613002.253 6  -3594538.51521
  22800520.073    -7000201.443 6  -5454673.73621
  20718631.3864   -2195517.96446  -1633945.52563
 91  3 25 22 21 29.9990000  0  4G18G11G 2G19
  20804804.6904     789442.59747    615143.59763
  22722002.628    -4643496.311 6  -3618300.06121
  22790192.4724   -7054471.19146  -5496961.67661
  20715586.6514   -2211499.69947  -1646398.83863
 91  3 25 22 21 44.9990000  0  4G18G11G 2G19
  20807292.2764     802517.18047    625331.51863
  22716223.745    -4673865.282 6  -3641964.15721
  22779876.0344   -7108690.24246  -5539210.10761
  20712554.4094   -2227451.62446  -1658828.90363
 91  3 25 22 21 59.9990000  0  4G18G11G 2G19
  20809800.7614     815696.80448    635601.29263
  22710470.3084   -4704102.41146  -3665525.50361
  22769567.1904   -7162852.18446  -5581414.04361
  20709524.4484   -2243367.43347  -1671230.84163
 91  3 25 22 22 14.9990000  0  4G18G11G 2G19
  20812327.753      828980.828 8    645952.42823
  22704741.620    -4734208.208 6  -3688984.50621
  22759271.659    -7216957.595 6  -5623573.93421
  20706504.9874   -2259247.91546  -1683605.23863
 91  3 25 22 22 29.9990000  0  4G18G11G 2G19
  20814875.972      842370.844 8    656386.15723
  22699036.589    -4764180.664 6  -3712339.62221
  22748987.612    -7271004.629 6  -5665688.33521
  20703485.2694   -2275091.24247  -1695950.68863
 91  3 25 22 22 44.9990000  0  4G18G11G 2G19
  20817445.448      855868.316 8    666903.61123
  22693359.8944   -4794018.38946  -3735589.73461
  22738712.6984   -7324992.00346  -5707756.23461
  20700482.7764   -2290896.06746  -1708266.12763
 91  3 25 22 22 59.9990000  0  4G18G11G 2G19
  20820034.964      869476.514 8    677507.34723
  22687708.683    -4823717.107 6  -3758731.54121
  22728450.987    -7378915.483 6  -5749774.35321
  20697483.4644   -2306658.26946  -1720548.34663
 91  3 25 22 23 14.9990000  0  4G18G11G 2G19
  20822644.433      883189.689 8    688192.88823
  22682080.417    -4853282.669 6  -3781769.59221
  22718202.7764   -7432781.06046  -5791747.35661
  20694491.3394   -2322383.95746  -1732802.14263
 91  3 25 22 23 29.9990000  0  4G18G11G 2G19
  20825273.3004     897002.81148    698956.29663
  22676478.847    -4882719.513 6  -3804707.33521
  22707960.886    -7486593.357 6  -5833678.83821
  20691501.5734   -2338077.74546  -1745031.06163
 91  3 25 22 23 44.9990000  0  4G18G11G 2G19
  20827920.4094     910920.69048    709801.33663
  22670902.769    -4912022.500 6  -3827540.77521
  22697731.7144   -7540347.36646  -5875564.90461
  20688524.230    -2353734.469 6  -1757231.08823
 91  3 25 22 23 59.9990000  0  4G18G11G 2G19
  20830590.2374     924945.67847    720729.84263
  22665354.651    -4941189.097 6  -3850267.94821
  22687514.9404   -7594040.53546  -5917403.55661
  20685549.6834   -2369351.90447  -1769400.51563
 91  3 25 22 24 14.9990000  0  4G18G11G 2G19
  20833278.6514     939072.64147    731737.80163
  22659829.331    -4970223.923 6  -3872892.43121
  22677306.409    -7647677.628 6  -5959198.52221
  20682586.0584   -2384934.83146  -1781543.05063
 91  3 25 22 24 29.9990000  0  4G18G11G 2G19
  20835987.190      953306.671 8    742829.20223
  22654330.3234   -4999121.67346  -3895410.09461
  22667112.644    -7701253.452 6  -6000945.74721
  20679627.9334   -2400478.04746  -1793654.64163
 91  3 25 22 24 44.9990000  0  4G18G11G 2G19
  20838717.081      967653.976 8    754008.87123
  22648859.3394   -5027876.00946  -3917816.01961
  22656928.7304   -7754761.73546  -6042640.33861
  20676680.4874   -2415975.40446  -1805730.49863
 91  3 25 22 24 59.9990000  0  4G18G11G 2G19
  20841468.1204     982106.00748    765270.13763
  22643411.0974   -5056494.81746  -3940116.33061
  22646757.362    -7808210.585 6  -6084288.62621
  20673735.6984   -2431435.00746  -1817776.93563
 91  3 25 22 25 14.9990000  0  4G18G11G 2G19
  20844236.815      996656.991 8    776608.50923
  22637990.3704   -5084983.44046  -3962315.20461
  22636599.5034   -7861605.56146  -6125894.92061
  20670804.2534   -2446862.31546  -1829798.20763
 91  3 25 22 25 29.9990000  0  4G18G11G 2G19
  20847026.917     1011318.848 8    788033.28023
  22632596.0894   -5113329.71346  -3984403.15461
  22626452.128    -7914934.383 6  -6167449.67821
  20667873.6754   -2462245.20846  -1841784.87863
 91  3 25 22 25 44.9990000  0  4G18G11G 2G19
  20849837.198     1026090.998 7    799544.00223
  22627229.7764   -5141533.74846  -4006380.26761
  22616312.644    -7968197.340 6  -6208953.11221
  20664957.4564   -2477583.92346  -1853737.13263
 91  3 25 22 25 59.9990000  0  4G18G11G 2G19
  20852667.995     1040966.299 7    811135.09723
  22621888.339    -5169602.643 6  -4028252.08321
  22606189.706    -8021401.695 6  -6250410.87621
  20662041.698    -2492885.566 6  -1865660.46923
 91  3 25 22 26 14.9990000  0  4G18G11G 2G19
  20855517.003     1055941.869 7    822804.32023
  22616571.2064   -5197538.88746  -4050020.51861
  22596076.5194   -8074550.06546  -6291825.01461
  20659139.0114   -2508153.05946  -1877557.21563
 91  3 25 22 26 29.9990000  0  4G18G11G 2G19
  20858388.644     1071026.609 8    834558.61023
  22611284.159    -5225333.323 6  -4071678.46521
  22585972.9334   -8127633.31446  -6333188.43061
  20656244.0194   -2523377.23046  -1889420.19263
 91  3 25 22 26 44.9990000  0  4G18G11G 2G19
  20861277.737     1086211.462 8    846390.91123
  22606019.5734   -5252994.54746  -4093232.60561
  22575884.026    -8180660.004 6  -6374507.75721
  20653352.9874   -2538566.77946  -1901256.20263
 91  3 25 22 26 59.9990000  0  4G18G11G 2G19
  20864185.808     1101495.940 7    858300.84723
  22600779.9954   -5280522.57746  -4114682.95561
  22565802.448    -8233630.527 6  -6415783.31821
  20650464.956    -2553721.887 6  -1913065.38323
 91  3 25 22 27 14.9990000  0  4G18G11G 2G19
  20867116.222     1116888.428 7    870294.94423
  22595567.4804   -5307908.87346  -4136022.86461
  22555736.425    -8286536.266 6  -6457008.40921
  20647590.9564   -2568834.14046  -1924841.16663
 91  3 25 22 27 29.9990000  0  4G18G11G 2G19
  20870064.815     1132383.849 8    882369.25123
  22590381.9564   -5335158.20846  -4157256.05161
  22545678.683    -8339381.997 6  -6498186.73421
  20644721.5974   -2583908.40346  -1936587.34063
 91  3 25 22 27 44.9990000  0  4G18G11G 2G19
  20873033.042     1147982.433 7    894523.93223
  22585224.9254   -5362269.88746  -4178381.96861
  22535635.128    -8392167.309 6  -6539317.97521
  20641861.4404   -2598944.23146  -1948303.56963
 91  3 25 22 27 59.9990000  0  4G18G11G 2G19
  20876020.315     1163679.783 7    906755.58523
  22580089.2924   -5389248.08146  -4199403.87561
  22525598.823    -8444896.518 6  -6580405.50621
  20639007.8624   -2613946.06646  -1959993.31863
 91  3 25 22 28 14.9990000  0  4G18G11G 2G19
  20879027.0974    1179477.23447    919065.23063
  22574982.7694   -5416091.08046  -4220320.43261
  22515576.519    -8497567.989 6  -6621448.04921
  20636159.542    -2628912.122 6  -1971655.15123
 91  3 25 22 28 29.9990000  0  4G18G11G 2G19
  20882052.6984    1195378.43247    931455.71763
  22569901.7924   -5442794.73346  -4241128.41461
  22505566.214    -8550177.528 6  -6662442.32921
  20633317.0734   -2643838.20846  -1983285.83963
 91  3 25 22 28 44.9990000  0  4G18G11G 2G19
  20885098.214     1211384.046 7    943927.56723
  22564844.3554   -5469358.28846  -4261827.22261
  22495565.511    -8602724.401 6  -6703387.78121
  20630487.097    -2658723.786 6  -1994884.97623
 91  3 25 22 28 59.9990000  0  4G18G11G 2G19
  20888163.6674    1227492.10847    956479.24163
  22559816.9094   -5495783.40846  -4282418.16061
  22485577.089    -8655210.481 6  -6744285.86321
  20627662.339    -2673570.558 6  -2006453.87523
 91  3 25 22 29 14.9990000  0  4G18G11G 2G19
  20891247.4954    1243697.02647    969106.38263
  22554814.3314   -5522075.18146  -4302905.19761
  22475600.526    -8707640.984 6  -6785140.62721
  20624841.2454   -2688383.84546  -2017996.68963
 91  3 25 22 29 29.9990000  0  4G18G11G 2G19
  20894351.159     1260004.146 7    981813.17123
  22549839.0894   -5548227.99046  -4323283.94061
  22465635.472    -8760010.397 6  -6825947.80221
  20622027.7614   -2703158.21446  -2029509.17963
 91  3 25 22 29 44.9990000  0  4G18G11G 2G19
  20897473.831     1276411.834 7    994598.33523
  22544887.2144   -5574243.18046  -4343555.44661
  22455679.667    -8812320.145 6  -6866708.48021
  20619227.2144   -2717895.26246  -2040992.58263
 91  3 25 22 29 59.9990000  0  4G18G11G 2G19
  20900614.4804    1292922.47247   1007463.70463
  22539961.9874   -5600118.09746  -4363717.67161
  22445737.433    -8864567.714 6  -6907420.71021
  20616428.5034   -2732592.17246  -2052444.71563
 91  3 25 22 30 14.9990000  0  4G18G11G 2G19
  20903776.5814    1309534.43847   1020408.02063
  22535065.3084   -5625853.89046  -4383771.45761
  22435807.198    -8916754.233 6  -6948085.36321
  20613641.4014   -2747250.26046  -2063866.58263
 91  3 25 22 30 29.9990000  0  4G18G11G 2G19
  20906957.4724    1326249.53847   1033432.71063
  22530194.1904   -5651448.82146  -4403715.48961
  22425888.659    -8968878.181 6  -6988701.26021
  20610859.011    -2761867.860 6  -2075256.94523
 91  3 25 22 30 44.9990000  0  4G18G11G 2G19
  20910157.9954    1343071.83647   1046540.92963
  22525351.1514   -5676898.14346  -4423546.06161
  22415981.386    -9020934.774 6  -7029264.66621
  20608085.6444   -2776440.53846  -2086612.27363
 91  3 25 22 30 59.9990000  0  4G18G11G 2G19
  20913378.8474    1359994.02447   1059726.98863
  22520535.4334   -5702208.59946  -4443268.43161
  22406086.792    -9072930.847 6  -7069780.92221
  20605318.136    -2790974.866 6  -2097937.71323
 91  3 25 22 31 14.9990000  0  4G18G11G 2G19
  20916617.0814    1377015.47947   1072990.39263
  22515744.2144   -5727380.79946  -4462883.06361
  22396205.112    -9124867.061 6  -7110250.52521
  20602561.9724   -2805471.62946  -2109233.89363
 91  3 25 22 31 29.9990000  0  4G18G11G 2G19
  20919875.5974    1394137.35947   1086332.04863
  22510982.2764   -5752413.30846  -4482388.84061
  22386332.120    -9176742.132 6  -7150672.48421
  20599807.9564   -2819929.62846  -2120499.86663
 91  3 25 22 31 44.9990000  0  4G18G11G 2G19
  20923152.4564    1411358.47447   1099751.02663
  22506242.6124   -5777306.82146  -4501786.32061
  22376470.7304   -9228556.82046  -7191047.38761
  20597065.8624   -2834349.56746  -2131736.18763
 91  3 25 22 31 59.9990000  0  5G18G11G 2G19G16
  20926449.3154    1428682.40447   1113250.12763
  22501533.909    -5802057.692 6  -4521072.64121
  22366622.9484   -9280307.46746  -7231372.39061
  20594327.8394   -2848727.94947  -2142940.12263
  23929662.112          -0.52714
 91  3 25 22 32 14.9990000  0  5G18G11G 2G19G16
  20929765.7304    1446108.25147   1126828.64463
  22496853.3864   -5826666.44046  -4540248.22161
  22356788.2844   -9331994.80946  -7271648.05761
  20591602.8624   -2863065.39646  -2154112.15863
  23923899.9334     -30278.64944
 91  3 25 22 32 29.9990000  0  5G18G11G 2G19G16
  20933101.1054    1463636.19247   1140486.70763
  22492196.8864   -5851132.20346  -4559312.38561
  22346965.1754   -9383618.07946  -7311873.80661
  20588878.7764   -2877361.10646  -2165251.67163
  23918167.011      -60430.770 5        -0.10331
 91  3 25 22 32 44.9990000  0  5G18G11G 2G19G16
  20936454.1674    1481259.31047   1154218.94363
  22487567.3704   -5875461.65846  -4578270.33461
  22337151.2224   -9435183.78646  -7352054.69761
  20586165.659    -2891621.626 6  -2176363.75223
  23912450.815      -90463.708 5    -23402.41421
 91  3 25 22 32 59.9990000  0  5G18G11G 2G19G16
  20939826.8864    1498981.47147   1168028.35363
  22482962.5814   -5899650.78946  -4597118.94361
  22327349.8154   -9486688.26146  -7392187.87461
  20583458.3314   -2905843.22646  -2187445.51763
  23906758.378     -120373.408 5    -46708.68121
 91  3 25 22 33 14.9990000  0  5G18G11G 2G19G16
  20943218.4954    1516804.62447   1181916.45863
  22478386.3864   -5923697.55646  -4615856.61961
  22317561.8704   -9538129.55346  -7432271.82061
  20580762.1514   -2920023.93346  -2198495.40563
  23901088.3314    -150157.77545    -69917.31561
 91  3 25 22 33 29.9990000  0  5G18G11G 2G19G16
  20946631.2144    1534735.37347   1195888.41063
  22473841.2844   -5947594.86946  -4634477.83661
  22307785.7064   -9589500.42246  -7472300.89861
  20578074.4874   -2934156.80646  -2209508.03363
  23895446.042     -179809.834 5    -93022.84621
 91  3 25 22 33 44.9990000  0  5G18G11G 2G19G16
  20950064.0894    1552771.48847   1209942.46263
  22469321.1364   -5971344.67546  -4652984.11861
  22298023.073    -9640803.057 6  -7512276.79021
  20575392.0344   -2948243.69446  -2220484.81663
  23889830.3004    -209331.84545   -116027.04161
 91  3 25 22 33 59.9990000  0  5G18G11G 2G19G16
  20953513.8394    1570906.84647   1224073.84363
  22464826.7534   -5994952.80846  -4671380.00661
  22288272.4644   -9692043.28246  -7552204.06561
  20572716.0894   -2962290.44746  -2231430.32763
  23884234.5114    -238729.66345   -138934.46161
 91  3 25 22 34 14.9990000  0  5G18G11G 2G19G16
  20956984.3864    1589141.17447   1238282.35463
  22460362.675    -6018419.225 6  -4689665.46721
  22278535.8084   -9743221.14946  -7592082.74961
  20570054.0114   -2976297.26746  -2242344.72663
  23878663.6284    -268003.44645   -161745.23361
 91  3 25 22 34 29.9990000  0  5G18G11G 2G19G16
  20960473.0734    1607474.40647   1252567.92263
  22455924.448    -6041743.445 6  -4707840.13021
  22268806.065    -9794336.126 6  -7631912.43021
  20567392.7144   -2990263.75546  -2253227.69263
  23873118.534     -297152.512 5   -184458.82321
 91  3 25 22 34 44.9990000  0  5G18G11G 2G19G16
  20963980.003     1625902.415 7   1266927.33923
  22451512.5654   -6064929.26046  -4725906.93961
  22259089.620    -9845392.307 6  -7671696.29421
  20564745.5424   -3004193.88246  -2264082.33163
  23867595.565     -326180.982 5   -207078.42921
 91  3 25 22 34 59.9990000  0  5G18G11G 2G19G16
  20967504.6284    1644426.37447   1281361.52463
  22447125.784    -6087975.195 6  -4743864.75921
  22249386.409    -9896388.251 6  -7711433.22421
  20562098.3704   -3018086.11347  -2274907.45663
  23862090.612     -355087.421 5   -229602.94821
 91  3 25 22 35 14.9990000  0  5G18G11G 2G19G16
  20971048.5114    1663048.70947   1295872.36463
  22442767.339    -6110878.682 6  -4761711.58321
  22239694.5654   -9947321.46546  -7751121.28461
  20559465.5584   -3031937.99446  -2285701.12163
  23856614.292     -383869.159 5   -252030.29821
 91  3 25 22 35 29.9990000  0  5G18G11G 2G19G16
  20974611.3784    1681775.89747   1310464.91863
  22438436.2924   -6133633.00946  -4779442.16661
  22230012.167    -9998185.227 6  -7790755.22121
  20556840.0974   -3045742.77846  -2296458.08363
  23851162.472     -412519.698 5   -274355.41421
 91  3 25 22 35 44.9990000  0  5G18G11G 2G19G16
  20978194.7614    1700602.56647   1325134.98863
  22434134.401    -6156243.064 6  -4797060.34221
  22220349.073   -10048984.278 6  -7830338.72821
  20554221.3864   -3059505.51446  -2307182.29763
  23845734.722     -441043.890 5   -296582.07721
 91  3 25 22 35 59.9990000  0  5G18G11G 2G19G16
  20981794.7454    1719524.78547   1339879.50663
  22429859.448    -6178712.689 6  -4814569.09321
  22210692.3084  -10099722.66446  -7869874.98161
  20551606.7144   -3073230.22846  -2317876.87663
  23840332.2374    -469445.87245   -318713.51961
 91  3 25 22 36 14.9990000  0  5G18G11G 2G19G16
  20985414.6674    1738546.53647   1354701.58163
  22425609.8394   -6201037.61846  -4831965.08361
  22201049.4254  -10150396.27646  -7909360.75161
  20549004.5264   -3086912.52646  -2328538.40163
  23834951.190     -497721.283 5   -340746.33421
 91  3 25 22 36 29.9990000  0  5G18G11G 2G19G16
  20989054.1674    1757668.23047   1369601.52963
  22421390.940    -6223216.712 6  -4849247.45121
  22191420.2924  -10201004.05046  -7948795.22661
  20546406.698    -3100551.320 7  -2339166.01823
  23829595.698     -525869.143 5   -362679.74721
 91  3 25 22 36 44.9990000  0  5G18G11G 2G19G16
  20992709.222     1776873.197 7   1384566.38423
  22417194.073    -6245266.583 6  -4866429.12121
  22181797.878   -10251562.644 6  -7988191.37121
  20543818.5584   -3114163.31846  -2349772.75263
  23824261.8234    -553905.90145   -384526.60761
 91  3 25 22 36 59.9990000  0  5G18G11G 2G19G16
  20996383.0584    1796182.72447   1399612.70563
  22413027.651    -6267165.838 6  -4883493.43621
  22172190.8474  -10302050.61346  -8027532.48861
  20541236.5264   -3127727.30746  -2360342.09563
  23818951.487     -581810.577 5   -406270.53921
 91  3 25 22 37 14.9990000  0  5G18G11G 2G19G16
  21000078.5584    1815598.89947   1414742.12263
  22408888.573    -6288912.024 6  -4900438.46721
  22162594.6674  -10352465.49446  -8066816.66661
  20538667.4724   -3141240.78146  -2370872.06763
  23813666.3784    -609580.82845   -427909.73661
 91  3 25 22 37 29.9990000  0  5G18G11G 2G19G16
  21003789.1364    1835105.53747   1429942.04163
  22404776.980    -6310520.804 6  -4917276.43421
  22153011.5034  -10402823.21746  -8106056.29161
  20536099.4804   -3154719.47446  -2381374.94763
  23808405.4334    -637232.55745   -449456.56161
 91  3 25 22 37 44.9990000  0  5G18G11G 2G19G16
  21007520.7224    1854707.51647   1445216.24063
  22400691.128    -6331987.056 6  -4934003.33921
  22143442.3624  -10453118.60746  -8145247.34861
  20533544.1834   -3168158.29546  -2391846.75563
  23803166.925     -664760.213 5   -470906.71421
 91  3 25 22 37 59.9990000  0  5G18G11G 2G19G16
  21011268.6834    1874405.46947   1460565.22763
  22396633.878    -6353309.873 6  -4950618.47921
  22133884.6754  -10503351.00246  -8184389.32661
  20530991.4174   -3181556.40547  -2402286.83663
  23797949.808     -692163.253 5   -492259.75221
 91  3 25 22 38 14.9990000  0  5G18G11G 2G19G16
  21015035.3004    1894200.57747   1475989.92063
  22392603.628    -6374487.854 6  -4967120.75121
  22124337.8154  -10553518.85546  -8223481.01161
  20528451.683    -3194912.233 6  -2412693.95923
  23792761.386     -719440.583 5   -513514.85121
 91  3 25 22 38 29.9990000  0  5G18G11G 2G19G16
  21018821.7304    1914094.79047   1491491.83763
  22388601.7064   -6395518.38846  -4983508.14961
  22114802.8154  -10603619.52446  -8262520.34261
  20525917.925    -3208223.386 6  -2423066.27823
  23787594.4874    -746589.41045   -534669.82161
 91  3 25 22 38 44.9990000  0  5G18G11G 2G19G16
  21022624.9874    1934081.31747   1507065.68563
  22384626.9174   -6416408.29646  -4999785.95461
  22105280.5504  -10653659.85446  -8301512.65661
  20523394.3004   -3221496.66846  -2433409.08663
  23782450.0264    -773616.48645   -555729.90261
 91  3 25 22 38 59.9980000  0  5G18G11G 2G19G16
  21026447.0454    1954164.32047   1522714.71363
  22380678.170    -6437150.629 6  -5015948.76821
  22095771.9124  -10703631.10346  -8340451.14961
  20520876.6394   -3234725.56946  -2443717.31163
  23777332.693     -800514.757 5   -576689.60821
 91  3 25 22 39 14.9980000  0  5G18G11G 2G19G16
  21030288.725     1974348.348 7   1538442.46623
  22376759.514    -6457745.627 6  -5031996.78421
  22086274.0294  -10753537.44246  -8379339.05261
  20518369.475    -3247909.596 6  -2453990.56523
  23772239.5844    -827285.31345   -597549.81361
 91  3 25 22 39 29.9980000  0  5G18G11G 2G19G16
  21034147.9434    1994627.96047   1554244.70563
  22372867.8114   -6478195.56146  -5047931.75961
  22076789.7564  -10803379.31846  -8418176.73361
  20515864.5224   -3261051.50846  -2464231.00963
  23767167.998     -853930.180 5   -618312.07421
 91  3 25 22 39 44.9980000  0  5G18G11G 2G19G16
  21038024.6544    2015004.95447   1570122.82163
  22369005.9284   -6498498.82546  -5063752.45761
  22067316.9364  -10853155.15646  -8456962.95261
  20513373.7954   -3274149.72246  -2474437.39763
  23762121.7094    -880447.82945   -638975.19861
 91  3 25 22 39 59.9980000  0  5G18G11G 2G19G16
  21041919.2564    2035474.30147   1586072.90963
  22365168.3114   -6518660.01746  -5079462.44261
  22057856.0684  -10902869.58846  -8495701.32261
  20510888.4284   -3287208.75746  -2484613.27263
  23757100.3814    -906842.77245   -659542.72161
 91  3 25 22 40 14.9980000  0  5G18G11G 2G19G16
  21045832.5224    2056035.76047   1602094.76463
  22361359.2954   -6538678.86446  -5095061.50861
  22048408.7094  -10952522.43546  -8534391.70261
  20508412.8894   -3300228.40046  -2494758.44263
  23752099.5294    -933114.83345   -680014.48461
 91  3 25 22 40 29.9980000  0  5G18G11G 2G19G16
  21049764.3734    2076692.63247   1618190.96363
  22357579.1154   -6558551.88346  -5110546.94461
  22038971.568   -11002110.134 6  -8573031.32221
  20505940.615    -3313205.212 6  -2504870.22923
  23747123.959     -959260.580 5   -700387.83721
 91  3 25 22 40 44.9980000  0  6G18G11G 2G19G16G 6
  21053714.7874    2097453.78747   1634368.42063
  22353825.4364   -6578269.84746  -5125911.56061
  22029549.5844  -11051623.52446  -8611613.03462
  20503483.654    -3326130.145 6  -2514941.59123
  23742174.7724    -985271.00945   -720655.73761
  23934325.3264     -47784.64044
 91  3 25 22 40 59.9980000  0  6G18G11G 2G19G16G 6
  21057683.7094    2118311.06847   1650620.77963
  22350099.1474   -6597840.60646  -5141161.47461
  22020139.709   -11101070.556 6  -8650143.04221
  20501031.3574   -3339010.84546  -2524978.50063
  23737248.7724   -1011154.18845   -740824.48661
  23925231.6474     -95570.41844
 91  3 25 22 41 14.9980000  0  6G18G11G 2G19G16G 6
  21061669.9044    2139265.11647   1666948.54863
  22346404.7954   -6617263.46646  -5156296.13861
  22010742.9044  -11150450.53946  -8688620.80761
  20498589.0144   -3351846.71246  -2534980.46463
  23732349.8894   -1036909.59845   -760893.68461
  23916136.2564    -143357.02444
 91  3 25 22 41 29.9980000  0  6G18G11G 2G19G16G 6
  21065676.2324    2160316.55247   1683352.21163
  22342738.3974   -6636537.43046  -5171314.78161
  22001359.592   -11199762.515 6  -8727045.58121
  20496153.5764   -3364636.91246  -2544946.85863
  23727471.4124   -1062536.16645   -780862.46861
  23907043.186     -191143.654 4
 91  3 25 22 41 44.9980000  0  6G18G11G 2G19G16G 6
  21069700.967     2181464.134 7   1699830.79223
  22339099.1394   -6655663.31146  -5186218.04861
  21991989.5454  -11249007.24146  -8765417.94761
  20493730.4514   -3377382.12946  -2554878.19563
  23722618.912    -1088034.619 5   -800731.43321
  23897948.717     -238931.060 4        -0.41231
 91  3 25 22 41 59.9980000  0  6G18G11G 2G19G16G 6
  21073743.303     2202700.749 7   1716378.75123
  22335483.748    -6674647.914 6  -5201011.22221
  21982629.193   -11298191.537 6  -8803743.23821
  20491309.8264   -3390089.13746  -2564779.76363
  23717790.201    -1113411.665 5   -820505.77921
  23888854.8184    -286726.38745    -37243.37961
 91  3 25 22 42 14.9980000  0  6G18G11G 2G19G16G 6
  21077802.061     2224034.555 7   1733002.44723
  22331900.5684   -6693482.87146  -5215687.78361
  21973282.842   -11347307.202 6  -8842015.04221
  20488902.7644   -3402749.74846  -2574645.17563
  23712984.2404   -1138659.19245   -840179.21561
  23879760.1474    -334521.29045    -74485.99761
 91  3 25 22 42 29.9980000  0  6G18G11G 2G19G16G 6
  21081879.982     2245462.704 7   1749699.65322
  22328344.537    -6712170.940 6  -5230249.89721
  21963948.373   -11396356.991 6  -8880235.51921
  20486502.357    -3415366.679 6  -2584476.55923
  23708202.920    -1163780.160 5   -859754.03021
  23870664.389     -382318.743 5   -111730.59721
 91  3 25 22 42 44.9980000  0  6G18G11G 2G19G16G 6
  21085975.0294    2266987.26547   1766471.98262
  22324817.4594   -6730709.35546  -5244695.39361
  21954627.389   -11445338.100 6  -8918402.47121
  20484108.4674   -3427937.26846  -2594271.83463
  23703449.951    -1188771.953 5   -879228.20121
  23861570.295     -430116.105 5   -148975.12721
 91  3 25 22 42 59.9980000  0  6G18G11G 2G19G16G 6
  21090089.7094    2288609.02347   1783320.04362
  22321317.967    -6749097.449 6  -5259023.75521
  21945318.811   -11494249.958 6  -8956515.46922
  20481724.2094   -3440460.68246  -2604030.32963
  23698719.209    -1213633.966 5   -898601.22021
  23852474.397     -477912.777 5   -186219.15121
 91  3 25 22 43 14.9980000  0  6G18G11G 2G19G16G 6
  21094220.818     2310318.392 7   1800236.37922
  22317845.717    -6767344.279 6  -5273242.04821
  21936024.014   -11543101.623 6  -8994581.56722
  20479353.3814   -3452945.87946  -2613759.06263
  23694009.6934   -1238374.91745   -917879.94561
  23843376.7724    -525718.01445   -223469.83961
 91  3 25 22 43 29.9980000  0  6G18G11G 2G19G16G 6
  21098371.170     2332125.524 7   1817228.89722
  22314401.647    -6785439.329 6  -5287342.06521
  21926743.053   -11591882.605 6  -9032592.58321
  20476984.0454   -3465382.40746  -2623449.86463
  23689326.053    -1262984.743 5   -937056.46821
  23834281.1624    -573521.36945   -260719.05861
 91  3 25 22 43 44.9980000  0  6G18G11G 2G19G16G 6
  21102539.2324    2354027.68247   1834295.45262
  22310987.357    -6803385.360 6  -5301325.96421
  21917471.162   -11640595.608 6  -9070550.63121
  20474624.9124   -3477773.15046  -2633104.98863
  23684669.6394   -1287466.31145   -956133.07061
  23825179.053     -621325.692 5   -297969.00921
 91  3 25 22 43 59.9980000  0  6G18G11G 2G19G16G 6
  21106725.6004    2376024.13247   1851435.48162
  22307598.5064   -6821182.59746  -5315193.93161
  21908214.717   -11689240.792 6  -9108455.83921
  20472276.3504   -3490118.28446  -2642724.58663
  23680035.2094   -1311819.72845   -975109.79961
  23816086.3734    -669131.37045   -335220.03761
 91  3 25 22 44 14.9980000  0  6G18G11G 2G19G16G 6
  21110929.1474    2398119.27747   1868652.41862
  22304242.857    -6838826.536 6  -5328942.43621
  21898971.9434  -11737813.82546  -9146304.82561
  20469939.1314   -3502413.19946  -2652305.04863
  23675427.318    -1336040.716 5   -993983.34621
  23806985.4204    -716933.93045   -372468.63661
 91  3 25 22 44 29.9980000  0  6G18G11G 2G19G16G 6
  21115151.764     2420307.251 7   1885941.69922
  22300912.959    -6856322.684 6  -5342575.78021
  21889740.209   -11786320.459 6  -9184102.07121
  20467604.264    -3514663.598 6  -2661850.81623
  23670839.8734   -1360134.75345  -1012757.97361
  23797892.357     -764739.152 5   -409719.32821
 91  3 25 22 44 44.9980000  0  6G18G11G 2G19G16G 6
  21119392.8264    2442585.91247   1903301.63162
  22297610.326    -6873672.870 6  -5356095.39721
  21880520.9674  -11834762.47546  -9221848.96961
  20465282.4984   -3526871.19546  -2671363.24563
  23666281.2014   -1384103.62845  -1031435.05761
  23788792.8424    -812548.94645   -446973.59461
 91  3 25 22 44 59.9980000  0  6G18G11G 2G19G16G 6
  21123648.6394    2464954.19147   1920731.40262
  22294338.9284   -6890878.04546  -5369502.02361
  21871316.3184  -11883140.79946  -9259546.23761
  20462966.506    -3539036.897 6  -2680843.01823
  23661743.7954   -1407948.54145  -1050015.53861
  23779692.943     -860364.340 5   -484232.21321
 91  3 25 22 45 14.9980000  0  6G18G11G 2G19G16G 6
  21127922.7254    2487418.14347   1938235.72062
  22291091.678    -6907931.672 6  -5382790.54321
  21862123.2564  -11931448.89446  -9297188.78262
  20460660.123    -3551154.271 6  -2690285.14423
  23657228.8184   -1431663.24845  -1068494.57261
  23770595.4364    -908178.78745   -521490.07661
 91  3 25 22 45 29.9980000  0  6G18G11G 2G19G16G 6
  21132213.9204    2509971.36147   1955809.59862
  22287874.8184   -6924840.07346  -5395965.90861
  21852942.5534  -11979692.94846  -9334781.42861
  20458363.4514   -3563229.46146  -2699694.39163
  23652740.8974   -1455253.93245  -1086876.96061
  23761494.2724    -955998.91645   -558752.39161
 91  3 25 22 45 44.9980000  0  6G18G11G 2G19G16G 6
  21136523.9124    2532616.33247   1973454.97162
  22284683.186    -6941600.337 6  -5409025.83721
  21843774.1074  -12027870.14946  -9372321.97861
  20456076.0224   -3575259.65346  -2709068.57363
  23648275.7564   -1478717.68545  -1105160.44061
  23752394.787    -1003821.681 5   -596016.81521
 91  3 25 22 45 59.9980000  0  6G18G11G 2G19G16G 6
  21140850.0684    2555352.32047   1991171.25962
  22281525.022    -6958212.963 6  -5421970.73121
  21834618.2174  -12075981.07446  -9409810.88962
  20453797.217    -3587245.353 6  -2718408.09023
  23643834.1314   -1502055.16145  -1123345.51661
  23743294.5064   -1051647.90445   -633283.88761
 91  3 25 22 46 14.9980000  0  6G18G11G 2G19G16G 6
  21145195.7874    2578184.21847   2008962.28162
  22278389.186    -6974672.564 6  -5434796.38021
  21825477.6394  -12124020.35546  -9447243.97761
  20451522.670    -3599181.252 6  -2727708.80923
  23639419.2404   -1525260.99645  -1141428.02861
  23734192.693    -1099472.288 5   -670549.51621
 91  3 25 22 46 29.9980000  0  6G18G11G 2G19G16G 6
  21149557.0224    2601107.99047   2026824.89662
  22275287.482    -6990983.223 6  -5447505.96121
  21816347.4904  -12171992.15646  -9484624.47962
  20449255.5064   -3611071.25846  -2736973.76163
  23635026.904    -1548339.484 5  -1159411.30721
  23725094.404    -1147298.859 5   -707816.86921
 91  3 25 22 46 44.9980000  0  6G18G11G 2G19G16G 6
  21153936.1934    2624124.67947   2044759.91862
  22272215.9594   -7007143.42346  -5460098.31461
  21807231.2874  -12219894.93446
  20447005.522    -3622913.854 6  -2746201.77223
  23630661.772    -1571289.165 5  -1177294.20221
  23715991.873    -1195126.387 5
 91  3 25 22 46 59.9980000  0  6G18G11G 2G19G16G 6
  21158335.5294    2647235.07047   2062767.95162
  22269165.654    -7023152.194 6  -5472572.66821
  21798131.2954  -12267727.64246
  20444760.178    -3634707.892 6  -2755391.94723
  23626317.3574   -1594108.97145  -1195075.93661
  23706889.467    -1242953.851 5
 91  3 25 22 47 14.9980000  0  6G18G11G 2G19G16G 6
  21162749.4434    2670435.86747   2080846.43262
  22266147.615    -7039012.403 6  -5484931.26121
  21789041.8184  -12315493.18246  -9596443.08862
  20442527.490    -3646456.369 6  -2764546.61323
  23621998.107    -1616802.076 5  -1212758.91921
  23697788.443    -1290784.316 5   -819623.40521
 91  3 25 22 47 29.9980000  0  6G18G11G 2G19G16G 6
  21167183.529     2693729.247 7   2098997.04623
  22263158.5844   -7054721.99046  -5497172.47361
  21779964.4674  -12363189.36546  -9633608.82362
  20440296.568    -3658157.174 6  -2773664.13923
  23617707.045    -1639366.010 5  -1230341.26221
  23688687.2954   -1338615.65545   -856894.44461
 91  3 25 22 47 44.9980000  0  6G18G11G 2G19G16G 6
  21171632.326     2717106.995 7   2117213.39823
  22260197.139    -7070288.774 6  -5509302.42221
  21770900.1544  -12410824.08046  -9670726.65862
  20438081.373    -3669818.231 6  -2782750.68723
  23613435.0924   -1661809.10745  -1247829.43961
  23679582.522    -1386455.876 5   -894172.45321
 91  3 25 22 47 59.9980000  0  6G18G11G 2G19G16G 6
  21176097.920     2740576.006 7   2135500.86523
  22257264.264    -7085705.686 6  -5521315.58521
  21761847.7014  -12458390.24346  -9707791.08362
  20435871.318    -3681432.302 6  -2791800.63223
  23609188.4364   -1684124.23045  -1265217.88761
  23670477.311    -1434297.941 5   -931451.87921
 91  3 25 22 48 14.9980000  0  6G18G11G 2G19G16G 6
  21180580.647     2764133.910 7   2153857.59023
  22254357.975    -7100974.552 6  -5533213.38621
  21752808.3424  -12505889.88546  -9744803.66062
  20433670.5454   -3693001.22946  -2800815.40563
  23604964.9904   -1706313.30645  -1282508.13061
  23661371.3424   -1482143.84745   -968734.30161
 91  3 25 22 48 29.9980000  0  6G18G11G 2G19G16G 6
  21185079.811     2787779.388 7   2172282.55623
  22251480.428    -7116096.513 6  -5544996.71721
  21743783.5924  -12553323.90946  -9781765.10962
  20431476.8264   -3704525.87646  -2809795.65963
  23600768.7644   -1728377.57045  -1299701.10861
  23652267.514    -1529994.764 5  -1006020.58721
 91  3 25 22 48 44.9980000  0  6G18G11G 2G19G16G 6
  21189597.8034    2811514.69047   2190777.52563
  22248632.881    -7131069.138 6  -5556663.68321
  21734769.4904  -12600689.93346  -9818673.57462
  20429292.561    -3716004.036 6  -2818739.69623
  23596593.951    -1750314.673 5  -1316794.99421
  23643163.1394   -1577848.31945  -1043308.95461
 91  3 25 22 48 59.9980000  0  6G18G11G 2G19G16G 6
  21194130.678     2835340.727 7   2209343.19522
  22245808.717    -7145891.303 6  -5568213.40821
  21725769.1704  -12647986.93446  -9855528.25261
  20427113.6154   -3727434.44546  -2827646.51863
  23592441.8034   -1772123.70345  -1333789.07861
  23634053.5294   -1625703.46945  -1080598.59361
 91  3 25 22 49 14.9980000  0  6G18G11G 2G19G16G 6
  21198681.732     2859253.274 7   2227976.27823
  22243016.6934   -7160566.75446  -5579648.82361
  21716781.4434  -12695218.59246  -9892332.01462
  20424949.912    -3738820.788 6  -2836519.00523
  23588315.3654   -1793808.16245  -1350686.09061
  23624948.7254   -1673564.01445  -1117892.41161
 91  3 25 22 49 29.9980000  0  6G18G11G 2G19G16G 6
  21203249.537     2883255.040 7   2246678.86322
  22240254.662    -7175092.867 6  -5590967.85821
  21707807.412   -12742382.132 6  -9929082.69622
  20422793.0144   -3750160.27346  -2845354.97763
  23584213.623    -1815365.690 5  -1367484.21421
  23615838.623    -1721427.338 5  -1155188.34721
 91  3 25 22 49 44.9980000  0  6G18G11G 2G19G16G 6
  21207833.748     2907348.514 7   2265452.91322
  22237517.5684   -7189466.50546  -5602168.08661
  21698843.9434  -12789474.68746  -9965778.06462
  20420645.9044   -3761449.96746  -2854152.14463
  23580137.3184   -1836793.13645  -1384180.95961
  23606732.428    -1769290.577 5  -1192484.30721
 91  3 25 22 49 59.9980000  0  6G18G11G 2G19G16G 6
  21212434.779     2931529.275 7   2284294.97722
  22234809.6704   -7203692.00646  -5613252.88761
  21689895.592   -12836500.730 6 -10002421.60322
  20418502.8654   -3772694.18746  -2862913.88063
  23576086.107    -1858095.010 5  -1400779.87721
  23597619.865    -1817158.207 5  -1229783.65121
 91  3 25 22 50 14.9980000  0  6G18G11G 2G19G16G 6
  21217054.748     2955801.098 7   2303208.00122
  22232132.654    -7217765.444 6  -5624219.18021
  21680961.1004  -12883456.17946 -10039010.13562
  20416374.1004   -3783888.91346  -2871637.04863
  23572054.1864   -1879267.40945  -1417277.87261
  23588511.537    -1865026.259 5  -1267083.30021
 91  3 25 22 50 29.9980000  0  6G18G11G 2G19G16G 6
  21221690.131     2980159.566 7   2322188.54622
  22229484.850    -7231690.838 6  -5635070.12621
  21672038.4824  -12930345.00346 -10075546.75862
  20414250.6934   -3795037.86246  -2880324.54663
  23568050.6234   -1900314.48745  -1433678.23361
  23579401.506    -1912898.627 5  -1304386.28321
 91  3 25 22 50 44.9980000  0  6G18G11G 2G19G16G 6
  21226341.5764    3004602.12247   2341234.60862
  22226860.3654   -7245470.76946  -5645807.73261
  21663127.170   -12977169.774 6 -10112033.45922
  20412139.9824   -3806143.80646  -2888978.53663
  23564068.248    -1921238.914 6  -1449983.02021
  23570291.147    -1960778.074 5  -1341694.89121
 91  3 25 22 50 59.9980000  0  6G18G11G 2G19G16G 6
  21231009.5684    3029136.32947   2360352.08362
  22224265.1004   -7259097.07446  -5656425.62061
  21654229.5064  -13023922.21546 -10148463.81261
  20410034.4824   -3817198.49446  -2897592.57263
  23560110.256    -1942032.539 5  -1466185.90221
  23561180.2404   -2008656.43045  -1379002.52061
 91  3 25 22 51 14.9980000  0  6G18G11G 2G19G16G 6
  21235696.1934    3053762.98647   2379541.59362
  22221708.0144   -7272568.91546  -5666923.15261
  21645346.0144  -13070601.61046 -10184837.24361
  20407941.9514   -3828200.98846  -2906165.94863
  23556178.9984   -1962694.30845  -1482286.03461
  23552070.1544   -2056532.99345  -1416308.81961
 91  3 25 22 51 29.9980000  0  6G18G11G 2G19G16G 6
  21240397.8974    3078472.58747   2398795.73562
  22219165.0454   -7285895.39946  -5677307.42661
  21636476.8894  -13117217.07146 -10221160.85362
  20405861.881    -3839160.344 6  -2914705.71823
  23552268.592    -1983233.772 5  -1498290.83921
  23542955.342    -2104417.007 5
 91  3 25 22 51 44.9980000  0  6G18G11G 2G19G16G 6
  21245118.3574    3103272.33247   2418120.12663
  22216662.8034   -7299069.33646  -5687572.82361
  21627619.5064  -13163761.13747 -10257428.83962
  20403781.1394   -3850069.31346  -2923206.20963
  23548388.178    -2003643.850 5  -1514194.84821
  23533842.834    -2152301.120 4
 91  3 25 22 51 59.9980000  0  6G18G11G 2G19G16G 6
  21249853.514     3128160.402 7   2437513.33922
  22214181.4674   -7312092.16246  -5697720.47961
  21618775.3894  -13210235.29347 -10293642.34161
  20401713.5764   -3860929.19246  -2931668.45463
  23544527.357    -2023925.490 5  -1529998.77021
  23524730.092    -2200186.990 4        -0.01931
 91  3 25 22 52 14.9980000  0  6G18G11G 2G19G16G 6
  21254605.7254    3153131.48247   2456971.23062
  22211733.4044   -7324968.90046  -5707754.29961
  21609943.920   -13256644.590 7 -10329805.31922
  20399655.2644   -3871744.82746  -2940096.22663
  23540690.592    -2044084.038 5  -1545706.77921
  23515615.998    -2248079.600 5    -37318.78521
 91  3 25 22 52 29.9980000  0  6G18G11G 2G19G16G 6
  21259375.0534    3178191.00547   2476498.04062
  22209309.9364   -7337693.86246  -5717669.85461
  21601125.6624  -13302983.39847 -10365913.36362
  20397606.8184   -3882510.78446  -2948485.27663
  23536881.326    -2064114.473 5  -1561314.95121
  23506502.5764   -2295973.27545    -74638.39961
 91  3 25 22 52 44.9980000  0  6G18G11G 2G19G16G 6
  21264161.2954    3203341.04447   2496095.37762
  22206920.0924   -7350264.59746  -5727465.23761
  21592322.412   -13349249.199 7 -10401964.52222
  20395568.9824   -3893224.37446  -2956833.52463
  23533093.318    -2084013.700 5  -1576820.90621
  23497391.4674   -2343865.73745   -111957.00161
 91  3 25 22 52 59.9980000  0  6G18G11G 2G19G16G 6
  21268963.4674    3228577.35547   2515759.94162
  22204552.9904   -7362685.27246  -5737143.69461
  21583530.311   -13395446.135 7 -10437962.02122
  20393538.4754   -3903889.54746  -2965144.04963
  23529329.1864   -2103786.30745  -1592228.18161
  23488275.357    -2391761.142 5   -149278.01321
 91  3 25 22 53 14.9980000  0  6G18G11G 2G19G16G 6
  21273780.6704    3253899.47647   2535491.37562
  22202220.3184   -7374956.15146  -5746705.42361
  21574751.115   -13441574.637 7 -10473906.19922
  20391521.3034   -3914506.56746  -2973417.04563
  23525590.131    -2123432.368 5  -1607536.85121
  23479160.7724   -2439659.79945   -186601.48261
 91  3 25 22 53 29.9980000  0  6G18G11G 2G19G16G 6
  21278615.9364    3279305.63547   2555288.28662
  22199911.975    -7387078.660 6  -5756151.54121
  21565985.959   -13487635.959 6 -10509798.02522
  20389506.6314   -3925076.69846  -2981653.51863
  23521876.436    -2142953.266 5  -1622747.98821
  23470046.732    -2487563.133 5   -223928.61321
 91  3 25 22 53 44.9980000  0  6G18G11G 2G19G16G 6
  21283468.232     3304798.970 7   2575153.11922
  22197635.1074   -7399049.67646  -5765479.61661
  21557234.287   -13533626.901 6 -10545635.01622
  20387506.3344   -3935596.97146  -2989851.13763
  23518187.662    -2162346.271 5  -1637859.47021
  23460928.9364   -2535468.14945   -261257.11061
 91  3 25 22 53 59.9980000  0  6G18G11G 2G19G16G 6
  21288334.529     3330379.887 7   2595086.19923
  22195387.607    -7410868.371 6  -5774689.00021
  21548496.037   -13579546.634 7 -10581416.51522
  20385512.5374   -3946066.46646  -2998009.18863
  23514522.1544   -2181610.43245  -1652870.54061
  23451811.5684   -2583373.91945   -298586.14061
 91  3 25 22 54 14.9980000  0  6G18G11G 2G19G16G 6
  21293218.5454    3356047.97647   2615087.20762
  22193169.068    -7422535.040 6  -5783779.92821
  21539770.967   -13625395.280 7 -10617142.62922
  20383528.904    -3956485.147 6  -3006127.65723
  23510879.389    -2200746.111 5  -1667781.50721
  23442694.865    -2631280.804 4   -335916.02321
 91  3 25 22 54 29.9980000  0  6G18G11G 2G19G16G 6
  21298121.8344    3381804.72147   2635157.30162
  22190976.326    -7434047.872 6  -5792750.97621
  21531061.553   -13671171.208 6 -10652812.08122
  20381557.5374   -3966851.24246  -3014205.14663
  23507263.350    -2219751.583 5  -1682591.01421
  23433580.498    -2679187.044 4   -373245.45921
 91  3 25 22 54 44.9980000  0  6G18G11G 2G19G16G 6
  21303038.0924    3407646.06047   2655293.30963
  22188813.576    -7445410.332 7  -5801604.86421
  21522362.029   -13716877.943 6 -10688427.60722
  20379594.9674   -3977168.32646  -3022244.42663
  23503668.811    -2238630.292 5  -1697301.74521
  23424459.9204   -2727096.14944   -410577.10161
 91  3 25 22 54 59.9980000  0  6G18G11G 2G19G16G 6
  21307972.2874    3433567.32847   2675491.58062
  22186681.006    -7456627.144 6  -5810345.25221
  21513678.350   -13762520.113 7 -10723992.82822
  20377637.9824   -3987440.71146  -3030248.88163
  23500100.576    -2257387.360 5  -1711917.68321
  23415343.326    -2775012.821 4   -447914.60821
 91  3 25 22 55 14.9980000  0  6G18G11G 2G19G16G 6
  21312920.412     3459574.559 7   2695756.84822
  22184570.4284   -7467692.41346  -5818967.55461
  21505006.2644  -13808091.79247 -10759503.12962
  20375697.8654   -3997662.55546  -3038213.95863
  23496555.967    -2276016.654 5  -1726434.04321
  23406223.5224   -2822931.31244   -485253.59061
 91  3 25 22 55 29.9980000  0  6G18G11G 2G19G16G 6
  21317886.131     3485667.050 7   2716088.54522
  22182496.0144   -7478606.40646  -5827471.97261
  21496347.139   -13853593.010 7 -10794958.51622
  20373758.0454   -4007834.00046  -3046139.75963
  23493036.7954   -2294518.63145  -1740851.21761
  23397105.9674   -2870851.78944   -522594.07661
 91  3 25 22 55 44.9980000  0  6G18G11G 2G19G16G 6
  21322868.232     3511845.819 7   2736487.47522
  22180448.0144   -7489367.62947  -5835857.36461
  21487701.818   -13899022.416 7 -10830357.95522
  20371834.170    -4017953.570 6  -3054025.14823
  23489539.318    -2312892.082 5  -1755168.22921
  23387987.170    -2918772.805 4   -559935.00821
 91  3 25 22 55 59.9980000  0  6G18G11G 2G19G16G 6
  21327863.975     3538104.615 7   2756948.77222
  22178428.568    -7499982.152 6  -5844128.43221
  21479070.842   -13944385.973 7 -10865706.07822
  20369914.522    -4028027.258 6  -3061874.79423
  23486066.0534   -2331142.84945  -1769389.66361
  23378861.725    -2966700.526 4   -597281.18821
 91  3 25 22 56 14.9980000  0  6G18G11G 2G19G16G 6
  21332877.6234    3564448.34847   2777476.25662
  22176437.975    -7510444.996 6  -5852281.31321
  21470450.7174  -13989678.71147 -10900999.02062
  20368009.475    -4038049.856 6  -3069684.62223
  23482619.303    -2349266.098 5  -1783511.71221
  23369746.2794   -3014629.88744   -634628.63461
 91  3 25 22 56 29.9980000  0  6G18G11G 2G19G16G 6
  21337906.967     3590879.142 7   2798071.57422
  22174475.342    -7520753.569 6  -5860313.97921
  21461845.748   -14034898.054 7 -10936234.77222
  20366111.397    -4048018.945 6  -3077452.76923
  23479193.4904   -2367259.29745  -1797532.41361
  23360627.740    -3062558.445 5   -671975.44621
 91  3 25 22 56 44.9980000  0  6G18G11G 2G19G16G 6
  21342954.147     3617390.267 7   2818729.48722
  22172541.6234   -7530914.49646  -5868231.59861
  21453254.3654  -14080050.46147 -10971418.36462
  20364226.350    -4057940.899 6  -3085184.18023
  23475791.4364   -2385129.09145  -1811456.95761
  23351505.9284   -3110492.67545   -709326.72361
 91  3 25 22 56 59.9980000  0  6G18G11G 2G19G16G 6
  21348013.084     3643983.166 7   2839451.11922
  22170636.5374   -7540926.38446
  21444675.014   -14125134.633 7 -11006548.78722
  20362343.615    -4067814.067 6
  23472416.2174   -2402874.00945  -1825284.20761
  23342381.545    -3158431.313 5   -746681.38321
 91  3 25 22 57 14.9980000  0  6G18G11G 2G19G16G 6
  21353088.272     3670658.211 7   2860236.75522
  22168764.3344   -7550788.22246
  21436106.592   -14170149.469 7 -11041625.18522
  20360476.584    -4077637.456 6
  23469064.1004   -2420493.32945  -1839013.60461
  23333257.295    -3206373.268 5   -784038.67321
 91  3 25 22 57 29.9980000  0  6G18G11G 2G19G16G 6
  21358179.8034    3697414.12847   2881085.41562
  22166911.5454   -7560501.49246  -5891286.42661
  21427554.248   -14215096.427 7 -11076648.68722
  20358616.4434   -4087412.50046  -3108149.11863
  23465733.748    -2437988.817 5  -1852646.50721
  23324134.1474   -3254320.05645   -821399.70361
 91  3 25 22 57 44.9980000  0  6G18G11G 2G19G16G 6
  21363289.8894    3724255.38347   2902000.56362
  22165092.3424   -7570061.26946  -5898735.61161
  21419015.2014  -14259970.60647 -11111615.48162
  20356768.0924   -4097133.96546  -3115724.31463
  23462429.701    -2455355.213 5  -1866178.81521
  23315008.3184   -3302266.73045   -858760.64361
 91  3 25 22 57 59.9980000  0  6G18G11G 2G19G16G 6
  21368412.943     3751180.629 7   2922981.16622
  22163303.1004   -7579468.24146  -5906065.72261
  21410490.1234  -14304772.72447 -11146526.12762
  20354925.3504   -4106802.62546  -3123258.36363
  23459148.8034   -2472593.44745  -1879611.26961
  23305883.967    -3350214.154 5   -896122.19021
 91  3 25 22 58 14.9980000  0  6G18G11G 2G19G16G 6
  21373550.7324    3778184.20647   2944022.79962
  22161541.9044   -7588728.26746  -5913281.34261
  21401976.0764  -14349508.48647 -11181385.06162
  20353094.678    -4116424.149 6  -3130755.67923
  23455892.889    -2489709.391 5  -1892948.41821
  23296762.381    -3398168.108 5   -933488.79121
 91  3 25 22 58 29.9980000  0  6G18G11G 2G19G16G 6
  21378704.0064    3805267.09547   2965126.23262
  22159807.2874   -7597840.01846  -5920381.39961
  21393476.9904  -14394176.28847 -11216191.04662
  20351275.467    -4125997.052 6  -3138215.10723
  23452658.256    -2506701.679 5  -1906189.22121
  23287635.8734   -3446127.02745   -970859.27461
 91  3 25 22 58 44.9980000  0  6G18G11G 2G19G16G 6
  21383874.990     3832434.284 7   2986295.35122
  22158100.3574   -7606798.39946  -5927361.96261
  21384989.9364  -14438771.03547 -11250940.10162
  20349464.248    -4135516.185 6  -3145632.62923
  23449451.014    -2523565.435 5  -1919329.84321
  23278510.0684   -3494085.93345  -1008229.77561
 91  3 25 22 58 59.9980000  0  6G18G11G 2G19G16G 6
  21389060.3344    3859684.10847   3007528.85062
  22156427.2794   -7615605.26346  -5934224.46261
  21376516.8034  -14483294.54247 -11285633.64562
  20347656.662    -4144983.117 6  -3153009.47223
  23446265.5224   -2540302.51245  -1932371.77761
  23269383.7794   -3542046.67545  -1045601.67361
 91  3 25 22 59 14.9980000  0  6G18G11G 2G19G16G 6
  21394260.6394    3887010.43747   3028821.97462
  22154776.1934   -7624266.15246  -5940973.20461
  21368058.9124  -14527752.47547 -11320276.09362
  20345870.029    -4154403.451 6  -3160350.01723
  23443104.4434   -2556918.12945  -1945319.09761
  23260252.0144   -3590014.72245  -1082979.29261
 91  3 25 22 59 29.9980000  0  6G18G11G 2G19G16G 6
  21399475.0224    3914417.38447   3050177.91362
  22153160.3504   -7632776.94546  -5947604.99261
  21359611.7644  -14572140.68947 -11354864.21862
  20344082.873    -4163772.965 6  -3167650.95123
  23439965.647    -2573408.495 6  -1958168.79321
  23251124.334    -3637985.996 5  -1120359.40121
 91  3 25 22 59 44.9980000  0  6G18G11G 2G19G16G 6
  21404708.342     3941906.919 7   3071598.21722
  22151567.0224   -7641135.12046  -5954117.85661
  21351177.6864  -14616456.73647 -11389396.11562
  20342314.842    -4173089.140 6  -3174910.32723
  23436851.1394   -2589771.44146  -1970919.20761
  23241994.7724   -3685958.06945  -1157740.14761
 91  3 25 22 59 59.9980000  0  6G18G11G 2G19G16G 6
  21409953.1934    3969475.48747   3093080.09662
  22150007.795    -7649344.242 6  -5960514.56621
  21342757.8734  -14660703.86447 -11423874.30262
  20340545.490    -4182355.263 6  -3182130.70123
  23433763.2484   -2606010.21046  -1983572.86461
  23232864.912    -3733934.292 5  -1195124.09821
 91  3 25 23  0 14.9980000  0  6G18G11G 2G19G16G 6
  21415213.4364    3997122.99647   3114623.49062
  22148472.8974   -7657404.03846  -5966794.91761
  21334351.6474  -14704881.85247 -11458298.61662
  20338794.592    -4191570.841 6  -3189311.69623
  23430695.7954   -2622124.53846  -1996129.53861
  23223737.0684   -3781914.51445  -1232511.18461
 91  3 25 23  0 29.9980000  0  6G18G11G 2G19G16G 6
  21420490.7794    4024854.10247   3136232.01562
  22146970.0684   -7665309.84546  -5972955.28661
  21325959.4284  -14748985.99647 -11492665.39162
  20337050.936    -4200731.052 6  -3196449.54223
  23427655.068    -2638110.244 5  -2008585.98521
  23214606.592    -3829894.026 5  -1269897.70221
 91  3 25 23  0 44.9980000  0  6G18G11G 2G19G16G 6
  21425781.7794    4052660.23047   3157899.01062
  22145491.8574   -7673069.74146  -5979001.96761
  21317578.1934  -14793024.19247 -11526980.78262
  20335320.279    -4209843.961 6  -3203550.52423
  23424634.381    -2653974.990 5  -2020948.17921
  23205475.748    -3877880.858 5  -1307289.92821
 91  3 25 23  0 59.9980000  0  6G18G11G 2G19G16G 6
  21431090.4674    4080550.20447   3179631.34062
  22144041.4124   -7680674.85946  -5984928.02761
  21309212.7254  -14836987.44547 -11561237.77462
  20333594.2644   -4218900.39346  -3210607.48863
  23421640.5224   -2669710.31145  -2033209.52461
  23196343.350    -3925866.084 5  -1344680.91721
 91  3 25 23  1 14.9980000  0  6G18G11G 2G19G16G 6
  21436412.2874    4108517.60247   3201423.98962
  22142622.5764   -7688131.27646  -5990738.22961
  21300859.529   -14880881.906 7 -11595441.16722
  20331881.0064   -4227906.41946  -3217625.17463
  23418670.6234   -2685322.36745  -2045374.82561
  23187209.178    -3973855.840 5  -1382075.41621
 91  3 25 23  1 29.9980000  0  6G18G11G 2G19G16G 6
  21441749.3264    4136559.81147   3223274.93462
  22141236.1154   -7695441.58946  -5996434.58861
  21292518.943   -14924710.096 7 -11629592.91522
  20330174.7954   -4236864.49546  -3224605.50163
  23415721.459    -2700813.546 5  -2057445.94521
  23178078.4674   -4021852.61045  -1419475.38961
 91  3 25 23  1 44.9980000  0  6G18G11G 2G19G16G 6
  21447099.9594    4164678.73847   3245185.66862
  22139870.2404   -7702603.59746  -6002015.36061
  21284191.881   -14968469.767 7 -11663691.27422
  20328480.803    -4245772.430 6  -3231546.75723
  23412796.5224   -2716181.79345  -2069421.28161
  23168942.8504   -4069854.28345  -1456879.18261
 91  3 25 23  1 59.9980000  0  6G18G11G 2G19G16G 6
  21452463.7794    4192868.15147   3267151.32262
  22138537.4284   -7709623.31746  -6007485.26361
  21275876.045   -15012167.043 7 -11697741.02222
  20326793.826    -4254635.983 6  -3238453.43823
  23409895.7794   -2731433.36945  -2081305.69361
  23159805.732    -4117866.803 5  -1494291.45221
 91  3 25 23  2 14.9980000  0  6G18G11G 2G19G16G 6
  21457843.7254    4221134.67147   3289177.06662
  22137227.2564   -7716494.22946  -6012839.22261
  21267574.436   -15055795.105 7 -11731736.83022
  20325118.201    -4263448.440 6  -3245320.30123
  23407014.654    -2746561.816 5  -2093094.14921
  23150668.193    -4165883.474 5  -1531706.93521
 91  3 25 23  2 29.9980000  0  6G18G11G 2G19G16G 6
  21463237.4824    4249479.27147   3311263.63862
  22135947.8814   -7723214.78046  -6018076.00561
  21259283.5224  -15099352.29347 -11765677.40762
  20323448.248    -4272208.054 6  -3252145.98923
  23404159.514    -2761565.357 5  -2104785.29221
  23141531.693    -4213902.787 5  -1569124.50721
 91  3 25 23  2 44.9970000  0  6G18G11G 2G19G16G 6
  21468645.735     4277900.964 7   3333410.28522
  22134701.7744   -7729783.68846  -6023194.63361
  21251011.689   -15142834.906 7 -11799559.87922
  20321793.9854   -4280913.24646  -3258929.25663
  23401330.915    -2776442.264 5  -2116377.75021
  23132392.9784   -4261920.58745  -1606540.88161
 91  3 25 23  2 59.9970000  0  6G18G11G 2G19G16G 6
  21474066.7984    4306393.09747   3355611.81962
  22133476.4074   -7736212.10146  -6028203.79861
  21242747.954   -15186258.962 7 -11833396.72522
  20320145.2824   -4289575.35046  -3265678.95763
  23398518.735    -2791204.877 5  -2127881.16021
  23123253.837    -4309953.585 5  -1643969.10121
 91  3 25 23  3 14.9970000  0  6G18G11G 2G19G16G 6
  21479501.845     4334956.792 7   3377869.10922
  22132280.8064   -7742496.38246  -6033100.64061
  21234495.728   -15229618.151 7 -11867183.02022
  20318506.7354   -4298190.45346  -3272392.02463
  23395732.517    -2805848.824 5  -2139292.11121
  23114111.6184   -4357995.22845  -1681404.04261
 91  3 25 23  3 29.9970000  0  6G18G11G 2G19G16G 6
  21484953.564     4363594.309 7   3400183.92822
  22131108.4624   -7748633.92446  -6037883.13861
  21226258.532   -15272909.933 7 -11900916.80022
  20316876.4074   -4306755.75046  -3279066.28163
  23392970.064    -2820372.073 5  -2150609.00321
  23104967.5404   -4406043.09645  -1718843.84661
 91  3 25 23  3 44.9970000  0  6G18G11G 2G19G16G 6
  21490417.329     4392312.638 7   3422561.71422
  22129975.1814   -7754617.53246  -6042545.70261
  21218034.274   -15316127.103 7 -11934592.43522
  20315256.8924   -4315263.90046  -3285696.01163
  23390230.243    -2834767.449 5  -2161826.23921
  23095821.681    -4454089.820 5  -1756282.74921
 91  3 25 23  3 59.9970000  0  6G18G11G 2G19G16G 6
  21495898.571     4421107.739 7   3444999.32522
  22128865.353    -7760450.719 6  -6047091.05221
  21209823.587   -15359273.095 7 -11968212.61322
  20313649.7594   -4323718.51046  -3292284.02363
  23387516.4624   -2849038.21745  -2172946.39861
  23086682.0244   -4502138.98445  -1793723.55161
 91  3 25 23  4 14.9970000  0  6G18G11G 2G19G16G 6
  21501392.056     4449976.361 7   3467494.21822
  22127780.3684   -7766137.01246  -6051521.93361
  21201625.712   -15402351.221 7 -12001779.90422
  20312050.1734   -4332122.76946  -3298832.80063
  23384825.1424   -2863188.08845  -2183972.32561
  23077536.790    -4550193.784 5  -1831168.75121
 91  3 25 23  4 29.9970000  0  6G18G11G 2G19G16G 6
  21506899.8454    4478919.88447   3490047.48362
  22126728.2904   -7771674.87546  -6055837.16461
  21193441.360   -15445360.059 7 -12035293.20622
  20310461.2354   -4340474.86846  -3305340.92563
  23382153.798    -2877215.616 6  -2194902.92721
  23068390.5324   -4598252.77145  -1868617.21361
 91  3 25 23  4 44.9970000  0  6G18G11G 2G19G16G 6
  21512420.7744    4507937.26047   3512658.29862
  22125700.1424   -7777065.20646  -6060037.42161
  21185271.899   -15488300.260 7 -12068753.02522
  20308879.6264   -4348775.62146  -3311809.04563
  23379508.462    -2891121.541 5  -2205738.78821
  23059243.884    -4646316.739 5  -1906069.57721
 91  3 25 23  4 59.9970000  0  6G18G11G 2G19G16G 6
  21517956.821     4537022.941 7   3535322.31922
  22124702.2674   -7782313.33946  -6064126.87561
  21177110.634   -15531177.138 7 -12102163.50522
  20307309.1424   -4357030.25946  -3318241.21763
  23376883.3214   -2904911.39845  -2216484.21161
  23050097.4314   -4694391.04345  -1943529.97661
 91  3 25 23  5 14.9970000  0  6G18G11G 2G19G16G 6
  21523504.626     4566180.504 7   3558042.36922
  22123731.3374   -7787415.10246  -6068102.26261
  21168963.524   -15573986.464 7 -12135521.33922
  20305749.4154   -4365234.28946  -3324633.97463
  23374283.759    -2918580.879 5  -2227135.81621
  23040946.478    -4742471.347 5  -1980995.07121
 91  3 25 23  5 29.9970000  0  6G18G11G 2G19G16G 6
  21529066.5954    4595412.64447   3580820.52562
  22122789.0014   -7792367.72846  -6071961.44961
  21160831.415   -15616725.369 7 -12168824.30622
  20304197.3374   -4373384.94846  -3330985.13063
  23371705.1034   -2932127.44745  -2237691.65161
  23031797.3064   -4790554.86645  -2018462.64761
 91  3 25 23  5 44.9970000  0  6G18G11G 2G19G16G 6
  21534645.2904    4624721.67747   3603658.60162
  22121876.8294   -7797169.08346  -6075702.77061
  21152713.478   -15659391.580 7 -12202070.62622
  20302658.4934   -4381479.87446  -3337292.85863
  23369151.7044   -2945549.07345  -2248150.13061
  23022646.1734   -4838639.39745  -2055931.01561
 91  3 25 23  5 59.9970000  0  6G18G11G 2G19G16G 6
  21540236.196     4654098.576 7   3626549.55922
  22120990.0954   -7801827.93346  -6079333.03861
  21144605.321   -15701993.744 7 -12235267.04022
  20301121.6344   -4389527.63946  -3343563.85163
  23366617.189    -2958854.237 5  -2258517.84621
  23013495.267    -4886733.528 5  -2093406.85721
 91  3 25 23  6 14.9970000  0  6G18G11G 2G19G16G 6
  21545838.993     4683546.142 6   3649495.58222
  22120130.5954   -7806341.06746  -6082849.76361
  21136511.564   -15744528.498 7 -12268410.92622
  20299602.5644   -4397524.88946  -3349795.48163
  23364110.189    -2972039.995 5  -2268792.54121
  23004339.103    -4934834.088 5  -2130887.70421
 91  3 25 23  6 29.9970000  0  6G18G11G 2G19G16G 6
  21551457.1574    4713064.72547   3672496.94162
  22119297.3604   -7810707.82946  -6086252.43162
  21128430.8214  -15786995.33347 -12301501.89762
  20298093.6894   -4405470.96946  -3355987.24163
  23361622.821    -2985105.844 5  -2278973.78621
  22995186.9394   -4982940.44745  -2168373.06061
 91  3 25 23  6 44.9970000  0  6G18G11G 2G19G16G 6
  21557086.282     4742655.720 7   3695554.72922
  22118494.8214   -7814927.01446  -6089540.10261
  21120362.860   -15829392.851 7 -12334538.84822
  20296589.0954   -4413364.29346  -3362137.88963
  23359158.1184   -2998050.25445  -2289060.41061
  22986031.8144   -5031051.16145  -2205861.82661
 91  3 25 23  6 59.9970000  0  6G18G11G 2G19G16G 6
  21562731.540     4772316.983 7   3718667.27622
  22117721.1494   -7819000.50446  -6092714.24661
  21112306.923   -15871722.934 7 -12367523.24922
  20295095.274    -4421206.534 6  -3368248.74123
  23356718.8924   -3010875.65245  -2299054.29461
  22976873.1654   -5079168.05245  -2243355.39161
 91  3 25 23  7 14.9970000  0  6G18G11G 2G19G16G 6
  21568388.9784    4802047.71646   3741833.95362
  22116976.2434   -7822928.82646  -6095775.27061
  21104265.196   -15913985.889 7 -12400455.34922
  20293614.290    -4428998.064 6  -3374320.07223
  23354302.0404   -3023582.61545  -2308955.89361
  22967715.876    -5127291.572 5  -2280854.14021
 91  3 25 23  7 29.9970000  0  6G18G11G 2G19G16G 6
  21574060.3064    4831847.93846   3765054.78062
  22116251.6344   -7826711.76646  -6098723.00761
  21096235.696   -15956181.501 7 -12433334.97322
  20292141.087    -4436738.582 6  -3380351.65323
  23351905.423    -3036170.817 5  -2318764.95021
  22958556.853    -5175421.501 5  -2318357.86221
 91  3 25 23  7 44.9970000  0  6G18G11G 2G19G16G 6
  21579743.8604    4861716.04046   3788328.49662
  22115561.7824   -7830350.78846  -6101558.61261
  21088218.399   -15998311.287 7 -12466163.30322
  20290680.1424   -4444429.27746  -3386344.41063
  23349533.743    -3048641.669 5  -2328482.57121
  22949398.5484   -5223559.14745  -2355867.63261
 91  3 25 23  7 59.9970000  0  6G18G11G 2G19G16G 6
  21585440.939     4891648.274 6   3811652.18322
  22114894.8994   -7833849.47846  -6104284.85461
  21080212.423   -16040378.710 7 -12498943.03822
  20289225.1894   -4452073.59646  -3392301.03263
  23347178.946    -3060998.950 5  -2338111.69321
  22940236.353    -5271708.169 5  -2393386.24721
 91  3 25 23  8 14.9970000  0  6G18G11G 2G19G16G 6
  21591147.5644    4921650.09646   3835030.10662
  22114257.8144   -7837202.50146  -6106897.60661
  21072218.618   -16082378.175 7 -12531669.81922
  20287781.2124   -4459666.11046  -3398217.28363
  23344851.712    -3073237.108 5  -2347647.98821
  22931070.767    -5319862.892 5  -2430909.30921
 91  3 25 23  8 29.9970000  0  6G18G11G 2G19G16G 6
  21596872.970     4951722.595 6   3858463.09022
  22113651.3534   -7840408.22046  -6109395.57061
  21064240.040   -16124307.929 7 -12564342.27822
  20286343.8214   -4467204.91446  -3404091.68963
  23342547.9934   -3085354.80245  -2357090.44261
  22921906.853    -5368021.774 5  -2468435.60121
 91  3 25 23  8 44.9970000  0  6G18G11G 2G19G16G 6
  21602609.1964    4981869.02046   3881953.68462
  22113068.7824   -7843463.03846  -6111775.93761
  21056275.892   -16166164.280 7 -12596957.53922
  20284922.4784   -4474686.14746  -3409921.22863
  23340264.8684   -3097348.43245  -2366436.19161
  22912742.6894   -5416181.05845  -2505962.20761
 91  3 25 23  8 59.9970000  0  6G18G11G 2G19G16G 6
  21608356.564     5012084.763 6   3905498.28621
  22112514.7204   -7846371.96146  -6114042.64161
  21048323.845   -16207952.369 7 -12629519.60622
  20283503.6894   -4482114.65146  -3415709.68063
  23338005.5954   -3109223.05145  -2375689.23161
  22903574.868    -5464345.655 5  -2543492.95521
 91  3 25 23  9 14.9970000  0  6G18G11G 2G19G16G 6
  21614121.8294    5042364.81246   3929093.00361
  22111987.8844   -7849139.64946  -6116199.28361
  21040382.907   -16249676.500 7 -12662031.83222
  20282100.0874   -4489494.92146  -3421460.54363
  23335767.782    -3120983.171 5  -2384853.03721
  22894409.993    -5512520.084 5  -2581031.34321
 91  3 25 23  9 29.9970000  0  6G18G11G 2G19G16G 6
  21619896.0954    5072715.62646   3952742.86161
  22111490.5714   -7851759.44446  -6118240.67661
  21032457.399   -16291329.978 7 -12694489.00623
  20280705.829    -4496820.072 6  -3427168.46623
  23333556.446    -3132622.322 5  -2393922.58121
  22885244.7984   -5560697.57345  -2618572.14861
 91  3 25 23  9 44.9970000  0  6G18G11G 2G19G16G 6
  21625683.1344    5103129.17646   3976441.61861
  22111016.3924   -7854239.10346  -6120172.88361
  21024542.985   -16332920.508 7 -12726897.13322
  20279322.6654   -4504097.82446  -3432839.44563
  23331359.4394   -3144148.23045  -2402903.88961
  22876071.9854   -5608885.86845  -2656121.35861
 91  3 25 23  9 59.9970000  0  6G18G11G 2G19G16G 6
  21631484.1894    5133607.62446   4000190.93161
  22110570.6264   -7856576.08846  -6121993.91961
  21016642.251   -16374445.477 7 -12759254.16723
  20277947.9784   -4511325.49746  -3438471.39663
  23329186.142    -3155558.664 5  -2411795.19721
  22866900.071    -5657082.367 5  -2693676.96221
 91  3 25 23 10 14.9970000  0  6G18G11G 2G19G16G 6
  21637296.821     5164154.151 6   4023993.30321
  22110153.7594   -7858767.44146  -6123701.47461
  21008751.5094  -16415901.56147 -12791557.52662
  20276584.5014   -4518499.86146  -3444061.81363
  23327039.7984   -3166850.58045  -2420594.14961
  22857728.978    -5705283.803 5  -2731236.41521
 91  3 25 23 10 29.9970000  0  6G18G11G 2G19G16G 6
  21643124.306     5194769.397 7   4047849.20721
  22109767.1424   -7860812.41446  -6125294.95261
  21000875.5324  -16457288.12447 -12823806.70962
  20275226.0094   -4525619.71846  -3449609.75163
  23324913.407    -3178022.960 5  -2429299.96521
  22848554.571    -5753489.484 5  -2768799.18821
 91  3 25 23 10 44.9970000  0  6G18G11G 2G19G16G 6
  21648961.0174    5225448.31646   4071754.73961
  22109405.2354   -7862715.88046  -6126778.18161
  20993012.1264  -16498610.08247 -12856005.55262
  20273884.6654   -4532689.92346  -3455119.00163
  23322810.064    -3189081.199 5  -2437916.85421
  22839380.0404   -5801704.10945  -2806368.91861
 91  3 25 23 10 59.9970000  0  6G18G11G 2G19G16G 6
  21654811.1264    5256192.22046   4095710.90361
  22109069.6574   -7864476.23446  -6128149.89761
  20985160.954   -16539865.490 7 -12888152.53722
  20272549.2044   -4539708.52046  -3460588.04063
  23320727.524    -3200023.353 5  -2446443.27221
  22830203.103    -5849925.933 5  -2843944.25021
 91  3 25 23 11 14.9970000  0  6G18G11G 2G19G16G 6
  21660674.509     5286998.318 6   4119715.52221
  22108760.485    -7866096.078 6  -6129412.13021
  20977324.4624  -16581056.99847 -12920249.72962
  20271220.446    -4546677.969 6  -3466018.78823
  23318665.9704   -3210852.24845  -2454881.43261
  22821023.751    -5898157.447 5  -2881527.13221
 91  3 25 23 11 29.9970000  0  6G18G11G 2G19G16G 6
  21666547.1734    5317869.42546   4143770.79761
  22108480.306    -7867572.424 6  -6130562.54821
  20969500.0244  -16622181.48247 -12952294.69462
  20269903.1494   -4553595.18446  -3471408.83663
  23316626.8374   -3221565.08645  -2463229.18961
  22811845.329    -5946395.698 5  -2919115.27721
 91  3 25 23 11 44.9970000  0  6G18G11G 2G19G16G 6
  21672436.1964    5348806.06046   4167877.14861
  22108226.126    -7868904.582 6  -6131600.61221
  20961685.5484  -16663238.18247 -12984286.84262
  20268596.8294   -4560459.22346  -3476757.43263
  23314612.493    -3232161.014 5  -2471485.82921
  22802664.2594   -5994639.78745  -2956707.97461
 91  3 25 23 11 59.9970000  0  6G18G11G 2G19G16G 6
  21678335.196     5379807.588 6   4192034.05421
  22107998.704    -7870092.998 6  -6132526.66121
  20953886.7044  -16704227.40347 -13016226.40462
  20267300.2284   -4567270.16646  -3482064.65163
  23312615.9234   -3242640.73745  -2479651.91761
  22793484.0484   -6042890.05245  -2994305.48161
 91  3 25 23 12 14.9970000  0  6G18G11G 2G19G16G 6
  21684246.610     5410875.187 6   4216242.43921
  22107799.3924   -7871136.57846  -6133339.84462
  20946098.8064  -16745147.84747 -13048112.37962
  20266018.1814   -4574026.76446  -3487329.52763
  23310646.3604   -3253002.88845  -2487726.39561
  22784302.4074   -6091145.11345  -3031906.72961
 91  3 25 23 12 29.9970000  0  6G18G11G 2G19G16G 6
  21690170.665     5442009.271 6   4240502.63521
  22107629.532    -7872034.783 6  -6134039.76621
  20938325.103   -16785998.935 7 -13079944.30922
  20264739.4544   -4580728.30246  -3492551.50263
  23308697.189    -3263247.128 5  -2495708.98621
  22775116.7434   -6139404.41245  -3069511.28161
 91  3 25 23 12 44.9970000  0  6G18G11G 2G19G16G 6
  21696108.087     5473205.367 6   4264811.14721
  22107483.978    -7872791.658 6  -6134629.55921
  20930564.4314  -16826784.42047 -13111725.12562
  20263476.7284   -4587378.71546  -3497733.64463
  23306768.181    -3273377.480 5  -2503602.84221
  22765930.267    -6187671.815 5  -3107122.15921
 91  3 25 23 12 59.9970000  0  6G18G11G 2G19G16G 6
  21702058.095     5504467.681 6   4289171.26021
  22107371.689    -7873402.786 6  -6135105.78221
  20922815.540   -16867499.913 7 -13143451.39722
  20262221.2434   -4593973.27546  -3502872.26263
  23304860.665    -3283389.682 5  -2511404.65821
  22756747.1264   -6235942.79745  -3144735.81361
 91  3 25 23 13 14.9970000  0  6G18G11G 2G19G16G 6
  21708018.8294    5535793.62946   4313580.96361
  22107278.0324   -7873870.71746  -6135470.41461
  20915080.2824  -16908147.90547 -13175125.07062
  20260975.2044   -4600514.50846  -3507969.33563
  23302980.720    -3293286.230 5  -2519116.33221
  22747559.853    -6284219.855 5  -3182354.18821
 91  3 25 23 13 29.9970000  0  6G18G11G 2G19G16G 6
  21713993.5644    5567186.40646   4338042.71561
  22107222.1424   -7874192.40746  -6135721.08161
  20907357.282   -16948725.178 7 -13206743.64122
  20259740.0094   -4606999.07446  -3513022.24863
  23301120.1574   -3303064.24645  -2526735.62661
  22738373.454    -6332499.773 5  -3219974.80721
 91  3 25 23 13 44.9970000  0  6G18G11G 2G19G16G 6
  21719977.509     5598639.473 6   4362551.47921
  22107186.2284   -7874373.98446
  20899648.509   -16989237.674 7 -13238311.73522
  20258517.5404   -4613432.78146  -3518035.53163
  23299280.353    -3312729.837 5  -2534267.32921
  22729181.837    -6380788.510 5  -3257602.29021
 91  3 25 23 13 59.9970000  0  6G18G11G 2G19G16G 6
  21725973.962     5630148.908 6   4387104.14221
  22107180.9704   -7874419.44346
  20891951.087   -17029689.424 7 -13269832.49422
  20257299.6264   -4619819.28146  -3523012.02663
  23297461.493    -3322286.973 5  -2541714.52121
  22719993.2044   -6429090.01945  -3295239.74161
 91  3 25 23 14 14.9970000  0  6G18G11G 2G19G16G 6
  21731983.884     5661724.755 6   4411708.55521
  22107195.6814   -7874318.43846
  20884268.251   -17070069.842 7 -13301297.67022
  20256098.3144   -4626147.97946  -3527943.48763
  23295666.774    -3331725.225 5  -2549069.10021
  22710799.626    -6477393.599 5  -3332878.79921
 91  3 25 23 14 29.9970000  0  6G18G11G 2G19G16G 6
  21738003.056     5693363.096 6   4436361.68521
  22107239.493    -7874074.752 6
  20876595.454   -17110382.779 7 -13332710.27123
  20254903.564    -4632422.547 6  -3532832.77323
  23293893.001    -3341048.502 5  -2556334.07221
  22701606.3454   -6525703.06645  -3370522.45261
 91  3 25 23 14 44.9970000  0  6G18G11G 2G19G16G 6
  21744035.032     5725059.338 6   4461059.91221
  22107315.7824   -7873692.99446
  20868936.181   -17150632.600 7 -13364073.68923
  20253719.985    -4638647.289 6  -3537683.24023
  23292139.4934   -3350261.19245  -2563512.86361
  22692411.3844   -6574022.72945  -3408174.07361
 91  3 25 23 14 59.9970000  0  6G18G11G 2G19G16G 6
  21750078.1104    5756815.52946   4485804.85561
  22107413.1734   -7873170.72346  -6134924.96261
  20861288.993   -17190816.590 7 -13395385.81123
  20252544.4544   -4644819.66246  -3542492.88963
  23290406.5564   -3359361.22645  -2570603.86061
  22683214.8214   -6622350.13945  -3445831.69561
 91  3 25 23 15 14.9970000  0  6G18G11G 2G19G16G 6
  21756131.931     5788634.806 6   4510598.96421
  22107540.8214   -7872504.90246  -6134406.15061
  20853655.657   -17230931.484 7 -13426644.09023
  20251383.939    -4650936.369 6  -3547259.16223
  23288697.6734   -3368345.26245  -2577604.52561
  22674015.993    -6670682.053 5  -3483492.85921
 91  3 25 23 15 29.9970000  0  6G18G11G 2G19G16G 6
  21762200.704     5820511.512 6   4535437.81721
  22107694.0564   -7871700.95546  -6133779.69861
  20846033.735   -17270982.834 7 -13457852.85823
  20250225.5404   -4657002.69946  -3551986.17763
  23287009.6814   -3377219.36045  -2584519.48561
  22664819.7434   -6719023.78245  -3521161.63161
 91  3 25 23 15 44.9970000  0  6G18G11G 2G19G16G 6
  21768277.5404    5852448.68346   4560323.78961
  22107872.5954   -7870755.56446  -6133043.02561
  20838424.774   -17310967.179 7 -13489009.41223
  20249083.9784   -4663015.16246  -3556671.20763
  23285340.7904   -3385980.04945  -2591346.05461
  22655617.314    -6767371.845 5  -3558835.35321
 91  3 25 23 15 59.9970000  0  6G18G11G 2G19G16G 6
  21774365.782     5884445.927 6   4585256.56021
  22108076.0484   -7869669.00646  -6132196.35361
  20830830.087   -17350884.631 7 -13520113.84423
  20247946.837    -4668973.658 6  -3561314.20823
  23283696.923    -3394627.758 5  -2598084.62121
  22646416.7744   -6815726.51345  -3596514.22961
 91  3 25 23 16 14.9970000  0  6G18G11G 2G19G16G 6
  21780468.1264    5916502.52346   4610235.57561
  22108313.8924   -7868441.99146  -6131240.24561
  20823246.728   -17390735.815 7 -13551166.63823
  20246827.1104   -4674878.75746  -3565915.58963
  23282070.7044   -3403163.27445  -2604735.75661
  22637212.149    -6864088.114 5  -3634198.48821
 91  3 25 23 16 29.9970000  0  6G18G11G 2G19G16G 6
  21786578.3064    5948623.82346   4635265.02861
  22108573.2204   -7867069.18946  -6130170.52861
  20815676.189   -17430515.284 7 -13582163.55423
  20245716.3534   -4680724.70946  -3570470.88263
  23280469.353    -3411580.911 5  -2611295.03421
  22628009.6344   -6912451.32145  -3671884.02261
 91  3 25 23 16 44.9970000  0  6G18G11G 2G19G16G 6
  21792704.0714    5980810.18446   4660345.17061
  22108861.8534   -7865549.46846  -6128986.33761
  20808118.696   -17470221.875 7 -13613103.67923
  20244613.6424   -4686510.33246  -3574979.16763
  23278891.079    -3419879.609 5  -2617761.63321
  22618806.7594   -6960814.60945  -3709569.60561
 91  3 25 23 16 59.9970000  0  6G18G11G 2G19G16G 6
  21798839.2124    6013050.84046   4685467.61161
  22109181.2674   -7863894.05846  -6127696.40161
  20800575.853   -17509866.599 7 -13643995.60022
  20243519.017    -4692246.609 6  -3579449.00823
  23277333.0644   -3428070.86745  -2624144.49261
  22609601.6344   -7009189.37545  -3747264.15161
 91  3 25 23 17 14.9970000  0  6G18G11G 2G19G16G 6
  21804986.9624    6045355.16746   4710639.66761
  22109522.0244   -7862093.20246  -6126293.14161
  20793043.931   -17549439.413 7 -13674831.48723
  20242439.0954   -4697923.53746  -3583872.59563
  23275796.079    -3436144.918 5  -2630436.04121
  22600396.8764   -7057565.56345  -3784959.81661
 91  3 25 23 17 29.9970000  0  6G18G11G 2G19G16G 6
  21811145.743     6077718.942 6   4735858.04421
  22109894.3924   -7860151.07946  -6124779.79161
  20785527.532   -17588944.583 7 -13705614.65823
  20241370.2514   -4703545.04446  -3588252.99563
  23274282.478    -3444105.950 5  -2636639.52921
  22591189.603    -7105947.219 5  -3822659.71921
 91  3 25 23 17 44.9970000  0  6G18G11G 2G19G16G 6
  21817313.5794    6110137.37446   4761119.01861
  22110287.1814   -7858072.44846  -6123160.07561
  20778021.431   -17628386.563 7 -13736348.59722
  20240310.1654   -4709115.42546  -3592593.55863
  23272785.9704   -3451958.66445  -2642758.60961
  22581978.884    -7154338.765 5  -3860367.33421
 91  3 25 23 17 59.9970000  0  6G18G11G 2G19G16G 6
  21823494.603     6142611.956 6   4786423.74621
  22110704.9854   -7855855.61146  -6121432.67561
  20770530.1344  -17667763.50247 -13767031.85763
  20239258.7744   -4714632.72246  -3596892.75763
  23271315.3214   -3459701.33645  -2648791.93961
  22572770.1814   -7202738.36845  -3898081.22061
 91  3 25 23 18 14.9970000  0  6G18G11G 2G19G16G 6
  21829686.6654    6175149.27846   4811777.35261
  22111158.6574   -7853493.91946  -6119592.40961
  20763048.7904  -17707068.83947 -13797659.32163
  20238220.8374   -4720090.32046  -3601145.43163
  23269862.8684   -3467327.38245  -2654734.37661
  22563561.524    -7251139.284 5  -3935796.13221
 91  3 25 23 18 29.9970000  0  6G18G11G 2G19G16G 6
  21835888.603     6207745.352 6   4837176.75621
  22111634.2904   -7850991.10946  -6117642.16961
  20755582.2984  -17746306.04347 -13828233.69863
  20237191.6734   -4725491.65246  -3605354.26263
  23268431.9234   -3474840.86745  -2660589.13361
  22554349.0794   -7299545.09946  -3973514.85861
 91  3 25 23 18 44.9970000  0  6G18G11G 2G19G16G 6
  21842101.399     6240394.427 6   4862617.42921
  22112135.618    -7848352.914 6  -6115586.45221
  20748128.3844  -17785480.65747 -13858759.30063
  20236176.3534   -4730842.10246  -3609523.44263
  23267024.9464   -3482247.22445  -2666360.39861
  22545134.884    -7347961.221 6  -4011241.62321
 91  3 25 23 18 59.9970000  0  6G18G11G 2G19G16G 6
  21848324.298     6273099.964 6   4888102.12121
  22112661.564    -7845575.732 6  -6113422.42921
  20740685.2044  -17824589.02447 -13889233.28863
  20235168.7204   -4736137.87946  -3613650.01863
  23265635.9544   -3489542.95045  -2672045.47361
  22535921.040    -7396383.981 6  -4048973.56221
 91  3 25 23 19 14.9970000  0  6G18G11G 2G19G16G 6
  21854559.134     6305860.422 6   4913629.61821
  22113221.157    -7842661.041 6  -6111151.25821
  20733256.2204  -17863632.38747 -13919656.61763
  20234170.5244   -4741380.16746  -3617734.90963
  23264265.212    -3496729.883 5  -2677645.75521
  22526704.485    -7444814.771 6  -4086711.76021
 91  3 25 23 19 29.9970000  0  6G18G11G 2G19G16G 6
  21860807.4234    6338683.92046   4939206.20361
  22113802.571    -7839600.806 6  -6108766.68421
  20725840.376   -17902602.650 7 -13950022.98423
  20233183.2674   -4746560.54546  -3621771.56463
  23262920.454    -3503799.633 5  -2683154.73121
  22517488.040    -7493245.030 5  -4124449.54521
 91  3 25 23 19 44.9970000  0  6G18G11G 2G19G16G 6
  21867062.743     6371564.020 6   4964826.92121
  22114410.821    -7836400.923 6  -6106273.28621
  20718436.7284  -17941505.58947 -13980336.89263
  20232209.6184   -4751684.63146  -3625764.34663
  23261597.9624   -3510758.42245  -2688577.25861
  22508271.985    -7541680.811 6  -4162191.62821
 91  3 25 23 19 59.9970000  0  6G18G11G 2G19G16G 6
  21873330.4464    6404500.79146   4990491.79161
  22115045.274    -7833061.477 6  -6103671.13521
  20711047.5484  -17980341.03347 -14010598.20863
  20231242.259    -4756752.225 6  -3629713.11323
  23260296.720    -3517606.198 5  -2693913.27221
  22499051.5094   -7590121.76745  -4199937.73361
 91  3 25 23 20 14.9970000  0  6G18G11G 2G19G16G 6
  21879608.2824    6437490.75446   5016198.10961
  22115703.337    -7829585.617 6  -6100962.70221
  20703668.165   -18019112.002 7 -14040809.28023
  20230291.884    -4761766.257 6  -3633620.13823
  23259013.6894   -3524345.91745  -2699165.06461
  22489833.7594   -7638570.92946  -4237690.23561
 91  3 25 23 20 29.9970000  0  6G18G11G 2G19G16G 6
  21885897.165     6470540.229 6   5041950.79821
  22116394.6574   -7825967.10246  -6098143.11361
  20696303.4154  -18057812.26447 -14070965.25963
  20229348.7204   -4766720.35446  -3637480.46163
  23257750.5174   -3530971.75545  -2704328.14161
  22480612.8764   -7687022.05346  -4275444.27461
 91  3 25 23 20 44.9970000  0  6G18G11G 2G19G16G 6
  21892198.6494    6503642.51046   5067744.64161
  22117110.579    -7822212.553 6  -6095217.51621
  20688950.9854  -18096448.11847 -14101071.05063
  20228414.8994   -4771620.94546  -3641299.09563
  23256510.7434   -3537490.42145  -2709407.71761
  22471392.4934   -7735481.45746  -4313204.75161
 91  3 25 23 20 59.9970000  0  6G18G11G 2G19G16G 6
  21898504.923     6536799.066 6   5093580.77221
  22117851.259    -7818320.162 6  -6092184.49821
  20681612.5094  -18135017.65947 -14131125.17063
  20227494.4624   -4776465.93846  -3645074.41163
  23255292.337    -3543899.570 5  -2714401.94321
  22462170.0954   -7783947.02246  -4350970.03061
 91  3 25 23 21 14.9970000  0  6G18G11G 2G19G16G 6
  21904828.2044    6570014.28546   5119462.60161
  22118616.985    -7814285.571 6  -6089040.67621
  20674286.821   -18173516.419 7 -14161124.13323
  20226583.3064   -4781250.76346  -3648802.83463
  23254093.392    -3550195.192 5  -2719307.72321
  22452946.5954   -7832414.34945  -4388736.67761
 91  3 25 23 21 29.9970000  0  6G18G11G 2G19G16G 6
  21911158.618     6603283.582 6   5145386.60021
  22119413.376    -7810113.064 6  -6085789.40121
  20666972.3604  -18211948.47247 -14191071.11863
  20225681.6734   -4785979.24946  -3652487.36663
  23252916.7674   -3556381.72145  -2724128.48861
  22443721.220    -7880887.314 5  -4426507.72621
 91  3 25 23 21 44.9970000  0  6G18G11G 2G19G16G 6
  21917500.2904    6636605.91646   5171351.89061
  22120231.931    -7805804.107 6  -6082431.78921
  20659672.0324  -18250315.08247 -14220967.11063
  20224794.7514   -4790652.70546  -3656129.01663
  23251760.064    -3562460.440 5  -2728865.23521
  22434496.0244   -7929367.25645  -4464284.20261
 91  3 25 23 21 59.9970000  0  6G18G11G 2G19G16G 6
  21923851.2124    6669982.46346   5197359.43861
  22121079.4784   -7801357.05246  -6078966.57361
  20652384.5094  -18288614.30947 -14250810.59963
  20223912.6814   -4795269.36446  -3659726.40663
  23250625.587    -3568430.034 5  -2733516.94421
  22425267.5014   -7977852.35745  -4502064.70761
 91  3 25 23 22 14.9970000  0  6G18G11G 2G19G16G 6
  21930214.5404    6703414.10146   5223409.92461
  22121951.259    -7796770.844 6  -6075392.92221
  20645108.5244  -18326845.19147 -14280600.82663
  20223050.040    -4799827.871 6  -3663278.46923
  23249509.9314   -3574289.25945  -2738082.64361
  22416042.1184   -8026341.51346  -4539848.37761
 91  3 25 23 22 29.9970000  0  6G18G11G 2G19G16G 6
  21936584.798     6736893.581 6   5249497.67621
  22122849.0644   -7792052.39646  -6071716.24061
  20637847.2284  -18365014.58247 -14310343.14163
  20222190.5094   -4804334.98446  -3666790.49963
  23248411.9314   -3580045.24245  -2742567.91361
  22406814.0244   -8074841.28546  -4577640.31461
 91  3 25 23 22 44.9970000  0  6G18G11G 2G19G16G 6
  21942967.665     6770433.632 6   5275632.62621
  22123776.353    -7787189.331 6  -6067926.86621
  20630596.4854  -18403109.96247 -14340027.78963
  20221347.6734   -4808777.78746  -3670252.43163
  23247339.7904   -3585685.51645  -2746963.03261
  22397585.024    -8123339.222 6  -4615430.80721
 91  3 25 23 22 59.9970000  0  6G18G11G 2G19G16G 6
  21949359.353     6804029.655 6   5301811.19821
  22124728.2044   -7782186.08046  -6064028.26361
  20623361.587   -18441135.480 7 -14369657.99023
  20220510.3844   -4813160.18746  -3673667.28663
  23246287.0564   -3591214.31145  -2751271.28761
  22388355.0404   -8171839.31445  -4653222.98761
 91  3 25 23 23 14.9970000  0  6G18G11G 2G19G16G 6
  21955763.7594    6837678.14746   5328030.64661
  22125704.407    -7777046.343 6  -6060023.29421
  20616135.7594  -18479094.43247 -14399236.32963
  20219687.5244   -4817485.77946  -3677037.87463
  23245258.6344   -3596635.56845  -2755495.73161
  22379123.8924   -8220345.11445  -4691019.61661
 91  3 25 23 23 29.9970000  0  6G18G11G 2G19G16G 6
  21962178.4394    6871379.72546   5354291.47561
  22126706.9934   -7771769.15046  -6055911.21861
  20608926.7124  -18516985.76147 -14428761.97363
  20218878.2824   -4821753.27146  -3680363.19563
  23244246.353    -3601948.360 5  -2759635.65421
  22369893.735    -8268855.314 5  -4728819.67421
 91  3 25 23 23 44.9970000  0  6G18G11G 2G19G16G 6
  21968600.165     6905137.108 6   5380595.76321
  22127741.4624   -7766351.45646  -6051689.68061
  20601729.4234  -18554806.58247 -14458232.67563
  20218074.9314   -4825959.46446  -3683640.74763
  23243255.6264   -3607149.25845  -2763688.38361
  22360659.8534   -8317366.86246  -4766620.78861
 91  3 25 23 23 59.9970000  0  6G18G11G 2G19G16G 6
  21975035.212     6938947.547 6   5406941.43121
  22128796.8374   -7760795.88546  -6047360.68761
  20594544.5244  -18592559.13647 -14487650.17663
  20217284.6814   -4830106.55446  -3686872.24963
  23242287.9314   -3612241.28645  -2767656.29161
  22351430.853    -8365882.028 6  -4804424.73521
 91  3 25 23 24 14.9970000  0  6G18G11G 2G19G16G 6
  21981479.649     6972814.029 6   5433330.73121
  22129881.1034   -7755099.51446  -6042921.99161
  20587374.9544  -18630240.35947 -14517012.10063
  20216508.4544   -4834191.44446  -3690055.27763
  23241338.165    -3617221.737 5  -2771537.24921
  22342198.7744   -8414397.60346  -4842228.98161
 91  3 25 23 24 29.9970000  0  6G18G11G 2G19G16G 6
  21987933.704     7006728.247 6   5459757.24621
  22130992.064    -7749270.868 6  -6038380.21021
  20580215.7044  -18667858.56947 -14546324.92363
  20215737.9624   -4838222.19846  -3693196.12263
  23240413.626    -3622098.899 5  -2775337.74321
  22332963.8684   -8462922.08746  -4880040.17561
 91  3 25 23 24 44.9970000  0  6G18G11G 2G19G16G 6
  21994396.556     7040695.116 6   5486224.77521
  22132127.0404   -7743304.81446  -6033731.37661
  20573071.071   -18705408.382 7 -14575584.44423
  20214986.618    -4842193.691 6  -3696290.80023
  23239505.876    -3626867.779 5  -2779053.83121
  22323727.782    -8511449.958 5  -4917853.99421
 91  3 25 23 24 59.9970000  0  6G18G11G 2G19G16G 6
  22000871.0324    7074711.71046   5512731.05361
  22133287.360    -7737203.696 6  -6028977.27921
  20565936.4314  -18742892.22547 -14604792.56963
  20214239.0484   -4846107.96346  -3699340.89763
  23238618.939    -3631530.698 5  -2782687.35521
  22314492.7744   -8559983.54646  -4955672.27961
 91  3 25 23 25 14.9970000  0  6G18G11G 2G19G16G 6
  22007355.4314    7108781.78546   5539279.01961
  22134478.235    -7730964.027 6  -6024115.22321
  20558818.2514  -18780306.33447 -14633946.35363
  20213509.9464   -4849961.24346  -3702343.45963
  23237749.9154   -3636084.30145  -2786235.69661
  22305258.3604   -8608518.97046  -4993491.99961
 91  3 25 23 25 29.9970000  0  6G18G11G 2G19G16G 6
  22013845.9544    7142903.64346   5565867.32561
  22135690.884    -7724587.320 6  -6019146.39221
  20551710.1344  -18817651.96947 -14663046.78163
  20212788.439    -4853754.653 6  -3705299.37523
  23236903.962    -3640530.142 5  -2789700.08121
  22296022.048    -8657057.554 6  -5031314.19321
 91  3 25 23 25 44.9970000  0  6G18G11G 2G19G16G 6
  22020350.610     7177071.466 6   5592491.43621
  22136929.0094   -7718079.45646  -6014075.40161
  20544615.4074  -18854935.09547 -14692098.50363
  20212075.2284   -4857493.73946  -3708212.95063
  23236079.431    -3644873.904 5  -2793084.95321
  22286782.4074   -8705604.98046  -5069143.28461
 91  3 25 23 25 59.9960000  0  6G18G11G 2G19G16G 6
  22026858.0204    7211288.73546   5619154.09561
  22138189.699    -7711435.014 6  -6008897.94021
  20537534.9654  -18892147.06447 -14721094.77863
  20211372.5274   -4861172.20846  -3711079.29663
  23235269.6374   -3649109.63145  -2796385.62761
  22277544.223    -8754151.774 6  -5106971.88021
 91  3 25 23 26 14.9960000  0  5G18G11G 2G19G 6
  22033384.4574    7245561.52046   5645859.99861
  22139481.840    -7704651.381 6  -6003612.01521
  20530467.5354  -18929290.90847 -14750037.97063
  20210686.6684   -4864788.55446  -3713897.23463
  22268305.309    -8802702.453 6  -5144803.49421
 91  3 25 23 26 29.9960000  0  5G18G11G 2G19G 6
  22039915.996     7279882.536 6   5672603.49621
  22140799.723    -7697733.832 6  -5998221.73721
  20523411.1604  -18966368.82247 -14778929.79163
  20210007.4814   -4868347.05546  -3716670.10163
  22259065.356    -8851258.523 6  -5182639.31821
 91  3 25 23 26 44.9960000  0  5G18G11G 2G19G 6
  22046453.8794    7314253.59246   5699385.97861
  22142142.223    -7690680.894 6  -5992725.98321
  20516368.5274  -19003379.00047 -14807768.83163
  20209345.4814   -4871845.86546  -3719396.45463
  22249824.965    -8899818.093 6  -5220477.87721
 91  3 25 23 26 59.9960000  0  5G18G11G 2G19G 6
  22053004.5984    7348678.44146   5726210.37361
  22143507.871    -7683488.247 6  -5987121.37321
  20509338.5044  -19040317.27147 -14836551.84363
  20208688.0824   -4875280.52746  -3722072.81463
  22240583.8094   -8948376.97646  -5258315.90561
 91  3 25 23 27 14.9960000  0  5G18G11G 2G19G 6
  22059564.434     7383147.789 6   5753069.43521
  22144900.4344   -7676165.14846  -5981415.09461
  20502323.2234  -19077192.63047 -14865285.82963
  20208046.7154   -4878659.73346  -3724705.96163
  22231341.879    -8996943.951 6  -5296160.24221
 91  3 25 23 27 29.9960000  0  5G18G11G 2G19G 6
  22066133.363     7417661.110 6   5779962.77521
  22146325.4734   -7668711.99046  -5975607.47961
  20495317.0984  -19114005.30647 -14893970.97263
  20207413.4344   -4881983.86546  -3727296.19863
  22222096.660    -9045519.159 6  -5334010.99821
 91  3 25 23 27 44.9960000  0  5G18G11G 2G19G 6
  22072709.363     7452225.580 6   5806895.97121
  22147766.5594   -7661121.80346  -5969693.06861
  20488324.3094  -19150748.05347 -14922601.62763
  20206795.5984   -4885245.68646  -3729837.87963
  22212851.621    -9094095.420 6  -5371862.57521
 91  3 25 23 27 59.9960000  0  5G18G11G 2G19G 6
  22079294.934     7486834.429 6   5833863.73921
  22149234.8634   -7653401.00446  -5963676.90461
  20481346.1454  -19187427.15447 -14951182.68063
  20206184.7624   -4888451.18746  -3732335.68263
  22203608.9264   -9142678.88846  -5409719.76661
 91  3 25 23 28 14.9960000  0  5G18G11G 2G19G 6
  22085891.863     7521489.789 6   5860867.75221
  22150728.387    -7645547.724 6  -5957557.48921
  20474377.7544  -19224040.46147 -14979712.47563
  20205585.8714   -4891598.25046  -3734787.93663
  22194364.254    -9191267.344 6  -5447580.84421
 91  3 25 23 28 29.9960000  0  5G18G11G 2G19G 6
  22092495.551     7556198.621 6   5887913.43221
  22152250.5044   -7637554.98146  -5951329.40461
  20467424.418   -19260581.029 7 -15008185.58823
  20204996.1684   -4894679.54146  -3737188.94363
  22185116.8794   -9239853.64846  -5485440.23261
 91  3 25 23 28 44.9960000  0  5G18G11G 2G19G 6
  22099109.910     7590955.291 6   5914996.38521
  22153795.5664   -7629428.18846  -5944996.83961
  20460483.2234  -19297054.04147 -15036606.06163
  20204423.6374   -4897700.06046  -3739542.60063
  22175871.770    -9288442.735 6  -5523301.78221
 91  3 25 23 28 59.9960000  0  5G18G11G 2G19G 6
  22105734.1994    7625760.91046   5942117.47061
  22155369.6524   -7621166.19946  -5938558.95661
  20453556.0904  -19333457.95347 -15064972.68863
  20203864.1064   -4900658.28546  -3741847.72563
  22166624.3244   -9337033.33046  -5561164.50561
 91  3 25 23 29 14.9960000  0  5G18G11G 2G19G 6
  22112366.184     7660615.777 6   5969276.93121
  22156965.879    -7612768.551 6  -5932015.36021
  20446642.2704  -19369792.41447 -15093285.19763
  20203312.926    -4903553.617 6  -3744103.82923
  22157378.5044   -9385624.81146  -5599027.92361
 91  3 25 23 29 29.9960000  0  5G18G11G 2G19G 6
  22119007.816     7695518.893 6   5996474.00121
  22158593.5204   -7604236.16346  -5925366.78261
  20439741.621   -19406058.003 7 -15121544.04523
  20202769.4654   -4906386.75746  -3746311.47363
  22148131.1134   -9434217.80646  -5636892.52461
 91  3 25 23 29 44.9960000  0  5G18G11G 2G19G 6
  22125657.8244    7730463.43946   6023703.33561
  22160237.8794   -7595575.55746  -5918618.28661
  20432851.7464  -19442261.07747 -15149754.17463
  20202243.1294   -4909163.81246  -3748475.42363
  22138882.816    -9482818.503 6  -5674763.13221
 91  3 25 23 29 59.9960000  0  5G18G11G 2G19G 6
  22132316.785     7765459.033 6   6050972.46221
  22161909.981    -7586777.179 6  -5911762.43421
  20425975.473   -19478391.911 7 -15177908.01823
  20201724.8324   -4911874.91446  -3750587.97563
  22129634.566    -9531417.057 6  -5712632.06121
 91  3 25 23 30 14.9960000  0  5G18G11G 2G19G 6
  22138984.981     7800498.234 6   6078275.57221
  22163615.387    -7577848.594 6  -5904805.15021
  20419112.848   -19514457.891 7 -15206011.32323
  20201223.574    -4914527.372 6  -3752654.83923
  22120386.1134   -9580020.86446  -5750505.05461
 91  3 25 23 30 29.9960000  0  5G18G11G 2G19G 6
  22145663.8484    7835584.13546   6105615.04961
  22165333.684    -7568786.652 6  -5897743.90421
  20412261.1214  -19550455.60047 -15234061.43063
  20200728.356    -4917117.745 6  -3754673.32823
  22111138.8094   -9628626.36346  -5788379.36461
 91  3 25 23 30 44.9960000  0  5G18G11G 2G19G 6
  22152346.6524    7870715.13746   6132989.69961
  22167087.2074   -7559592.90046  -5890579.98261
  20405425.4814  -19586386.50747 -15262059.48063
  20200247.191    -4919647.275 6  -3756644.39823
  22101886.356    -9677234.914 6  -5826256.07621
 91  3 25 23 30 59.9960000  0  5G18G11G 2G19G 6
  22159041.004     7905894.369 6   6160401.90821
  22168862.5984   -7550263.90946  -5883310.67861
  20398600.512   -19622246.933 7 -15290002.61523
  20199773.332    -4922112.255 6  -3758565.18723
  22092636.793    -9725842.856 6  -5864132.31421
 91  3 25 23 31 14.9960000  0  5G18G11G 2G19G 6
  22165744.8014    7941120.29046   6187850.51861
  22170666.301    -7540801.161 6  -5875937.14121
  20391789.371   -19658038.145 7 -15317891.81723
  20199322.020    -4924513.634 6  -3760436.40623
  22083385.0594   -9774451.34346  -5902008.98461
 91  3 25 23 31 29.9960000  0  5G18G11G 2G19G 6
  22172458.2234    7976395.31346   6215337.35861
  22172485.934    -7531202.447 6  -5868457.63621
  20384992.332   -19693757.830 7 -15345725.28323
  20198878.582    -4926848.888 6  -3762256.11123
  22074136.121    -9823057.971 6  -5939884.20021
 91  3 25 23 31 44.9960000  0  5G18G11G 2G19G 6
  22179180.160     8011719.733 6   6242862.71621
  22174345.731    -7521467.441 6  -5860871.95221
  20378209.4494  -19729405.36347 -15373502.52563
  20198446.215    -4929117.275 6  -3764023.70423
  22064887.590    -9871662.078 6  -5977757.43021
 91  3 25 23 31 59.9960000  0  5G18G11G 2G19G 6
  22185912.6134    8047091.28846   6270424.79261
  22176217.7854   -7511598.11846  -5853181.58961
  20371437.590   -19764982.528 7 -15401224.93923
  20198025.402    -4931320.766 6  -3765740.72823
  22055638.590    -9920265.280 6  -6015629.95921
 91  3 25 23 32 14.9960000  0  5G18G11G 2G19G 6
  22192653.121     8082514.994 6   6298027.49821
  22178123.074    -7501589.567 6  -5845382.73421
  20364683.582   -19800484.248 7 -15428888.56223
  20197619.801    -4933454.077 6  -3767403.07223
  22046390.0434   -9968862.26646  -6053497.64661
 91  3 25 23 32 29.9960000  0  5G18G11G 2G19G 6
  22199403.395     8117986.084 6   6325667.15421
  22180054.074    -7491446.360 6  -5837478.95721
  20357939.988   -19835914.969 7 -15456496.86823
  20197226.340    -4935521.349 6  -3769013.96323
  22037143.801   -10017457.461 6  -6091363.95021
 91  3 25 23 32 44.9960000  0  5G18G11G 2G19G 6
  22206162.043     8153500.565 6   6353340.56021
  22182007.4264   -7481172.28546  -5829473.22561
  20351209.754   -19871278.239 7 -15484052.61723
  20196847.7234   -4937526.13246  -3770576.15663
  22027895.277   -10066054.467 6  -6129231.66421
 91  3 25 23 32 59.9960000  0  5G18G11G 2G19G 6
  22212928.3244    8189061.96946   6381050.60261
  22183989.4574   -7470763.82446  -5821362.78061
  20344495.449   -19906570.351 7 -15511552.90323
  20196477.8564   -4939464.51146  -3772086.61263
  22018648.1764  -10114649.41646  -6167097.76761
 91  3 25 23 33 14.9960000  0  5G18G11G 2G19G 6
  22219705.285     8224671.352 6   6408797.98121
  22185998.2074   -7460220.10346  -5813146.93261
  20337793.676   -19941790.191 7 -15538996.88123
  20196118.8794   -4941335.41846  -3773544.48563
  22009401.801   -10163241.173 6  -6204961.39221
 91  3 25 23 33 29.9960000  0  5G18G11G 2G19G 6
  22226491.027     8260324.734 6   6436579.66121
  22188031.1994   -7449544.94946  -5804828.66661
  20331104.246   -19976941.283 7 -15566387.29723
  20195773.137    -4943142.195 6  -3774952.38023
  22000155.2774  -10211833.06846  -6242825.11861
 91  3 25 23 33 44.9960000  0  5G18G11G 2G19G 6
  22233284.762     8296025.271 6   6464398.10021
  22190086.0354   -7438735.00246  -5796405.35661
  20324428.106   -20012020.406 7 -15593721.62823
  20195447.770    -4944881.293 6  -3776307.55623
  21990909.074   -10260421.688 6  -6280686.30021
 91  3 25 23 33 59.9960000  0  5G18G11G 2G19G 6
  22240085.5744    8331774.21946   6492254.23161
  22192170.1374   -7427789.14746  -5787876.15961
  20317768.012   -20047026.105 7 -15620998.74523
  20195128.3244   -4946551.27146  -3777608.86663
  21981664.246   -10309005.632 6  -6318543.84121
 91  3 25 23 34 14.9960000  0  5G18G11G 2G19G 6
  22246897.418     8367567.218 6   6520144.71521
  22194275.1764   -7416711.97046  -5779244.61361
  20311117.895   -20081962.541 7 -15648221.89423
  20194822.5124   -4948156.41146  -3778859.65363
  21972415.981   -10357588.996 6  -6356400.93821
 91  3 25 23 34 29.9960000  0  5G18G11G 2G19G 6
  22253718.4104    8403412.67046   6548076.05561
  22196415.770    -7405494.471 6  -5770503.76221
  20304486.426   -20116820.741 7 -15675384.07823
  20194527.137    -4949687.235 6  -3780052.52123
  21963175.2234  -10406162.54246  -6394250.39161
 91  3 25 23 34 44.9960000  0  5G18G11G 2G19G 6
  22260546.277     8439297.129 6   6576037.80521
  22198570.957    -7394150.226 6  -5761664.09621
  20297865.598   -20151614.057 7 -15702495.70623
  20194251.231    -4951157.035 6  -3781197.85123
  21953932.0354  -10454739.52346  -6432102.52061
 91  3 25 23 34 59.9960000  0  5G18G11G 2G19G 6
  22267385.168     8475224.703 6   6604033.11821
  22200756.465    -7382674.931 6  -5752722.35821
  20291256.129   -20186338.078 7 -15729553.33723
  20193984.8324   -4952561.13846  -3782292.00163
  21944686.652   -10503315.498 6  -6469953.85221
 91  3 25 23 35 14.9960000  0  5G18G11G 2G19G 6
  22274231.340     8511201.477 6   6632066.79921
  22202962.7384   -7371062.52946  -5743673.76261
  20284664.410   -20220986.596 7 -15756552.13723
  20193732.1524   -4953893.28946  -3783330.06763
  21935445.4344  -10551884.08946  -6507799.43961
 91  3 25 23 35 29.9960000  0  5G18G11G 2G19G 6
  22281082.9104    8547222.36946   6660134.85161
  22205194.051    -7359318.077 6  -5734522.26221
  20278083.848   -20255564.339 7 -15783495.78623
  20193488.5354   -4955158.12646  -3784315.67863
  21926202.348   -10600449.985 6  -6545642.91821
 91  3 25 23 35 44.9960000  0  5G18G11G 2G19G 6
  22287946.481     8583282.774 6   6688233.66321
  22207456.606    -7347446.301 6  -5725271.54621
  20271516.340   -20290075.810 7 -15810387.79723
  20193259.191    -4956360.218 6  -3785252.39223
  21916960.8404  -10649017.57046  -6583487.73261
 91  3 25 23 35 59.9960000  0  5G18G11G 2G19G 6
  22294816.770     8619384.589 6   6716364.80021
  22209741.934    -7335444.939 6  -5715919.86221
  20264961.379   -20324518.674 7 -15837226.34623
  20193046.074    -4957496.944 6  -3786138.17923
  21907718.051   -10697584.362 6  -6621331.93421
 91  3 25 23 36 14.9960000  0  5G18G11G 2G19G 6
  22301696.4654    8655531.77346   6744531.24161
  22212051.9814   -7323310.44346  -5706464.40961
  20258422.059   -20358889.059 7 -15864008.42023
  20192844.6914   -4958564.28946  -3786969.91263
  21898476.621   -10746146.373 6  -6659172.41721
 91  3 25 23 36 29.9960000  0  5G18G11G 2G19G 6
  22308583.1064    8691721.58746   6772730.92161
  22214384.8954   -7311045.18046  -5696907.05761
  20251894.215   -20393189.100 7 -15890735.67723
  20192649.7934   -4959564.29846  -3787749.16363
  21889236.246   -10794705.731 6  -6697010.82821
 91  3 25 23 36 44.9960000  0  5G18G11G 2G19G 6
  22315477.4184    8727951.48646   6800961.84361
  22216743.363    -7298651.706 6  -5687249.84521
  20245381.098   -20427421.009 7 -15917409.84523
  20192474.535    -4960499.064 6  -3788477.57723
  21879997.3164  -10843264.58246  -6734848.83461
 91  3 25 23 36 59.9960000  0  5G18G11G 2G19G 6
  22322380.215     8764222.517 6   6829224.78721
  22219124.6764   -7286129.02746  -5677491.92161
  20238878.465   -20461583.616 7 -15944030.01423
  20192306.363    -4961367.358 6  -3789154.19423
  21870755.3714  -10891821.58246  -6772685.39661
 91  3 25 23 37 14.9960000  0  5G18G11G 2G19G 6
  22329292.6764    8800541.79546   6857525.36261
  22221535.5904   -7273469.89746  -5667627.69361
  20232393.231   -20495669.650 7 -15970590.51623
  20192158.754    -4962161.730 6  -3789773.20723
  21861517.973   -10940369.311 6  -6810514.74021
 91  3 25 23 37 29.9960000  0  5G18G11G 2G19G 6
  22336211.1134    8836902.70146   6885858.36561
  22223970.027    -7260680.891 6  -5657662.26521
  20225919.598   -20529685.599 7 -15997096.40623
  20192017.9734   -4962888.27146  -3790339.37963
  21852280.231   -10988914.018 6  -6848341.73821
 91  3 25 23 37 44.9960000  0  5G18G11G 2G19G 6
  22343139.699     8873303.653 6   6914222.53621
  22226426.754    -7247763.775 6  -5647597.03021
  20219460.238   -20563632.749 7 -16023548.68423
  20191892.8874   -4963548.35646  -3790853.75363
  21843041.2314  -11037457.06046  -6886167.42061
 91  3 25 23 37 59.9960000  0  5G18G11G 2G19G 6
  22350074.8244    8909751.64046   6942623.40761
  22228910.4024   -7234711.32546  -5637426.32061
  20213014.6134  -20597503.53847 -16049941.46463
  20191782.629    -4964134.451 6  -3791310.47323
  21833807.7314  -11085990.85746  -6923985.90661
 91  3 25 23 38 14.9960000  0  5G18G11G 2G19G 6
  22357018.4414    8946238.04346   6971054.15561
  22231414.707    -7221532.061 6  -5627156.78521
  20206581.4494  -20631306.40547 -16076281.32463
  20191683.379    -4964654.729 6  -3791715.91023
  21824571.6294  -11134523.54346  -6961803.52361
 91  3 25 23 38 29.9960000  0  5G18G11G 2G19G 6
  22363968.1064    8982768.19146   6999519.02261
  22233951.4264   -7208220.66846  -5616784.30361
  20200162.6524  -20665035.94647 -16102564.04363
  20191598.5824   -4965103.59346  -3792065.70563
  21815337.7464  -11183049.65646  -6999616.01461
 91  3 25 23 38 44.9960000  0  5G18G11G 2G19G 6
  22370927.731     9019340.669 6   7028016.86321
  22236510.6604   -7194778.64146  -5606310.00561
  20193756.9264  -20698693.44847 -16128790.63063
  20191527.1844   -4965482.28046  -3792360.81763
  21806102.879   -11231570.268 6  -7037424.21421
 91  3 25 23 38 59.9960000  0  5G18G11G 2G19G 6
  22377896.043     9055954.988 6   7056547.29521
  22239092.6374   -7181206.20946  -5595734.08461
  20187367.6604  -20732278.77647 -16154960.97863
  20191463.3874   -4965790.54846  -3792601.04963
  21796872.3714  -11280085.34646  -7075228.10461
 91  3 25 23 39 14.9960000  0  5G18G11G 2G19G 6
  22384870.387     9092605.525 6   7085105.97721
  22241698.973    -7167509.435 6  -5585061.28221
  20180989.6454  -20765797.78847 -16181079.65363
  20191420.3484   -4966034.08946  -3792790.85563
  21787639.6994  -11328600.47446  -7113032.03061
 91  3 25 23 39 29.9960000  0  5G18G11G 2G19G 6
  22391852.262     9129293.194 6   7113693.56721
  22244327.113    -7153686.867 6  -5574290.46221
  20174623.6844  -20799248.95847 -16207145.46463
  20191386.9104   -4966211.20146
  21778406.684   -11377113.952 6  -7150834.66121
 91  3 25 23 39 44.9960000  0  5G18G11G 2G19G 6
  22398840.856     9166021.153 6   7142312.55621
  22246981.231    -7139735.297 6  -5563419.13321
  20168271.2234  -20832628.66647 -16233155.59163
  20191366.965    -4966318.294 6
  21769177.574   -11425622.204 6  -7188633.22121
 91  3 25 23 39 59.9960000  0  5G18G11G 2G19G 6
  22405837.9024    9202787.81246   7170961.69461
  22249665.621    -7125656.922 6  -5552448.99221
  20161932.6064  -20865939.08847 -16259111.72563
  20191357.332    -4966357.098 6
  21759946.129   -11474127.060 6  -7226429.13921
 91  3 25 23 40 14.9960000  0  5G18G11G 2G19G 6
  22412842.5434    9239593.93846   7199641.58361
  22252365.5904   -7111450.32546  -5541378.92161
  20155608.7934  -20899178.73347 -16285012.71963
  20191365.926    -4966326.141 6
  21750717.785   -11522626.949 6  -7264221.18621
 91  3 25 23 40 29.9960000  0  5G18G11G 2G19G 6
  22419853.0434    9276437.86946   7228350.96261
  22255093.3094   -7097117.25046  -5530210.29561
  20149295.2314  -20932349.04147 -16310859.68063
  20191383.848    -4966226.711 6
  21741488.7234  -11571123.24846  -7302010.43661
 91  3 25 23 40 44.9960000  0  5G18G11G 2G19G 6
  22426871.902     9313321.741 6   7257091.42621
  22257844.1994   -7082655.85046  -5518941.66161
  20142996.2704  -20965447.69347 -16336650.80863
  20191417.566    -4966056.533 6
  21732261.137   -11619613.583 6  -7339795.02721
 91  3 25 23 40 59.9960000  0  5G18G11G 2G19G 6
  22433899.3014    9350246.32346   7285863.60661
  22260623.8014   -7068065.14746  -5507572.27761
  20136712.5744  -20998473.42447 -16362385.11163
  20191461.9104   -4965814.30046
  21723035.441   -11668096.634 6  -7377573.94821
 91  3 25 23 41 14.9960000  0  5G18G11G 2G19G 6
  22440933.434     9387209.824 6   7314666.14921
  22263422.8164   -7053346.70246  -5496103.37161
  20130441.6524  -21031427.69247 -16388063.73163
  20191521.801    -4965501.152 6  -3792375.80323
  21713811.106   -11716573.690 6  -7415348.19521
 91  3 25 23 41 29.9960000  0  5G18G11G 2G19G 6
  22447975.1374    9424212.46146   7343499.16461
  22266246.910    -7038500.786 6  -5484535.13621
  20124182.8794  -21064310.45147 -16413686.63063
  20191600.738    -4965116.942 6  -3792076.45423
  21704587.3634  -11765044.47246  -7453117.55061
 91  3 25 23 41 44.9960000  0  5G18G11G 2G19G 6
  22455023.4734    9461253.76546   7372362.30761
  22269097.9654   -7023527.35946  -5472867.54761
  20117939.9184  -21097121.79047 -16439253.87563
  20191684.7704   -4964661.44646  -3791721.55763
  21695363.3564  -11813508.89646  -7490881.95061
 91  3 25 23 41 59.9960000  0  5G18G11G 2G19G 6
  22462080.3094    9498335.35446   7401256.86361
  22271972.621    -7008424.965 6  -5461099.46021
  20111709.332   -21129859.879 7 -16464764.04723
  20191783.4654   -4964132.70846  -3791309.58163
  21686143.863   -11861964.967 6  -7528639.84521
 91  3 25 23 42 14.9960000  0  5G18G11G 2G19G 6
  22469143.5354    9535455.81146   7430181.68661
  22274870.004    -6993194.975 6  -5449231.91521
  20105494.6064  -21162525.91047 -16490218.06863
  20191897.856    -4963531.956 6  -3790841.48723
  21676923.012   -11910413.768 6  -7566392.08221
 91  3 25 23 42 29.9960000  0  5G18G11G 2G19G 6
  22476214.4654    9572609.20346   7459132.17461
  22277790.5274   -6977843.24646  -5437269.50861
  20099290.285   -21195125.405 7 -16515620.24423
  20192025.504    -4962864.714 6  -3790321.58923
  21667705.043   -11958860.733 6  -7604142.88321
 91  3 25 23 42 44.9960000  0  5G18G11G 2G19G 6
  22483291.0124    9609800.67646   7488112.35861
  22280736.871    -6962364.733 6  -5425208.31721
  20093099.6294  -21227653.25647 -16540966.60063
  20192166.074    -4962125.509 6  -3789745.61423
  21658487.207   -12007300.681 6  -7641888.22521
 91  3 25 23 42 59.9960000  0  5G18G11G 2G19G 6
  22490371.9414    9647020.15645   7517114.33061
  22283705.5124   -6946769.43646  -5413056.12761
  20086923.0594  -21260119.14547 -16566264.66063
  20192315.7704   -4961323.80546  -3789120.93263
  21649267.4414  -12055743.06846  -7679635.47061
 91  3 25 23 43 14.9960000  0  5G18G11G 2G19G 6
  22497462.496     9684275.341 5   7546144.12221
  22286694.6764   -6931049.69546  -5400806.97661
  20080756.3634  -21292515.21547 -16591508.31763
  20192483.988    -4960451.628 6  -3788441.33423
  21640050.5664  -12104179.85846  -7717378.36161
 91  3 25 23 43 29.9960000  0  5G18G11G 2G19G 6
  22504559.4184    9721566.42845   7575201.90361
  22289711.8874   -6915205.12746  -5388460.56961
  20074606.6524  -21324840.83447 -16616697.08063
  20192661.691    -4959508.418 6  -3787706.39023
  21630835.7854  -12152610.48546  -7755116.45561
 91  3 25 23 43 44.9960000  0  5G18G11G 2G19G 6
  22511661.5904    9758891.52345   7604286.19061
  22292750.3404   -6899237.70246  -5376018.43561
  20068468.0824  -21357097.60947 -16641832.19663
  20192856.324    -4958495.676 6  -3786917.26223
  21621619.1294  -12201036.38246  -7792850.85561
 91  3 25 23 43 59.9960000  0  5G18G11G 2G19G 6
  22518773.356     9796250.296 5   7633396.70421
  22295808.746    -6883147.929 6  -5363480.96521
  20062343.2774  -21389285.88847 -16666913.94263
  20193063.254    -4957413.564 6  -3786074.07223
  21612405.012   -12249457.718 6  -7830581.71721
 91  3 25 23 44 14.9960000  0  5G18G11G 2G19G 6
  22525888.0824    9833645.26545   7662535.41961
  22298893.8954   -6866932.84946  -5350845.84061
  20056231.3404  -21421402.51847 -16691939.85863
  20193282.395    -4956258.698 6  -3785174.19323
  21603193.434   -12297871.228 6  -7868306.47121
 91  3 25 23 44 29.9960000  0  5G18G11G 2G19G 6
  22533012.0594    9871074.19645   7691700.61661
  22302007.098    -6850594.819 6  -5338114.93221
  20050132.4884  -21453449.54447 -16716911.53263
  20193514.606    -4955033.180 6  -3784219.26223
  21593978.887   -12346278.907 6  -7906026.68721
 91  3 25 23 44 44.9960000  0  5G18G11G 2G19G 6
  22540140.621     9908534.123 5   7720889.96721
  22305137.520    -6834137.190 6  -5325290.81421
  20044046.5434  -21485430.04647 -16741831.36863
  20193761.684    -4953740.038 6  -3783211.63923
  21584769.004   -12394683.686 6  -7943744.65321
 91  3 25 23 44 59.9960000  0  5G18G11G 2G19G 6
  22547274.9184    9946023.97446   7750102.62361
  22308290.9654   -6817560.56446  -5312374.00061
  20037974.0274  -21517344.46447 -16766699.70963
  20194019.988    -4952379.357 6  -3782151.38623
  21575558.3164  -12443085.66046  -7981460.41161
 91  3 25 23 45 14.9960000  0  5G18G11G 2G19G 6
  22554416.8794    9983541.35445   7779336.71861
  22311469.668    -6800867.646 6  -5299366.53321
  20031913.754   -21549195.522 7 -16791518.67323
  20194291.957    -4950953.611 6  -3781040.43223
  21566348.3094  -12491487.34246  -8019175.95261
 91  3 25 23 45 29.9960000  0  5G18G11G 2G19G 6
  22561559.0594   10021087.91645   7808593.57061
  22314668.5044   -6784056.76946  -5286267.18961
  20025863.9414  -21580981.09247 -16816286.61363
  20194576.559    -4949460.602 6  -3779877.07823
  21557138.9104  -12539886.58546  -8056889.59261
 91  3 25 23 45 44.9960000  0  5G18G11G 2G19G 6
  22568709.1604   10058666.17445   7837875.12461
  22317886.7384   -6767125.36846  -5273073.91761
  20019828.832   -21612698.273 7 -16841001.25923
  20194875.090    -4947897.654 6  -3778659.21723
  21547929.723   -12588280.471 6  -8094599.06321
 91  3 25 23 45 59.9960000  0  5G18G11G 2G19G 6
  22575865.770    10096276.262 5   7867181.45121
  22321134.012    -6750073.259 6  -5259786.59621
  20013805.4184  -21644346.78947 -16865662.40263
  20195183.707    -4946264.154 6  -3777386.37623
  21538720.2154  -12636668.44246  -8132303.91461
 91  3 25 23 46 14.9960000  0  5G18G11G 2G19G 6
  22583028.895    10133915.517 5   7896510.51421
  22324400.6994   -6732903.14746  -5246407.31761
  20007796.6134  -21675929.09347 -16890271.94963
  20195508.020    -4944562.392 6  -3776060.34923
  21529514.5744  -12685052.85846  -8170005.99261
 91  3 25 23 46 29.9960000  0  5G18G11G 2G19G 6
  22590197.613    10171585.933 5   7925863.88021
  22327690.309    -6715612.794 6  -5232934.33121
  20001798.9494  -21707442.89347 -16914828.11663
  20195846.043    -4942789.715 6  -3774679.06323
  21520308.6844  -12733431.11446  -8207703.27461
 91  3 25 23 46 44.9960000  0  5G18G11G 2G19G 6
  22597374.0514   10209281.56145   7955236.84761
  22331003.9734   -6698208.41646  -5219372.51761
  19995812.738   -21738893.886 7 -16939335.34023
  20196196.473    -4940952.030 6  -3773247.12623
  21511103.449   -12781809.003 6  -8245400.26921
 91  3 25 23 46 59.9960000  0  5G18G11G 2G19G 6
  22604549.887    10247007.586 5   7984633.50821
  22334337.3634   -6680684.65346  -5205717.68061
  19989842.0124  -21770276.55847 -16963789.32563
  20196555.199    -4939043.653 6  -3771760.09823
  21501898.0744  -12830180.77346  -8283092.48661
 91  3 25 23 47 14.9960000  0  5G18G11G 2G19G 6
  22611735.816    10284761.052 5   8014051.59821
  22337696.1914   -6663044.45746  -5191972.13861
  19983882.770   -21801593.736 7 -16988192.27723
  20196932.684    -4937067.080 6  -3770219.93223
  21492694.0514  -12878548.97646  -8320781.89961
 91  3 25 23 47 29.9960000  0  5G18G11G 2G19G 6
  22618923.996    10322539.570 5   8043489.15721
  22341073.746    -6645290.439 6  -5178137.87721
  19977935.8634  -21832847.71747 -17012545.99163
  20197321.223    -4935024.548 6  -3768628.36923
  21483487.3164  -12926915.78346  -8358470.22761
 91  3 25 23 47 44.9960000  0  5G18G11G 2G19G 6
  22626119.8564   10360349.56045   8072951.24861
  22344474.2384   -6627415.77646  -5164209.59761
  19972001.152   -21864031.567 7 -17036845.05223
  20197727.246    -4932908.944 6  -3766979.86623
  21474284.9344  -12975274.11846  -8396151.95461
 91  3 25 23 47 59.9960000  0  5G18G11G 2G19G 6
  22633318.5984   10398182.54745   8102431.26761
  22347896.1064   -6609429.15946  -5150194.09561
  19966079.301   -21895153.551 7 -17061095.90223
  20198137.434    -4930728.578 6  -3765280.90023
  21465084.7544  -13023632.22446  -8433833.50661
 91  3 25 23 48 14.9960000  0  5G18G11G 2G19G 6
  22640523.0204   10436040.15345   8131930.46261
  22351342.1134   -6591329.20346  -5136090.27061
  19960169.129   -21926211.988 7 -17085297.23523
  20198569.637    -4928481.636 6  -3763530.06423
  21455883.332   -13071988.255 6  -8471513.43121
 91  3 25 23 48 29.9960000  0  5G18G11G 2G19G 6
  22647733.6454   10473927.69445   8161452.98261
  22354807.434    -6573110.290 6  -5121893.76521
  19954272.012   -21957200.966 7 -17109444.44423
  20199011.488    -4926162.002 6  -3761722.58023
  21446681.895   -13120336.192 6  -8509187.03621
 91  3 25 23 48 44.9960000  0  5G18G11G 2G19G 6
  22654947.441    10511838.050 5   8190993.29521
  22358299.598    -6554779.794 6  -5107610.33721
  19948386.309   -21988127.913 7 -17133543.32023
  20199463.191    -4923776.786 6  -3759863.99023
  21437480.973   -13168683.116 6  -8546859.86621
 91  3 25 23 48 59.9960000  0  5G18G11G 2G19G 6
  22662164.6454   10549772.63245   8220552.45361
  22361808.3094   -6536335.94946  -5093238.57961
  19942514.629   -22018990.702 7 -17157592.20323
  20199925.582    -4921323.915 6  -3757952.68423
  21428282.973   -13217026.871 6  -8584530.22321
 91  3 25 23 49 14.9950000  0  5G18G11G 2G19G 6
  22669392.218    10587727.783 5   8250127.64221
  22365339.257    -6517781.315 6  -5078780.47921
  19936652.132   -22049788.133 7 -17181590.15823
  20200409.554    -4918804.504 6  -3755989.52523
  21419083.140   -13265365.036 6  -8622196.22221
 91  3 25 23 49 29.9950000  0  5G18G11G 2G19G 6
  22676619.155    10625709.549 5   8279723.58521
  22368891.601    -6499112.358 6  -5064233.28621
  19930804.3124  -22080523.28547 -17205539.58663
  20200900.452    -4916216.846 6  -3753973.18623
  21409883.819   -13313702.657 6  -8659861.79921
 91  3 25 23 49 44.9950000  0  5G18G11G 2G19G 6
  22683852.023    10663719.528 5   8309341.50621
  22372466.4054   -6480326.22946  -5049594.77861
  19924968.101   -22111189.828 8 -17229435.55123
  20201410.569    -4913556.730 6  -3751900.38023
  21400688.929   -13362032.165 6  -8697521.05421
 91  3 25 23 49 59.9950000  0  5G18G11G 2G19G 6
  22691088.6404   10701751.10345   8338976.24261
  22376062.7494   -6461429.75746  -5034870.31861
  19919144.9524  -22141794.08947 -17253282.98463
  20201923.7654   -4910830.31346  -3749775.91263
  21391490.8044  -13410359.73246  -8735178.79761
 91  3 25 23 50 14.9950000  0  5G18G11G 2G19G 6
  22698330.148    10739807.426 5   8368630.26621
  22379679.0154   -6442419.64746  -5020057.28761
  19913332.8354  -22172332.60848 -17277079.19463
  20202461.202    -4908034.212 6  -3747597.15123
  21382297.5624  -13458681.78746  -8772832.25061
 91  3 25 23 50 29.9950000  0  5G18G11G 2G19G 6
  22705574.0854   10777887.52345   8398302.82461
  22383317.8664   -6423296.97846  -5005156.54261
  19907534.1014  -22202806.29248 -17300824.88463
  20203005.265    -4905169.137 6  -3745364.63723
  21373100.499   -13506999.178 6  -8810482.06521
 91  3 25 23 50 44.9950000  0  5G18G11G 2G19G 6
  22712827.882    10815990.035 5   8427992.83921
  22386977.585    -6404062.865 6  -4990168.96521
  19901747.9994  -22233216.07148 -17324520.77963
  20203563.6404   -4902235.80546  -3743078.93563
  21363907.0854  -13555312.46046  -8848128.67561
 91  3 25 23 50 59.9950000  0  5G18G11G 2G19G 6
  22720084.1714   10854115.83345   8457700.99561
  22390659.6164   -6384716.45146  -4975093.88761
  19895972.5694  -22263560.84648 -17348166.01963
  20204132.0934   -4899233.10846  -3740739.18463
  21354715.4294  -13603620.40846  -8885771.14461
 91  3 25 23 51 14.9950000  0  5G18G11G 2G19G 6
  22727340.515    10892264.478 5   8487426.95821
  22394362.0074   -6365258.18346  -4959931.61261
  19890210.9214  -22293840.72548 -17371760.69063
  20204718.663    -4896160.850 6  -3738345.22823
  21345523.3514  -13651923.00946  -8923409.44761
 91  3 25 23 51 29.9950000  0  5G18G11G 2G19G 6
  22734605.9834   10930442.98845   8517176.20261
  22398086.858    -6345681.502 6  -4944677.11621
  19884462.6554  -22324048.75548 -17395299.37963
  20205314.866    -4893012.149 6  -3735891.70423
  21336333.280   -13700213.205 6  -8961038.06121
 91  3 25 23 51 44.9950000  0  5G18G11G 2G19G 6
  22741876.132    10968647.169 5   8546945.42421
  22401834.8514   -6325990.47646  -4929333.47961
  19878726.2334  -22354188.91948 -17418785.18663
  20205929.8744   -4889790.64646  -3733381.45363
  21327146.585   -13748494.733 6  -8998659.94721
 91  3 25 23 51 59.9950000  0  5G18G11G 2G19G 6
  22749152.6324   11006872.34145   8576730.99661
  22405603.085    -6306189.680 6  -4913904.32321
  19873002.655   -22384265.511 8 -17442221.46523
  20206555.382    -4886500.587 6  -3730817.79023
  21317958.429   -13796771.772 6  -9036278.34521
 91  3 25 23 52 14.9950000  0  5G18G11G 2G19G 6
  22756430.7574   11045124.07545   8606537.28661
  22409393.3124   -6286273.52446  -4898385.30561
  19867293.7334  -22414272.94448 -17465603.85163
  20207197.2024   -4883135.88546  -3728195.95263
  21308774.6164  -13845038.26346  -9073888.49861
 91  3 25 23 52 29.9950000  0  5G18G11G 2G19G 6
  22763714.843    11083399.125 5   8636361.74521
  22413204.4054   -6266245.43246  -4882779.04561
  19861595.8194  -22444214.20548 -17488934.66863
  20207847.812    -4879699.602 6  -3725518.34023
  21299592.4214  -13893297.17846  -9111492.75661
 91  3 25 23 52 44.9950000  0  5G18G11G 2G19G 6
  22771001.273    11121691.402 5   8666199.59921
  22417034.1944   -6246111.34046  -4867090.19361
  19855909.569   -22474094.951 8 -17512218.32623
  20208518.163    -4876197.452 6  -3722789.40923
  21290406.937   -13941554.094 6  -9149095.46721
 91  3 25 23 52 59.9950000  0  5G18G11G 2G19G 6
  22778294.812    11160002.013 5   8696051.75821
  22420886.101    -6225870.164 6  -4851317.87721
  19850235.499   -22503913.890 8 -17535453.81823
  20209194.265    -4872627.998 6  -3720008.02823
  21281226.3354  -13989807.66246  -9186695.55361
 91  3 25 23 53 14.9950000  0  5G18G11G 2G19G 6
  22785587.4134   11198333.72945   8725920.36361
  22424760.827    -6205518.910 6  -4835459.81121
  19844572.804   -22533667.724 8 -17558638.57523
  20209889.585    -4868987.939 6  -3717171.62823
  21272044.1014  -14038054.31246  -9224290.24761
 91  3 25 23 53 29.9950000  0  5G18G11G 2G19G 6
  22792886.5854   11236692.19545   8755809.82361
  22428653.8824   -6185052.07846  -4819511.65961
  19838924.2804  -22563350.90248 -17581768.30163
  20210595.2334   -4865271.43946  -3714275.66263
  21262865.499   -14086288.171 6  -9261874.95821
 91  3 25 23 53 44.9950000  0  5G18G11G 2G19G 6
  22800189.9054   11275071.25745   8785715.30361
  22432571.077    -6164476.008 6  -4803478.41021
  19833288.6324  -22592969.24748 -17604847.49163
  20211316.8274   -4861484.22546  -3711324.60563
  21253688.8984  -14134515.12146  -9299454.30861
 91  3 25 23 53 59.9950000  0  5G18G11G 2G19G 6
  22807496.343    11313465.529 5   8815632.66221
  22436507.4684   -6143795.90746  -4787364.10861
  19827662.890   -22622527.682 8 -17627879.98923
  20212052.523    -4857631.060 6  -3708322.15023
  21244512.5544  -14182739.88046  -9337031.94761
 91  3 25 23 54 14.9950000  0  5G18G11G 2G19G 6
  22814805.0464   11351880.67145   8845566.24961
  22440463.460    -6123006.364 6  -4771164.52221
  19822051.663   -22652020.594 8 -17650861.43023
  20212797.4134   -4853706.29446  -3705263.89863
  21235336.093   -14230956.639 6  -9374603.34721
 91  3 25 23 54 29.9950000  0  5G18G11G 2G19G 6
  22822122.1164   11390318.98645   8875517.93061
  22444440.1324   -6102105.17646  -4754877.95761
  19816450.851   -22681445.481 8 -17673789.87323
  20213556.8124   -4849707.21846  -3702147.74963
  21226162.2184  -14279162.65646  -9412166.34861
 91  3 25 23 54 44.9950000  0  5G18G11G 2G19G 6
  22829438.265    11428770.348 5   8905479.75221
  22448436.866    -6081102.244 6  -4738512.08621
  19810862.468   -22710812.266 8 -17696673.04023
  20214333.202    -4845643.682 6  -3698981.36723
  21216988.585   -14327367.675 6  -9449728.60121
 91  3 25 23 54 59.9950000  0  5G18G11G 2G19G 6
  22836759.4444   11467244.03845   8935458.99661
  22452454.9134   -6059988.51846  -4722059.86661
  19805287.2494  -22740111.39848 -17719503.49263
  20215117.4994   -4841506.00746  -3695757.21663
  21207818.851   -14375562.109 6  -9487282.59921
 91  3 25 23 55 14.9950000  0  5G18G11G 2G19G 6
  22844085.0154   11505739.28545   8965455.00961
  22456494.8354   -6038764.50546  -4705521.72461
  19799724.991   -22769342.952 8 -17742281.28323
  20215919.788    -4837294.251 6  -3692475.34023
  21198651.5464  -14423745.82746  -9524828.26261
 91  3 25 23 55 29.9950000  0  5G18G11G 2G19G 6
  22851416.1014   11544261.24145   8995471.84561
  22460551.5624   -6017425.18046  -4688893.74861
  19794177.3584  -22798501.91248 -17765002.51563
  20216733.710    -4833003.190 6  -3689131.67423
  21189481.585   -14471913.492 6  -9562361.39721
 91  3 25 23 55 44.9950000  0  5G18G11G 2G19G 6
  22858751.694    11582800.194 5   9025501.92521
  22464636.3514   -5995980.38846  -4672183.58461
  19788640.1874  -22827597.85248 -17787674.64063
  20217567.405    -4828642.252 6  -3685733.54823
  21180318.452   -14520074.639 6  -9599889.44821
 91  3 25 23 55 59.9950000  0  5G18G11G 2G19G 6
  22866088.937    11621357.578 5   9055546.33921
  22468734.694    -5974428.751 6  -4655390.11921
  19783115.413   -22856629.204 8 -17810296.42323
  20218407.3664   -4824209.60646  -3682279.55063
  21171155.312   -14568227.368 6  -9637410.93721
 91  3 25 23 56 14.9950000  0  5G18G11G 2G19G 6
  22873429.5624   11659931.96745   9085604.03761
  22472857.952    -5952771.882 6  -4638514.73121
  19777602.796   -22885597.151 8 -17832868.82023
  20219266.905    -4819706.520 6  -3678770.67722
  21161992.218   -14616372.792 6  -9674926.75121
 91  3 25 23 56 29.9950000  0  5G18G11G 2G19G 6
  22880772.8354   11698529.09645   9115679.42861
  22477001.0854   -5931003.95846  -4621552.76261
  19772103.827   -22914495.800 8 -17855387.19423
  20220138.882    -4815126.855 6  -3675202.11922
  21152834.9834  -14664504.64646  -9712431.96661
 91  3 25 23 56 44.9950000  0  5G18G11G 2G19G 6
  22888123.7104   11737145.92745   9145770.19661
  22481162.3354   -5909127.65646  -4604506.35561
  19766617.601   -22943327.438 8 -17877853.36623
  20221024.7264   -4810472.78746  -3671575.58162
  21143677.5234  -14712625.21146  -9749928.40761
 91  3 25 23 56 59.9950000  0  5G18G11G 2G19G 6
  22895474.8194   11775781.20445   9175875.31061
  22485346.0384   -5887144.65046  -4587376.77961
  19761143.1794  -22972093.63548 -17900268.54664
  20221923.6944   -4805745.71146  -3667892.16063
  21134521.866   -14760735.855 6  -9787417.10021
 91  3 25 23 57 14.9950000  0  5G18G11G 2G19G 6
  22902830.038    11814431.987 5   9205992.51721
  22489546.7964   -5865057.62546  -4570166.16961
  19755680.8584  -23000796.66648 -17922634.50563
  20222839.749    -4800948.035 6  -3664153.72322
  21125367.749   -14808838.733 6  -9824899.79321
 91  3 25 23 57 29.9950000  0  5G18G11G 2G19G 6
  22910189.491    11853101.776 5   9236124.52621
  22493771.062    -5842863.355 6  -4552871.98721
  19750231.1944  -23029433.08848 -17944948.56064
  20223761.343    -4796075.979 6  -3660357.32722
  21116215.6634  -14856930.04446  -9862373.42661
 91  3 25 23 57 44.9950000  0  5G18G11G 2G19G 6
  22917549.530    11891792.964 5   9266273.21421
  22498016.046    -5820559.524 6  -4535492.42621
  19744795.7734  -23058000.36148 -17967208.73664
  20224706.4054   -4791126.89046  -3656500.90662
  21107068.6714  -14905007.18946  -9899836.04261
 91  3 25 23 57 59.9950000  0  5G18G11G 2G19G 6
  22924918.444    11930498.297 5   9296432.93221
  22502281.648    -5798153.329 6  -4518033.09621
  19739370.3984  -23086505.30548 -17989420.34564
  20225661.593    -4786107.476 6  -3652589.69023
  21097920.273   -14953076.741 6  -9937292.72121
 91  3 25 23 58 14.9950000  0  5G18G11G 2G19G 6
  22932288.780    11969221.677 5   9326606.71121
  22506564.726    -5775640.706 6  -4500490.84621
  19733959.3514  -23114943.61648 -18011580.03964
  20226629.999    -4781013.384 6  -3648620.28623
  21088775.3434  -15001134.26946  -9974740.02961
 91  3 25 23 58 29.9950000  0  5G18G11G 2G19G 6
  22939658.3824   12007962.50845   9356794.05261
  22510868.429    -5753022.398 6  -4482866.21121
  19728560.4134  -23143315.97648 -18033688.33463
  20227612.077    -4775845.146 6  -3644593.10823
  21079631.7494  -15049180.14546 -10012178.25061
 91  3 25 23 58 44.9950000  0  5G18G11G 2G19G 6
  22947032.132    12046719.025 5   9386993.63221
  22515193.593    -5730300.257 6  -4465160.66921
  19723173.2414  -23171623.89548 -18055746.41364
  20228612.523    -4770604.091 6  -3640509.19223
  21070491.054   -15097215.694 6 -10049608.44121
 91  3 25 23 58 59.9950000  0  5G18G11G 2G19G 6
  22954411.6554   12085495.39545   9417208.69461
  22519535.890    -5707470.225 6  -4447371.06521
  19717799.210   -23199862.966 8 -18077750.83423
  20229621.2264   -4765285.52546  -3636364.87563
  21061353.2104  -15145236.36546 -10087027.05361
 91  3 25 23 59 14.9950000  0  5G18G11G 2G19G 6
  22961795.2884   12124289.08845   9447437.24861
  22523904.765    -5684534.860 6  -4429499.41621
  19712437.827   -23228035.548 8 -18099703.45324
  20230651.312    -4759891.726 6  -3632161.93922
  21052218.4764  -15193244.35446 -10124435.76361
 91  3 25 23 59 29.9950000  0  5G18G11G 2G19G 6
  22969181.8274   12163094.39345   9477674.84261
  22528282.835    -5661500.009 5  -4411550.24621
  19707088.1714  -23256147.20648 -18121608.60463
  20231687.507    -4754428.406 6  -3627904.83323
  21043083.1014  -15241245.01746 -10161838.76661
 91  3 25 23 59 44.9950000  0  5G18G11G 2G19G 6
  22976567.351    12201918.907 5   9507927.39121
  22532690.9134   -5638358.01146  -4393517.59861
  19701752.0074  -23284189.90448 -18143460.01963
  20232743.835    -4748887.427 6  -3623587.21222
  21033951.843   -15289230.335 6 -10199229.85521
 91  3 25 23 59 59.9950000  0  5G18G11G 2G19G 6
  22983958.9524   12240762.12245   9538194.52461
  22537114.1484   -5615109.24846  -4375401.73661
  19696429.155   -23312163.819 8 -18165257.82923
  20233810.194    -4743268.702 6  -3619209.00123
  21024825.8824  -15337200.08246 -10236608.77661
 91  3 26  0  0 14.9950000  0  5G18G11G 2G19G 6
  22991354.358    12279615.950 5   9568469.94121
  22541554.163    -5591761.738 6  -4357208.89721
  19691116.6874  -23340076.79548 -18187008.16263
  20234892.116    -4737579.887 6  -3614776.18223
  21015694.8194  -15385161.87846 -10273981.51061
 91  3 26  0  0 29.9950000  0  4G11G 2G19G 6
  22546018.4374   -5568312.34446  -4338936.68261
  19685817.8664  -23367925.32748 -18208708.28464
  20235990.726    -4731817.468 6  -3610286.00923
  21006573.2024  -15433112.00046 -10311345.13161
 91  3 26  0  0 44.9950000  0  4G11G 2G19G 6
  22550500.913    -5544761.403 6  -4320585.33821
  19680530.9684  -23395709.47448 -18230358.23963
  20237099.108    -4725981.477 6  -3605738.49823
  20997449.0854  -15481050.39946 -10348699.59361
 91  3 26  0  0 59.9950000  0  4G11G 2G19G 6
  22555000.327    -5521108.901 6  -4302154.86321
  19675256.5694  -23423428.99448 -18251957.82564
  20238229.398    -4720071.450 6  -3601133.30623
  20988330.1164  -15528976.70746 -10386044.68361
 91  3 26  0  1 14.9950000  0  4G11G 2G19G 6
  22559521.6484   -5497353.38846  -4283644.10561
  19669994.1554  -23451082.31648 -18273505.83763
  20239361.273    -4714085.754 6  -3596469.14223
  20979210.1874  -15576889.01446 -10423378.86061
 91  3 26  0  1 29.9950000  0  4G11G 2G19G 6
  22564062.491    -5473496.512 6  -4265054.37821
  19664743.8044  -23478670.72648 -18295003.26564
  20240515.929    -4708025.403 6  -3591746.80523
  20970095.0154  -15624788.33646 -10460702.90561
 91  3 26  0  1 44.9950000  0  4G11G 2G19G 6
  22568619.6084   -5449531.01045  -4246379.98361
  19659508.0544  -23506186.54048 -18316444.12364
  20241684.726    -4701882.840 6  -3586960.40723
  20960984.4914  -15672667.05046 -10498010.92661
 91  3 26  0  1 59.9950000  0  4G11G 2G19G 6
  22573201.1244   -5425463.86546  -4227626.35261
  19654284.1794  -23533636.52548 -18337833.67964
  20242869.913    -4695664.778 6  -3582115.18023
  20951876.4764  -15720531.67446 -10535307.94961
 91  3 26  0  2 14.9950000  0  4G11G 2G19G 6
  22577799.468    -5401297.063 6  -4208795.13621
  19649072.5074  -23561022.33548 -18359173.23264
  20244065.765    -4689372.533 6  -3577212.14123
  20942770.6874  -15768383.52046 -10572595.02061
 91  3 26  0  2 29.9950000  0  4G11G 2G19G 6
  22582419.7884   -5377032.01646  -4189887.31661
  19643873.632   -23588345.425 8 -18380463.90324
  20245277.5774   -4683007.26046  -3572252.20663
  20933666.687   -15816223.767 6 -10609873.06221
 91  3 26  0  2 44.9950000  0  4G11G 2G19G 6
  22587054.288    -5352671.790 6  -4170905.34521
  19638685.0854  -23615608.35048 -18401707.70564
  20246501.6874   -4676571.70146  -3567237.49162
  20924566.3434  -15864054.83746 -10647143.93061
 91  3 26  0  2 59.9950000  0  4G11G 2G19G 6
  22591709.718    -5328206.019 6  -4151841.12121
  19633511.1404  -23642800.44048 -18422896.30964
  20247746.1244   -4670055.05146  -3562159.58862
  20915468.679   -15911865.953 6 -10684399.25221
 91  3 26  0  3 14.9950000  0  4G11G 2G19G 6
  22596381.7334   -5303650.31546  -4132706.85461
  19628346.9764  -23669937.19448 -18444041.79763
  20248994.0154   -4663472.60746  -3557030.41862
  20906370.0154  -15959672.41146 -10721650.92461
 91  3 26  0  3 29.9950000  0  4G11G 2G19G 6
  22601073.6554   -5278991.48546  -4113492.24061
  19623195.882   -23697005.101 8 -18465133.63223
  20250264.0154   -4656810.79746  -3551839.40463
  20897275.2884  -16007460.48346 -10758888.30161
 91  3 26  0  3 44.9950000  0  4G11G 2G19G 6
  22605784.593    -5254231.751 6  -4094198.99621
  19618058.3044  -23724006.14748 -18486173.36863
  20251542.9054   -4650071.41346  -3546587.94862
  20888186.288   -16055231.900 6 -10796112.70921
 91  3 26  0  3 59.9950000  0  4G11G 2G19G 6
  22610513.0934   -5229375.59846  -4074830.60361
  19612931.327   -23750944.552 8 -18507164.28623
  20252841.968    -4643258.676 6  -3541279.34422
  20879097.1164  -16102990.66446 -10833327.23761
 91  3 26  0  4 14.9950000  0  4G11G 2G19G 6
  22615265.546    -5204425.735 6  -4055389.19121
  19607816.921   -23777822.638 8 -18528108.19923
  20254149.944    -4636374.820 6  -3535915.30923
  20870010.8904  -16150739.06546 -10870533.70461
 91  3 26  0  4 29.9950000  0  4G11G 2G19G 6
  22620027.640    -5179379.751 6  -4035872.85421
  19602714.030   -23804637.916 8 -18549003.17823
  20255477.265    -4629417.122 6  -3530493.75922
  20860926.4914  -16198474.15946 -10907729.82361
 91  3 26  0  4 44.9950000  0  4G11G 2G19G 6
  22624814.155    -5154237.701 6  -4016281.67921
  19597622.218   -23831389.967 8 -18569848.88423
  20256814.608    -4622385.014 6  -3525014.21623
  20851845.9374  -16246195.45646 -10944915.14061
 91  3 26  0  4 59.9950000  0  4G11G 2G19G 6
  22629618.218    -5129002.090 6  -3996617.57321
  19592544.038   -23858080.897 8 -18590646.95823
  20258167.0304   -4615280.64346  -3519478.37462
  20842767.3194  -16293904.83446 -10982091.22761
 91  3 26  0  5 14.9950000  0  4G11G 2G19G 6
  22634436.249    -5103670.026 6  -3976878.36121
  19587476.554   -23884707.939 8 -18611395.24223
  20259530.3584   -4608100.86146  -3513883.76562
  20833691.4764  -16341599.17446 -11019255.55861
 91  3 26  0  5 29.9950000  0  4G11G 2G19G 6
  22639276.2264   -5078240.51846  -3957063.15461
  19582421.8354  -23911269.73948 -18632092.69363
  20260915.2884   -4600844.36846  -3508229.39262
  20824618.8664  -16389276.96546 -11056407.01761
 91  3 26  0  5 44.9950000  0  4G11G 2G19G 6
  22644132.7574   -5052715.77146  -3937173.76061
  19577379.7334  -23937768.25948 -18652740.82564
  20262306.7024   -4593512.95746  -3502516.64062
  20815547.8354  -16436939.95847 -11093546.94962
 91  3 26  0  5 59.9950000  0  4G11G 2G19G 6
  22649007.8984   -5027097.61946  -3917211.59361
  19572348.2494  -23964204.95548 -18673340.78764
  20263718.7334   -4586107.98746  -3496746.57462
  20806480.851   -16484589.473 6 -11130676.36421
 91  3 26  0  6 14.9950000  0  4G11G 2G19G 6
  22653904.374    -5001385.347 6  -3897176.06621
  19567330.124   -23990578.900 8 -18693891.85924
  20265138.960    -4578628.398 6  -3490918.37222
  20797415.093   -16532224.276 6 -11167794.30321
 91  3 26  0  6 29.9950000  0  4G11G 2G19G 6
  22658812.515    -4975580.986 6  -3877068.78621
  19562322.1484  -24016891.59648 -18714395.20163
  20266584.3904   -4571075.84346  -3485033.30662
  20788354.733   -16579845.769 6 -11204901.89222
 91  3 26  0  6 44.9950000  0  4G11G 2G19G 6
  22663738.773    -4949685.050 5  -3856890.17121
  19557326.483   -24043143.529 8 -18734851.20424
  20268027.335    -4563450.639 6  -3479091.63522
  20779296.3194  -16627454.08846 -11241999.17661
 91  3 26  0  6 59.9950000  0  4G11G 2G19G 6
  22668684.5934   -4923692.84645  -3836636.53561
  19552344.8824  -24069329.73848 -18755255.98763
  20269497.335    -4555747.587 6  -3473089.30622
  20770238.546   -16675044.130 6 -11279082.25222
 91  3 26  0  7 14.9950000  0  4G11G 2G19G 6
  22673649.944    -4897604.937 5  -3816308.32921
  19547373.9294  -24095450.39748 -18775609.70163
  20270972.288    -4547966.850 6  -3467026.44322
  20761186.5234  -16722615.81447 -11316150.98062
 91  3 26  0  7 29.9950000  0  4G11G 2G19G 6
  22678626.265    -4871430.576 5  -3795912.74121
  19542413.6164  -24121514.61748 -18795919.44863
  20272469.976    -4540117.419 6  -3460910.05722
  20752133.5464  -16770177.95246 -11353212.29561
 91  3 26  0  7 44.9950000  0  4G11G 2G19G 6
  22683628.648    -4845168.225 5  -3775448.58721
  19537464.4994  -24147520.61648 -18816183.83663
  20273974.413    -4532197.187 6  -3454738.49622
  20743085.9054  -16817728.52747 -11390264.56162
 91  3 26  0  7 59.9950000  0  4G11G 2G19G 6
  22688640.2184   -4818813.73045  -3754912.62661
  19532527.9054  -24173463.74448 -18836399.22863
  20275502.483    -4524201.480 6  -3448508.12022
  20734039.2494  -16865262.84446 -11427304.19162
 91  3 26  0  8 14.9950000  0  4G11G 2G19G 6
  22693673.343    -4792369.557 5  -3734306.78721
  19527602.8984  -24199346.25748 -18856567.39263
  20277032.296    -4516132.479 6  -3442220.64022
  20724998.0154  -16912782.97747 -11464332.76062
 91  3 26  0  8 29.9950000  0  4G11G 2G19G 6
  22698721.4054   -4765830.79045  -3713627.20861
  19522689.6404  -24225162.99348 -18876684.29963
  20278586.069    -4507984.980 6  -3435871.98522
  20715957.476   -16960283.498 6 -11501346.05622
 91  3 26  0  8 44.9950000  0  4G11G 2G19G 6
  22703792.007    -4739201.325 6  -3692877.01521
  19517788.187   -24250917.539 8 -18896752.75723
  20280147.327    -4499762.499 6  -3429464.90322
  20706922.640   -17007767.905 6 -11538346.75822
 91  3 26  0  8 59.9950000  0  4G11G 2G19G 6
  22708876.9604   -4712480.50646  -3672055.60361
  19512899.702   -24276608.887 8 -18916771.96323
  20281730.546    -4491463.979 6  -3422998.57422
  20697891.1244  -17055234.83446 -11575333.90262
 91  3 26  0  9 14.9950000  0  4G11G 2G19G 6
  22713980.085    -4685677.013 5  -3651169.74421
  19508021.765   -24302245.476 8 -18936748.50624
  20283318.616    -4483097.622 6  -3416479.37322
  20688859.5544  -17102692.44947 -11612313.73662
 91  3 26  0  9 29.9950000  0  4G11G 2G19G 6
  22719096.7654   -4658785.79446  -3630215.57061
  19503153.991   -24327821.865 8 -18956678.14624
  20284927.9374   -4474658.01646  -3409903.09562
  20679829.8514  -17150135.20446 -11649282.02962
 91  3 26  0  9 44.9950000  0  4G11G 2G19G 6
  22724229.960    -4631799.570 5  -3609187.36321
  19498300.749   -24353330.780 8 -18976555.20624
  20286546.7884   -4466137.47846  -3403263.74862
  20670808.898   -17197555.479 7 -11686232.77322
 91  3 26  0  9 59.9950000  0  4G11G 2G19G 6
  22729385.273    -4604723.903 5  -3588089.43021
  19493457.694   -24378777.469 8 -18996383.77924
  20288184.8664   -4457541.29446  -3396565.45862
  20661784.429   -17244958.210 6 -11723169.88922
 91  3 26  0 10 14.9950000  0  4G11G 2G19G 6
  22734548.843    -4577563.393 5  -3566925.40821
  19488626.390   -24404166.229 8 -19016167.20424
  20289831.280    -4448873.661 6  -3389811.48122
  20652768.1404  -17292347.51646 -11760096.53062
 91  3 26  0 10 29.9950000  0  4G11G 2G19G 6
  22739738.4684   -4550318.47446  -3545695.59361
  19483806.085   -24429497.126 8 -19035905.55124
  20291497.8984   -4440134.62246  -3383001.87262
  20643752.7884  -17339723.30146 -11797012.63462
 91  3 26  0 10 44.9950000  0  4G11G 2G19G 6
  22744938.921    -4522988.429 5  -3524399.51821
  19478996.491   -24454769.029 8 -19055597.92924
  20293172.741    -4431323.016 6  -3376135.70422
  20634741.3984  -17387084.21746 -11833917.14362
 91  3 26  0 10 59.9950000  0  4G11G 2G19G 6
  22750153.0624   -4495573.91746  -3503037.56161
  19474198.663   -24479982.557 8 -19075244.81024
  20294863.2884   -4422439.36146  -3369213.40562
  20625730.483   -17434430.689 7 -11870810.37322
 91  3 26  0 11 14.9950000  0  4G11G 2G19G 6
  22755388.569    -4468068.068 6  -3481604.44221
  19469413.632   -24505130.493 8 -19094840.57824
  20296566.632    -4413476.231 6  -3362229.16722
  20616724.1554  -17481755.17347 -11907686.50862
 91  3 26  0 11 29.9950000  0  4G11G 2G19G 6
  22760638.249    -4440477.140 6  -3460104.98621
  19464639.8824  -24530218.82448 -19114389.90164
  20298288.780    -4404439.621 6  -3355187.67322
  20607722.7734  -17529063.53347 -11944550.05162
 91  3 26  0 11 44.9950000  0  4G11G 2G19G 6
  22765904.8744   -4412797.97145  -3438536.80461
  19459877.5694  -24555244.19248 -19133890.15464
  20300021.569    -4395325.735 6  -3348085.96322
  20598721.405   -17576352.057 6 -11981398.17622
 91  3 26  0 11 59.9950000  0  4G11G 2G19G 6
  22771186.507    -4385030.435 5  -3416899.71021
  19455127.069   -24580206.165 8 -19153341.01924
  20301771.804    -4386134.303 6  -3340923.82622
  20589729.3514  -17623620.17547 -12018230.34962
 91  3 26  0 12 14.9950000  0  4G11G 2G19G 6
  22776488.8434   -4357177.83445  -3395196.39961
  19450388.4134  -24605107.80548 -19172744.86564
  20303533.108    -4376868.104 6  -3333703.43522
  20580735.1634  -17670870.61346 -12055048.80062
 91  3 26  0 12 29.9950000  0  4G11G 2G19G 6
  22781805.2574   -4329236.21345  -3373423.67861
  19445661.913   -24629944.635 8 -19192098.22024
  20305314.390    -4367522.799 6  -3326421.39922
  20571750.9134  -17718098.77747 -12091849.90662
 91  3 26  0 12 44.9940000  0  4G11G 2G19G 6
  22787139.4634   -4301208.78045  -3351584.15661
  19440949.533   -24654716.113 8 -19211400.65224
  20307103.9244   -4358099.99146  -3319078.98262
  20562765.2444  -17765302.41646 -12128631.88162
 91  3 26  0 12 59.9940000  0  4G11G 2G19G 6
  22792489.7134   -4273097.06645  -3329678.94461
  19436245.721   -24679430.680 8 -19230658.74024
  20308913.8224   -4348603.23446  -3311678.94062
  20553787.1974  -17812492.45347 -12165403.24362
 91  3 26  0 13 14.9940000  0  4G11G 2G19G 6
  22797858.0724   -4244899.40346  -3307706.73161
  19431554.4084  -24704082.83348 -19249868.18464
  20310733.0884   -4339029.44646  -3304218.87162
  20544810.8224  -17859661.89346 -12202158.57662
 91  3 26  0 13 29.9940000  0  4G11G 2G19G 6
  22803236.3774   -4216611.98745  -3285664.59861
  19426875.8074  -24728668.49348 -19269025.80764
  20312576.1904   -4329374.31546  -3296695.42162
  20535839.6354  -17906806.37147 -12238894.45062
 91  3 26  0 13 44.9940000  0  4G11G 2G19G 6
  22808636.0334   -4188237.50545  -3263554.60461
  19422209.697   -24753189.915 8 -19288133.38624
  20314422.1354   -4319640.25146  -3289110.46262
  20526875.111   -17953927.993 7 -12275612.53422
 91  3 26  0 13 59.9940000  0  4G11G 2G19G 6
  22814055.244    -4159776.300 5  -3241377.01821
  19417556.338   -24777647.418 8 -19307191.16624
  20316292.7994   -4309827.13646  -3281463.90562
  20517910.525   -18001026.603 7 -12312312.66122
 91  3 26  0 14 14.9940000  0  4G11G 2G19G 6
  22819484.6044   -4131232.26745  -3219134.88461
  19412912.111   -24802044.272 8 -19326201.68524
  20318174.1274   -4299938.40146  -3273758.42762
  20508952.596   -18048105.496 7 -12348997.44822
 91  3 26  0 14 29.9940000  0  4G11G 2G19G 6
  22824934.6114   -4102599.85645  -3196823.86261
  19408283.643   -24826374.643 8 -19345160.39624
  20320071.5104   -4289968.16646  -3265989.44662
  20499997.2444  -18095158.65446 -12385662.15662
 91  3 26  0 14 44.9940000  0  4G11G 2G19G 6
  22830400.666    -4073881.813 5  -3174446.14821
  19403665.736   -24850641.083 8 -19364069.28624
  20321982.6434   -4279918.78946  -3258158.79562
  20491048.8224  -18142188.33247 -12422308.57162
 91  3 26  0 14 59.9940000  0  4G11G 2G19G 6
  22835877.635    -4045082.993 5  -3152005.46721
  19399058.783   -24874848.421 8 -19382932.13024
  20323909.1824   -4269794.89046  -3250270.07662
  20482100.619   -18189198.855 6 -12458940.04922
 91  3 26  0 15 14.9940000  0  5G15G11G 2G19G 6
  22663328.2134     -44711.02945
  22841375.104    -4016196.575 5  -3129496.53721
  19394464.8154  -24898989.39648 -19401743.25464
  20325851.5184   -4259589.30146  -3242317.70662
  20473160.9474  -18236182.95947 -12495550.93762
 91  3 26  0 15 29.9940000  0  5G15G11G 2G19G 6
  22654836.385      -89344.256 5
  22846888.143    -3987224.414 5  -3106920.81321
  19389883.8774  -24923065.50548 -19420503.81764
  20327812.6744   -4249303.41846  -3234302.76562
  20464224.3074  -18283141.79747 -12532142.15062
 91  3 26  0 15 44.9940000  0  5G15G11G 2G19G 6
  22646356.229     -133903.503 5
  22852415.627    -3958170.989 5  -3084281.81621
  19385313.565   -24947080.964 8 -19439217.15424
  20329779.494    -4238941.212 6  -3226228.36222
  20455293.8154  -18330079.48047 -12568716.89662
 91  3 26  0 15 59.9940000  0  5G15G11G 2G19G 6
  22637892.7214    -178390.44045        -0.40271
  22857962.182    -3929038.963 5  -3061581.50521
  19380754.549   -24971038.250 8 -19457885.14624
  20331769.2834   -4228505.03746  -3218096.31762
  20446364.135   -18376998.055 7 -12605276.74922
 91  3 26  0 16 14.9940000  0  5G15G11G 2G19G 6
  22629440.5104    -222797.02445    -34602.86361
  22863521.377    -3899820.807 5  -3038814.11521
  19376207.9634  -24994929.47548 -19476501.65464
  20333769.471    -4217986.967 6  -3209900.46622
  20437441.3074  -18423889.39447 -12641815.35962
 91  3 26  0 16 29.9940000  0  5G15G11G 2G19G 6
  22621004.744     -267127.935 5    -69146.34121
  22869095.291    -3870522.046 5  -3015983.88121
  19371674.533   -25018759.882 8 -19495070.78224
  20335785.010    -4207392.276 6  -3201644.91022
  20428522.1114  -18470758.69347 -12678336.78862
 91  3 26  0 16 44.9940000  0  5G15G11G 2G19G 6
  22612584.900     -311378.141 5   -103626.90621
  22874690.260    -3841138.299 5  -2993087.46621
  19367150.260   -25042524.839 8 -19513588.90424
  20337817.846    -4196716.058 6  -3193325.82622
  20419607.9404  -18517600.84747 -12714837.08062
 91  3 26  0 16 59.9940000  0  5G15G11G 2G19G 6
  22604177.0104    -355551.68745   -138047.75161
  22880296.4404   -3811674.04945  -2970128.28061
  19362639.1274  -25066228.63348 -19532059.36564
  20339865.291    -4185962.661 6  -3184946.60322
  20410698.596   -18564419.923 7 -12751319.38322
 91  3 26  0 17 14.9940000  0  5G15G11G 2G19G 6
  22595788.7294    -399641.15245   -172403.05661
  22885919.018    -3782122.829 5  -2947101.32121
  19358142.0104  -25089864.36348 -19550476.78064
  20341923.877    -4175125.045 6  -3176501.76422
  20401795.8544  -18611208.86847 -12787778.22162
 91  3 26  0 17 29.9940000  0  5G15G11G 2G19G 6
  22587411.440     -443653.668 5   -206698.42121
  22891556.588    -3752492.401 5  -2924012.61321
  19353655.8224  -25113439.42548 -19568846.92464
  20344002.768    -4164210.699 6  -3167997.12722
  20392896.2994  -18657974.86547 -12824219.16962
 91  3 26  0 17 44.9940000  0  4G15G 2G19G 6
  22579050.291     -487589.029 5   -240933.62221
  19349180.572   -25136954.121 7 -19587170.01824
  20346092.549    -4153219.808 6  -3159432.83922
  20384000.7604  -18704718.15047 -12860642.41762
 91  3 26  0 17 59.9940000  0  4G15G 2G19G 6
  22570706.1434    -531444.05945   -275106.24761
  19344719.1114  -25160405.94647 -19605444.13364
  20348203.674    -4142149.544 6  -3150806.71122
  20375110.7214  -18751435.67247 -12897045.59862
 91  3 26  0 18 14.9940000  0  4G15G 2G19G 6
  22562377.244     -575215.055 5   -309213.37921
  19340268.6824  -25183791.78347 -19623666.83364
  20350321.932    -4130996.759 6  -3142116.27122
  20366226.143   -18798124.154 7 -12933426.15222
 91  3 26  0 18 29.9940000  0  4G15G 2G19G 6
  22554059.893     -618913.157 5   -343263.68421
  19335828.7214  -25207123.07047 -19641847.01864
  20352461.963    -4119772.892 6  -3133370.45322
  20357345.8694  -18844794.66547 -12969792.69762
 91  3 26  0 18 44.9940000  0  4G15G 2G19G 6
  22545761.8614    -662528.67145   -377249.66561
  19331401.2134  -25230390.37247 -19659977.34564
  20354608.025    -4108468.384 6  -3124561.78822
  20348468.9244  -18891437.56147 -13006137.72062
 91  3 26  0 18 59.9940000  0  4G15G 2G19G 6
  22537474.1584    -706061.73945   -411171.38161
  19326984.7914  -25253594.09547 -19678058.12964
  20356781.682    -4097083.623 6  -3115690.59722
  20339599.7754  -18938053.23347 -13042461.53262
 91  3 26  0 19 14.9940000  0  4G15G 2G19G 6
  22529208.6974    -749517.10545   -445032.55461
  19322581.2754  -25276739.38847 -19696093.39164
  20358957.268    -4085623.533 6  -3106760.70322
  20330731.6664  -18984646.44047 -13078767.83762
 91  3 26  0 19 29.9940000  0  4G15G 2G19G 6
  22520953.510     -792892.306 5   -478831.25021
  19318188.0574  -25299824.47247 -19714081.73664
  20361155.127    -4074086.364 6  -3097770.75222
  20321870.252   -19031215.164 7 -13115055.04622
 91  3 26  0 19 44.9940000  0  4G15G 2G19G 6
  22512714.1504    -836193.46745   -512572.25061
  19313804.369   -25322855.788 7 -19732028.17124
  20363361.2054   -4062478.47146  -3088725.67762
  20313011.854   -19077765.521 7 -13151327.97022
 91  3 26  0 19 59.9940000  0  4G15G 2G19G 6
  22504490.025     -879410.619 5   -546247.80421
  19309434.330   -25345823.940 7 -19749925.39024
  20365587.3074   -4050790.43646  -3079618.16262
  20304158.8544  -19124287.90447 -13187579.07662
 91  3 26  0 20 14.9940000  0  4G15G 2G19G 6
  22496279.088     -922550.545 5   -579863.16721
  19305073.338   -25368736.257 7 -19767779.10024
  20367822.0724   -4039029.38746  -3070453.74962
  20295309.2444  -19170789.23047 -13223813.78862
 91  3 26  0 20 29.9940000  0  4G15G 2G19G 6
  22488083.7134    -965610.32745   -613416.09661
  19300725.033   -25391590.075 7 -19785587.22224
  20370078.229    -4027192.556 6  -3061230.28522
  20286466.4404  -19217266.69447 -13260029.89362
 91  3 26  0 20 44.9940000  0  4G15G 2G19G 6
  22479906.916    -1008591.381 5   -646907.70221
  19296387.182   -25414387.242 7 -19803351.19324
  20372341.3544   -4015281.71746  -3051949.14562
  20277626.354   -19263721.911 7 -13296228.65422
 91  3 26  0 20 59.9940000  0  4G15G 2G19G 6
  22471740.650    -1051489.735 5   -680334.84421
  19292059.924   -25437124.156 7 -19821068.22124
  20374627.5414   -4003293.28846  -3042607.54862
  20268788.604   -19310150.975 7 -13332407.04722
 91  3 26  0 21 14.9940000  0  4G15G 2G19G 6
  22463593.9554   -1094304.90745   -713697.16461
  19287744.963   -25459801.088 7 -19838738.51524
  20376920.0884   -3991227.26946  -3033205.48562
  20259960.518   -19356553.841 7 -13368565.00822
 91  3 26  0 21 29.9940000  0  4G15G 2G19G 6
  22455462.158    -1137041.603 5   -746998.33821
  19283439.799   -25482422.999 7 -19856365.92924
  20379233.815    -3979088.588 6  -3023746.79822
  20251133.354   -19402935.351 7 -13404706.36922
 91  3 26  0 21 44.9940000  0  4G15G 2G19G 6
  22447346.768    -1179700.997 5   -780239.26721
  19279144.463   -25504991.556 7 -19873951.76924
  20381553.8224   -3966878.82346  -3014232.72162
  20242310.3304  -19449296.78147 -13440832.06762
 91  3 26  0 21 59.9940000  0  4G15G 2G19G 6
  22439238.697    -1222286.050 5   -813422.30021
  19274859.971   -25527509.989 7 -19891498.55424
  20383891.8464   -3954601.28746  -3004665.84162
  20233493.057   -19495641.203 7 -13476944.52522
 91  3 26  0 22 14.9940000  0  4G15G 2G19G 6
  22431153.315    -1264791.232 5   -846543.09021
  19270585.361   -25549973.204 7 -19909002.31424
  20386239.2214   -3942250.82246  -2995042.13562
  20224677.432   -19541963.384 7 -13513039.64622
 91  3 26  0 22 29.9940000  0  4G15G 2G19G 6
  22423079.768    -1307213.613 5   -879599.37021
  19266322.1504  -25572378.72447 -19926461.12564
  20388607.604    -3929824.964 6  -2985359.67922
  20215866.768   -19588260.443 7 -13549115.19422
 91  3 26  0 22 44.9940000  0  4G15G 2G19G 6
  22415023.9004   -1349557.31245   -912594.30061
  19262067.744   -25594730.995 7 -19943878.43124
  20390982.3694   -3917328.04446  -2975621.85062
  20207062.166   -19634536.734 7 -13585174.55522
 91  3 26  0 22 59.9940000  0  4G15G 2G19G 6
  22406980.838    -1391819.689 5   -945525.86221
  19257824.588   -25617027.963 7 -19961252.64524
  20393377.9474   -3904757.63546  -2965826.75962
  20198259.393   -19680789.681 7 -13621215.72122
 91  3 26  0 23 14.9940000  0  4G15G 2G19G 6
  22398950.8854   -1434004.73445   -978397.15661
  19253591.346   -25639273.824 7 -19978587.03224
  20395779.8694   -3892118.09346  -2955977.79462
  20189460.447   -19727023.328 7 -13657241.82022
 91  3 26  0 23 29.9940000  0  4G15G 2G19G 6
  22390941.846    -1476112.675 5  -1011208.38521
  19249367.986   -25661469.430 7 -19995882.25924
  20398202.9944   -3879409.97846  -2946075.40262
  20180667.955   -19773238.185 7 -13693253.29422
 91  3 26  0 23 44.9940000  0  4G15G 2G19G 6
  22382938.174    -1518141.533 5  -1043958.01121
  19245153.900   -25683613.043 7 -20013136.97824
  20400628.5184   -3866631.63446  -2936118.27762
  20171874.9474  -19819432.31947 -13729248.59962
 91  3 26  0 23 59.9940000  0  4G15G 2G19G 6
  22374953.424    -1560093.013 5  -1076647.32021
  19240949.8154  -25705706.99947 -20030353.00364
  20403075.4084   -3853785.39046  -2926108.25062
  20163089.9864  -19865607.82047 -13765229.41862
 91  3 26  0 24 14.9940000  0  4G15G 2G19G 6
  22366990.0254   -1601966.03345  -1109275.46261
  19236754.9554  -25727750.80147 -20047529.95364
  20405533.0574   -3840870.54146  -2916044.75762
  20154305.760   -19911763.708 7 -13801194.94022
 91  3 26  0 24 29.9940000  0  4G15G 2G19G 6
  22359034.4864   -1643761.81945  -1141843.43461
  19232569.283   -25749745.906 7 -20064668.94924
  20408004.8694   -3827888.65946  -2905929.04362
  20145525.315   -19957901.440 7 -13837146.32422
 91  3 26  0 24 44.9940000  0  4G15G 2G19G 6
  22351095.236    -1685477.569 5  -1174349.06621
  19228394.6354  -25771689.96447 -20081768.17364
  20410485.5804   -3814837.42446  -2895759.27562
  20136750.986   -20004018.381 7 -13873081.50622
 91  3 26  0 24 59.9940000  0  4G15G 2G19G 6
  22343173.4244   -1727113.46345  -1206792.43961
  19224227.6974  -25793583.48347 -20098828.01864
  20412986.0724   -3801717.17046  -2885535.74162
  20127977.963   -20050114.789 7 -13909000.67422
 91  3 26  0 25 14.9940000  0  4G15G 2G19G 6
  22335266.190    -1768668.024 5  -1239172.42421
  19220071.330   -25815425.355 7 -20115847.61624
  20415492.7444   -3788526.59146  -2875257.40062
  20119210.807   -20096189.277 7 -13944902.79522
 91  3 26  0 25 29.9940000  0  4G15G 2G19G 6
  22327371.783    -1810143.706 5  -1271490.97321
  19215923.8694  -25837218.38847 -20132829.16064
  20418020.2754   -3775268.33846  -2864926.33462
  20110448.010   -20142244.349 7 -13980789.75222
 91  3 26  0 25 44.9940000  0  4G15G 2G19G 6
  22319494.666    -1851535.036 5  -1303743.78421
  19211786.8304  -25858957.69947 -20149768.84564
  20420552.0574   -3761937.49346  -2854538.70062
  20101687.400   -20188274.810 7 -14016657.54322
 91  3 26  0 25 59.9940000  0  4G15G 2G19G 6
  22311638.0024   -1892837.21445  -1335927.14961
  19207662.4634  -25880638.77748 -20166663.14964
  20423109.0884   -3748529.68246  -2844091.09562
  20092933.1434  -20234275.98547 -14052502.52762
 91  3 26  0 26 14.9940000  0  4G15G 2G19G 6
  22303794.6434   -1934055.59145  -1368045.21661
  19203546.385   -25902267.813 8 -20183516.90724
  20425670.5724   -3735050.76846  -2833588.08362
  20084184.330   -20280253.647 7 -14088329.16322
 91  3 26  0 26 29.9940000  0  4G15G 2G19G 6
  22295966.8304   -1975199.74745  -1400105.47461
  19199437.5964  -25923854.35948 -20200337.54764
  20428248.0804   -3721510.47346  -2823037.23462
  20075437.822   -20326217.263 7 -14124144.86422
 91  3 26  0 26 44.9940000  0  4G15G 2G19G 6
  22288152.479    -2016264.260 5  -1432103.66121
  19195338.2294  -25945393.67048 -20217121.39164
  20430834.924    -3707903.696 6  -2812434.59222
  20066693.6744  -20372161.46347 -14159945.44962
 91  3 26  0 26 59.9940000  0  4G15G 2G19G 6
  22280353.721    -2057241.006 5  -1464033.47721
  19191250.6274  -25966877.76748 -20233862.20464
  20433440.6194   -3694222.58246  -2801774.02162
  20057957.658   -20418078.226 7 -14195724.63122
 91  3 26  0 27 14.9940000  0  4G15G 2G19G 6
  22272567.627    -2098137.243 5  -1495900.56221
  19187171.6434  -25988314.39248 -20250566.03264
  20436055.5414   -3680474.94646  -2791061.61562
  20049224.7684  -20463975.06247 -14231488.30862
 91  3 26  0 27 29.9940000  0  4G15G 2G19G 6
  22264807.018    -2138951.785 5  -1527703.98321
  19183100.6274  -26009702.72247 -20267232.22364
  20438684.7444   -3666660.02046  -2780296.77462
  20040493.7684  -20509850.95647 -14267235.66962
 91  3 26  0 27 44.9940000  0  4G15G 2G19G 6
  22257051.6824   -2179680.23945  -1559440.34061
  19179039.9084  -26031038.58347 -20283857.53264
  20441327.8074   -3652773.39746  -2769476.06562
  20031767.9244  -20555701.41247 -14302963.20362
 91  3 26  0 27 59.9940000  0  5G15G13G 2G19G 6
  22249318.2604   -2220326.70545  -1591112.79161
  22272183.7134     -75759.19944
  19174990.1504  -26052326.71748 -20300445.64964
  20443985.3154   -3638819.73046  -2758603.10562
  20023046.588   -20601530.887 7 -14338674.37922
 91  3 26  0 28 14.9940000  0  5G15G13G 2G19G 6
  22241600.9474   -2260890.73245  -1622721.03361
  22257771.5884    -151493.99944
  19170948.0654  -26073567.28148 -20316996.69964
  20446650.1114   -3624798.88946  -2747677.80862
  20014329.580   -20647339.357 7 -14374369.21022
 91  3 26  0 28 29.9940000  0  5G15G13G 2G19G 6
  22233894.2524   -2301367.65545  -1654261.37261
  22243366.5334    -227199.22544
  19166916.4634  -26094755.92948 -20333507.29664
  20449333.916    -3610706.625 6  -2736696.84722
  20005617.924   -20693122.053 7 -14410043.93322
 91  3 26  0 28 44.9940000  0  5G15G13G 2G19G 6
  22226210.0964   -2341764.72245  -1685739.47661
  22228961.1744    -302882.02944
  19162891.4634  -26115900.42248 -20349983.48864
  20452024.6434   -3596550.60846  -2725666.21262
  19996908.4474  -20738886.43747 -14445704.39562
 91  3 26  0 28 59.9940000  0  5G15G13G 2G19G 6
  22218537.010    -2382077.783 5  -1717152.11721
  22214563.3614    -378538.13344
  19158878.2134  -26136996.80648 -20366422.19464
  20454731.525    -3582326.907 6  -2714582.82822
  19988205.3544  -20784628.22247 -14481347.25663
 91  3 26  0 29 14.9940000  0  5G15G13G 2G19G 6
  22210882.0414   -2422306.88345  -1748499.31161
  22200170.5494    -454167.45044
  19154871.5254  -26158045.63048 -20382823.84164
  20457450.713    -3568036.036 6  -2703447.10622
  19979504.9714  -20830347.80847 -14516972.81663
 91  3 26  0 29 29.9940000  0  5G15G13G 2G19G 6
  22203242.6904   -2462447.62245  -1779777.69861
  22185788.8544    -529765.71044
  19150876.9794  -26179042.96948 -20399185.36864
  20460185.525    -3553674.103 6  -2692256.01522
  19970808.3614  -20876041.07147 -14552577.86262
 91  3 26  0 29 44.9940000  0  5G15G13G 2G19G 6
  22195620.775    -2502503.752 5  -1810990.13521
  22171404.6434    -605336.46945        -0.03771
  19146890.4794  -26199992.69748 -20415509.79264
  20462929.041    -3539244.817 6  -2681012.43922
  19962118.2294  -20921711.49047 -14588165.13662
 91  3 26  0 29 59.9940000  0  5G15G13G 2G19G 6
  22188014.377    -2542476.425 5  -1842137.52321
  22157029.8384    -680880.68145    -58865.08361
  19142911.8694  -26220896.40248 -20431798.35164
  20465687.9634   -3524749.61946  -2669717.51462
  19953431.002   -20967360.471 7 -14623735.69122
 91  3 26  0 30 14.9940000  0  5G15G13G 2G19G 6
  22180423.1974   -2582363.04445  -1873217.86261
  22142658.9714    -756396.09245   -117707.75561
  19138943.111   -26241752.246 8 -20448049.61224
  20468460.2364   -3510186.76746  -2658369.85962
  19944747.2294  -21012985.68947 -14659287.72762
 91  3 26  0 30 29.9940000  0  5G15G13G 2G19G 6
  22172850.8304   -2622163.88345  -1904231.35361
  22128294.8154    -831882.88745   -176528.08461
  19134983.6974  -26262560.80548 -20464264.03764
  20471246.5184   -3495556.65746  -2646969.80462
  19936070.440   -21058587.543 7 -14694821.55122
 91  3 26  0 30 44.9940000  0  5G15G13G 2G19G 6
  22165291.494    -2661878.759 5  -1935177.85121
  22113933.4324    -907340.78445   -235325.91661
  19131032.830   -26283322.057 7 -20480441.58724
  20474041.283    -3480859.531 6  -2635517.51822
  19927397.3544  -21104165.77147 -14730336.96762
 91  3 26  0 30 59.9940000  0  5G15G13G 2G19G 6
  22157750.4634   -2701507.29645  -1966057.07861
  22099581.322     -982769.541 5   -294101.04321
  19127090.8154  -26304036.27048 -20496582.49264
  20476854.0884   -3466095.34646  -2624012.99162
  19918729.2054  -21149720.39847 -14765833.98263
 91  3 26  0 31 14.9940000  0  5G15G13G 2G19G 6
  22150226.8464   -2741042.85945  -1996863.86561
  22085234.346    -1058162.146 5   -352848.00521
  19123160.002   -26324696.979 8 -20512681.70324
  20479672.2294   -3451257.38646  -2612450.96962
  19910065.713   -21195244.678 7 -14801307.36923
 91  3 26  0 31 29.9940000  0  5G15G13G 2G19G 6
  22142719.385    -2780490.705 5  -2027602.29921
  22070892.135    -1133524.375 5   -411571.30821
  19119236.5184  -26345310.33248 -20528744.01664
  20482516.533    -3436351.822 6  -2600836.26922
  19901408.5494  -21240744.34347 -14836761.56263
 91  3 26  0 31 44.9940000  0  5G15G13G 2G19G 6
  22135229.955    -2819853.330 5  -2058274.34721
  22056556.1904   -1208858.06545   -470272.39561
  19115323.143   -26365878.648 8 -20544771.23124
  20485359.4164   -3421381.11146  -2589170.81362
  19892752.6584  -21286221.54747 -14872198.24863
 91  3 26  0 31 59.9940000  0  5G15G13G 2G19G 6
  22127761.307    -2859122.476 5  -2088873.54921
  22042225.932    -1284155.101 5   -528944.87921
  19111418.963   -26386394.226 7 -20560757.34924
  20488223.4244   -3406337.61946  -2577448.64062
  19884105.1274  -21331668.35247 -14907611.25762
 91  3 26  0 32 14.9940000  0  5G15G13G 2G19G 6
  22120300.346    -2898308.870 5  -2119408.25921
  22027901.8384   -1359426.09645   -587597.09861
  19107521.971   -26406868.108 8 -20576710.97524
  20491096.5964   -3391232.23646  -2565678.24062
  19875460.229   -21377095.425 7 -14943008.89922
 91  3 26  0 32 29.9940000  0  5G15G13G 2G19G 6
  22112861.096    -2937406.901 5  -2149874.12621
  22013584.994    -1434665.278 5   -646224.52421
  19103635.971   -26427295.269 8 -20592628.19524
  20493986.4474   -3376059.71346  -2553855.52762
  19866820.346   -21422497.464 7 -14978387.01722
 91  3 26  0 32 44.9940000  0  5G15G13G 2G19G 6
  22105439.3934   -2976418.21545  -2180272.43061
  21999274.268    -1509874.356 5   -704828.52821
  19099755.682   -26447677.704 8 -20608510.56624
  20496883.6664   -3360822.04946  -2541982.06062
  19858185.3614  -21467876.07847 -15013746.88962
 91  3 26  0 32 59.9940000  0  5G15G13G 2G19G 6
  22098028.4404   -3015342.07545  -2210602.59061
  21984966.744    -1585052.675 5   -763408.51721
  19095887.5414  -26468014.97548 -20624357.73364
  20499797.4004   -3345518.89446  -2530057.55262
  19849554.7754  -21513230.69347 -15049088.06262
 91  3 26  0 33 14.9940000  0  5G15G13G 2G19G 6
  22090640.744    -3054170.248 5  -2240858.20521
  21970667.2444   -1660191.82145   -821958.01161
  19092027.455   -26488299.244 7 -20640163.60024
  20502719.4244   -3330142.09846  -2518075.66762
  19840930.705   -21558553.068 7 -15084404.09523
 91  3 26  0 33 29.9940000  0  5G15G13G 2G19G 6
  22083269.635    -3092910.640 5  -2271045.40521
  21956377.5884   -1735299.65145   -880483.14861
  19088175.635   -26508538.848 7 -20655934.67224
  20505661.5024   -3314700.01946  -2506042.91362
  19832310.565   -21603851.370 7 -15119701.36923
 91  3 26  0 33 44.9940000  0  5G15G13G 2G19G 6
  22075918.2604   -3131557.77945  -2301159.94261
  21942089.080    -1810370.616 5   -938979.49021
  19084333.127   -26528728.709 8 -20671666.98124
  20508610.7364   -3299187.70746  -2493955.42362
  19823695.8074  -21649120.20547 -15154975.67263
 91  3 26  0 33 59.9940000  0  5G15G13G 2G19G 6
  22068577.096    -3170118.801 5  -2331207.37321
  21927810.9004   -1885412.19545   -997452.95361
  19080499.557   -26548876.651 8 -20687366.63024
  20511578.9794   -3283612.90346  -2481819.24562
  19815085.229   -21694367.187 7 -15190232.94023
 91  3 26  0 34 14.9940000  0  5G15G13G 2G19G 6
  22061254.986    -3208592.617 5  -2361186.83621
  21913532.994    -1960422.918 5  -1055902.38421
  19076673.275   -26568981.631 8 -20703032.79824
  20514551.1824   -3267974.58546  -2469633.57862
  19806479.2214  -21739590.99047 -15225472.17163
 91  3 26  0 34 29.9940000  0  5G15G13G 2G19G 6
  22053952.424    -3246966.594 5  -2391088.53621
  21899266.1744   -2035390.07445  -1114317.86661
  19072858.447   -26589031.393 8 -20718655.94224
  20517545.7364   -3252260.51746  -2457388.88662
  19797880.479   -21784779.072 7 -15260683.55623
 91  3 26  0 34 44.9940000  0  5G15G13G 2G19G 6
  22046668.510    -3285251.808 5  -2420921.05021
  21885005.3074   -2110324.70745  -1172708.00361
  19069050.322   -26609037.394 8 -20734244.98324
  20520545.0724   -3236481.85846  -2445093.85462
  19789286.3384  -21829942.43547 -15295875.68563
 91  3 26  0 34 59.9940000  0  5G15G13G 2G19G 6
  22039399.0414   -3323446.18645  -2450682.81061
  21870754.963    -2185224.466 5  -1231070.99621
  19065252.5254  -26628997.93347 -20749798.61164
  20523561.6974   -3220637.10846  -2432747.32962
  19780695.7914  -21875079.30847 -15331047.17663
 91  3 26  0 35 14.9940000  0  5G15G13G 2G19G 6
  22032147.3774   -3361551.34445  -2480375.04661
  21856507.9404   -2260091.01145  -1289408.10361
  19061461.682   -26648915.172 7 -20765318.49524
  20526587.8544   -3204728.12246  -2420350.74462
  19772111.799   -21920191.348 7 -15366199.30423
 91  3 26  0 35 29.9940000  0  5G15G13G 2G19G 6
  22024911.768    -3399565.513 5  -2509996.34721
  21842268.033    -2334922.664 5  -1347718.00621
  19057680.736   -26668787.667 8 -20780803.50724
  20529629.7754   -3188753.52146  -2407903.03762
  19763532.885   -21965276.818 7 -15401330.72723
 91  3 26  0 35 44.9940000  0  5G15G13G 2G19G 6
  22017697.315    -3437483.208 5  -2539542.47821
  21828035.8544   -2409713.76445  -1405996.37661
  19053908.432   -26688610.314 7 -20796249.68724
  20532679.5574   -3172708.20846  -2395400.22762
  19754958.3614  -22010330.57347 -15436437.45063
 91  3 26  0 35 59.9940000  0  5G15G13G 2G19G 6
  22010500.5024   -3475304.52945  -2569013.52561
  21813809.1664   -2484464.45345  -1464243.18561
  19050146.033   -26708383.700 8 -20811657.46824
  20535748.5184   -3156592.77746  -2382842.78562
  19746390.744   -22055352.682 7 -15471519.50423
 91  3 26  0 36 14.9940000  0  5G15G13G 2G19G 6
  22003319.2604   -3513031.11045  -2598410.73461
  21799595.8154   -2559176.23045  -1522459.72161
  19046392.1044  -26728109.58747 -20827028.24764
  20538825.9084   -3140409.02146  -2370232.10062
  19737828.8384  -22100344.88447 -15506578.24363
 91  3 26  0 36 29.9940000  0  5G15G13G 2G19G 6
  21996159.322    -3550670.329 5  -2627739.88421
  21785382.7054   -2633856.71145  -1580651.88761
  19042646.674   -26747796.188 7 -20842368.41024
  20541919.4944   -3124164.95746  -2357574.42562
  19729273.0804  -22145314.81447 -15541619.63263
 91  3 26  0 36 44.9940000  0  5G15G13G 2G19G 6
  21989016.2134   -3588211.33245  -2656992.49361
  21771179.275    -2708494.711 5  -1638810.92521
  19038907.791   -26767432.731 7 -20857669.57024
  20545022.3384   -3107849.78346  -2344861.33761
  19720720.611   -22190251.442 7 -15576635.07123
 91  3 26  0 36 59.9930000  0  5G15G13G 2G19G 6
  21981888.6534   -3625656.15245  -2686170.17861
  21756982.9664   -2783089.62645  -1696936.39561
  19035180.364   -26787022.826 7 -20872934.53324
  20548141.1774   -3091469.48646  -2332097.49861
  19712176.1144  -22235156.47647 -15611625.90963
 91  3 26  0 37 14.9930000  0  5G15G13G 2G19G 6
  21974780.880    -3663012.547 5  -2715278.94221
  21742791.864    -2857654.428 5  -1755038.43521
  19031462.013   -26806572.188 8 -20888167.76024
  20551268.528    -3075025.033 6  -2319283.67521
  19703633.864   -22280038.738 7 -15646598.99423
 91  3 26  0 37 29.9930000  0  5G15G13G 2G19G 6
  21967689.1694   -3700269.39545  -2744310.12661
  21728612.4974   -2932175.21045  -1813106.18461
  19027750.6304  -26826071.19447 -20903361.74964
  20554415.1384   -3058509.05346  -2306414.11961
  19695100.8174  -22324886.60547 -15681545.28263
 91  3 26  0 37 44.9930000  0  5G15G13G 2G19G 6
  21960619.9664   -3737427.79545  -2773264.60361
  21714438.958    -3006652.855 5  -1871140.28121
  19024050.255   -26845521.448 7 -20918517.75024
  20557566.8254   -3041923.13346  -2293490.05361
  19686572.6074  -22369701.37947 -15716465.79063
 91  3 26  0 37 59.9930000  0  5G15G13G 2G19G 6
  21953567.6924   -3774486.51645  -2802141.40561
  21700273.0674   -3081086.09945  -1929139.79561
  19020356.4974  -26864922.07747 -20933635.08164
  20560740.1304   -3025266.39046  -2280510.80961
  19678051.317   -22414481.819 7 -15751359.54123
 91  3 26  0 38 14.9930000  0  5G15G13G 2G19G 6
  21946531.372    -3811449.049 5  -2830943.25121
  21686120.0524   -3155478.98545  -1987107.92561
  19016673.8644  -26884277.27447 -20948717.01564
  20563920.4824   -3008542.91946  -2267479.57061
  19669533.6224  -22459231.94247 -15786229.66663
 91  3 26  0 38 29.9930000  0  5G15G13G 2G19G 6
  21939516.060    -3848316.999 5  -2859671.40821
  21671970.4354   -3229832.65945  -2045045.43561
  19012999.3024  -26903588.87447 -20963764.97864
  20567118.9974   -2991754.64446  -2254397.83261
  19661026.0214  -22503953.29447 -15821077.38763
 91  3 26  0 38 44.9930000  0  5G15G13G 2G19G 6
  21932521.450    -3885088.322 5  -2888324.25421
  21657826.372    -3304144.822 5  -2102950.63621
  19009332.5134  -26922854.89147 -20978777.42164
  20570321.2944   -2974899.68946  -2241264.14461
  19652520.8174  -22548643.63447 -15855900.92563
 91  3 26  0 38 59.9930000  0  5G15G13G 2G19G 6
  21925542.5444   -3921765.93045  -2916904.11561
  21643692.927    -3378418.301 5  -2160825.66621
  19005675.7084  -26942078.61547 -20993756.91264
  20573544.6694   -2957981.07346  -2228080.84261
  19644021.8724  -22593305.82447 -15890702.54363
 91  3 26  0 39 14.9930000  0  5G15G13G 2G19G 6
  21918579.3414   -3958346.79445  -2945408.56361
  21629568.6074   -3452650.07945  -2218668.27261
  19002025.8804  -26961257.48447 -21008701.45164
  20576772.8804   -2940996.24146  -2214845.94161
  19635527.9114  -22637937.05947 -15925480.03763
 91  3 26  0 39 29.9930000  0  5G15G13G 2G19G 6
  21911634.3644   -3994830.51545  -2973837.30161
  21615448.255    -3526839.745 5  -2276478.01621
  18998384.341   -26980391.428 7 -21023610.97324
  20580019.3884   -2923945.11446  -2201559.38561
  19627041.5994  -22682537.02247 -15960233.16663
 91  3 26  0 39 44.9930000  0  5G15G13G 2G19G 6
  21904713.786    -4031215.429 5  -3002189.05621
  21601336.661    -3600985.901 5  -2334253.83421
  18994750.8414  -26999479.17647 -21038484.50464
  20583274.5674   -2906826.53246  -2188220.26461
  19618560.1924  -22727104.25447 -15994960.78463
 91  3 26  0 39 59.9930000  0  5G15G13G 2G19G 6
  21897808.1464   -4067503.69045  -3030465.49961
  21587237.224    -3675090.293 5  -2391997.15921
  18991127.692   -27018523.432 8 -21053324.13524
  20586545.9744   -2889643.12446  -2174830.63261
  19610085.7394  -22771641.02547 -16029664.67363
 91  3 26  0 40 14.9930000  0  5G15G13G 2G19G 6
  21890920.3644   -4103692.53245  -3058664.48061
  21573143.1614   -3749149.84645  -2449705.57061
  18987511.9034  -27037521.69848 -21068127.94164
  20589829.2324   -2872392.26646  -2161388.43761
  19601616.2634  -22816144.39347 -16064342.52963
 91  3 26  0 40 29.9930000  0  5G15G13G 2G19G 6
  21884053.177    -4139784.666 5  -3086788.11321
  21559059.9194   -3823167.25345  -2507381.02061
  18983906.3804  -27056476.86848 -21082898.16964
  20593130.3494   -2855076.79246  -2147895.90061
  19593153.341   -22860617.074 7 -16098996.47523
 91  3 26  0 40 44.9930000  0  5G15G13G 2G19G 6
  21877203.685    -4175774.857 5  -3114832.30421
  21544984.3494   -3897137.20445  -2565019.60061
  18980308.0524  -27075384.15148 -21097631.07264
  20596433.5214   -2837691.92146  -2134349.28561
  19584696.1694  -22905053.94847 -16133622.52163
 91  3 26  0 40 59.9930000  0  5G15G13G 2G19G 6
  21870373.927    -4211666.951 5  -3142800.05521
  21530914.310    -3971063.730 5  -2622624.35021
  18976717.7084  -27094247.75847 -21112329.94764
  20599755.8174   -2820241.92546  -2120751.91761
  19576245.5134  -22949458.97747 -16168223.75363
 91  3 26  0 41 14.9930000  0  5G15G13G 2G19G 6
  21863562.857    -4247455.573 5  -3170687.16821
  21516856.552    -4044941.502 5  -2680191.02121
  18973136.2244  -27113062.87147 -21126991.03564
  20603086.349    -2802721.938 6  -2107100.01921
  19567804.1774  -22993827.06647 -16202796.19063
 91  3 26  0 41 29.9930000  0  5G15G13G 2G19G 6
  21856772.3574   -4283146.69245  -3198498.30261
  21502805.6224   -4118776.35845  -2737724.30361
  18969564.7634  -27131835.71147 -21141619.18664
  20606434.3574   -2785138.34946  -2093398.56361
  19559368.357   -23038164.310 7 -16237344.61123
 91  3 26  0 41 44.9930000  0  5G15G13G 2G19G 6
  21849999.2864   -4318741.01245  -3226234.02961
  21488761.107    -4192568.526 5  -2795224.32421
  18966001.4584  -27150567.12448 -21156215.05364
  20609791.3644   -2767491.74046  -2079647.98961
  19550935.0134  -23082471.06147 -16271869.26163
 91  3 26  0 41 59.9930000  0  5G15G13G 2G19G 6
  21843242.8494   -4354237.07545  -3253893.18161
  21474728.2634   -4266316.68445  -2852690.03261
  18962444.4744  -27169256.24448 -21170777.96764
  20613162.1534   -2749781.27646  -2065847.66961
  19542509.817   -23126746.099 7 -16306369.21423
 91  3 26  0 42 14.9930000  0  5G15G13G 2G19G 6
  21836506.724    -4389631.173 5  -3281472.88121
  21460703.6144   -4340016.87045  -2910118.35461
  18958896.9744  -27187899.47348 -21185305.12364
  20616543.786    -2732003.592 6  -2051994.97321
  19534091.739   -23170985.584 7 -16340841.45823
 91  3 26  0 42 29.9930000  0  5G15G13G 2G19G 6
  21829792.060    -4424927.721 5  -3308976.57221
  21446686.888    -4413673.737 5  -2967512.90821
  18955356.9424  -27206501.68248 -21199800.31264
  20619942.9894   -2714163.38646  -2038093.55261
  19525680.349   -23215194.246 7 -16375289.68023
 91  3 26  0 42 44.9930000  0  5G15G13G 2G19G 6
  21823093.325    -4460120.547 5  -3336399.45221
  21432679.9584   -4487280.75745  -3024868.68561
  18951824.474   -27225057.093 8 -21214259.03124
  20623346.036    -2696254.639 6  -2024138.73021
  19517273.5604  -23259365.62547 -16409708.87263
 91  3 26  0 42 59.9930000  0  5G15G13G 2G19G 6
  21816415.8494   -4495215.67245  -3363746.17861
  21418678.6854   -4560843.86945  -3082190.17161
  18948301.4504  -27243572.07048 -21228686.25164
  20626770.552    -2678283.768 6  -2010135.50121
  19508873.8104  -23303506.04747 -16444103.91763
 91  3 26  0 43 14.9930000  0  5G15G13G 2G19G 6
  21809753.9744   -4530207.72845  -3391012.60561
  21404692.239    -4634357.928 5  -3139473.42921
  18944786.489   -27262041.788 7 -21243078.19524
  20630199.310    -2660245.858 6  -1996080.03321
  19500481.216   -23347610.211 7 -16478470.71823
 91  3 26  0 43 29.9930000  0  5G15G13G 2G19G 6
  21803116.6614   -4565102.75845  -3418203.42461
  21390708.5754   -4707829.07945  -3196723.36761
  18941280.1614  -27280472.80748 -21257439.99164
  20633646.599    -2642147.559 6  -1981977.50621
  19492092.153   -23391684.458 7 -16512814.20123
 91  3 26  0 43 44.9930000  0  5G15G13G 2G19G 6
  21796495.591    -4599894.641 5  -3445313.87021
  21376738.7084   -4781250.57045  -3253934.45861
  18937780.271   -27298858.908 7 -21271766.78024
  20637099.5444   -2623982.64646  -1967823.06561
  19483714.028   -23435722.412 7 -16547129.40423
 91  3 26  0 43 59.9930000  0  5G15G13G 2G19G 6
  21789896.653    -4634578.296 5  -3472339.97821
  21362775.396    -4854617.351 5  -3311102.99921
  18934290.903   -27317195.453 8 -21286054.95624
  20640575.372    -2605746.391 5  -1953613.04421
  19475341.185   -23479718.997 7 -16581412.37523
 91  3 26  0 44 14.9930000  0  5G15G13G 2G19G 6
  21783316.341    -4669161.888 5  -3499288.12821
  21348823.9194   -4927937.64845  -3368235.33161
  18930809.716   -27335491.004 8 -21300311.18424
  20644052.771    -2587447.541 6  -1939354.24621
  19466975.442   -23523682.592 7 -16615669.64623
 91  3 26  0 44 29.9930000  0  5G15G13G 2G19G 6
  21776755.1304   -4703641.04245  -3526154.89661
  21334881.6924   -5001207.03845  -3425327.93161
  18927336.6534  -27353741.27748 -21314532.13864
  20647549.4114   -2569081.90145  -1925043.39361
  19458616.075   -23567608.764 7 -16649897.75423
 91  3 26  0 44 44.9930000  0  5G15G13G 2G19G 6
  21770213.364    -4738013.317 5  -3552938.38121
  21320946.5994   -5074423.08245  -3482378.99561
  18923872.669   -27371944.397 8 -21328716.34324
  20651054.2084   -2550647.39246  -1910678.90561
  19450265.708   -23611495.039 7 -16684094.77323
 91  3 26  0 44 59.9930000  0  5G15G13G 2G19G 6
  21763688.935    -4772282.761 5  -3579641.73121
  21307023.591    -5147589.798 5  -3539391.65521
  18920417.2244  -27390104.85848 -21342867.31364
  20654577.544    -2532148.612 5  -1896264.31321
  19441921.591   -23655345.713 7 -16718264.05123
 91  3 26  0 45 14.9930000  0  5G15G13G 2G19G 6
  21757189.583    -4806446.910 5  -3606263.03821
  21293111.4034   -5220704.23345  -3596363.54061
  18916970.505   -27408220.371 8 -21356983.25624
  20658108.810    -2513583.277 5  -1881797.87021
  19433582.513   -23699158.159 7 -16752403.54123
 91  3 26  0 45 29.9930000  0  5G15G13G 2G19G 6
  21750709.3254   -4840501.06545  -3632798.64361
  21279208.0214   -5293761.57845  -3653290.89961
  18913530.9894  -27426286.52048 -21371060.73564
  20661657.4664   -2494946.80445  -1867276.00761
  19425253.255   -23742927.728 7 -16786509.62623
 91  3 26  0 45 44.9930000  0  5G15G13G 2G19G 6
  21744247.1224   -4874453.88645  -3659255.29261
  21265314.466    -5366770.356 6  -3710180.49721
  18910101.4664  -27444312.57948 -21385106.97864
  20665214.2244   -2476248.26246  -1852705.76561
  19416932.028   -23786663.175 7 -16820589.10923
 91  3 26  0 45 59.9930000  0  5G15G13G 2G19G 6
  21737807.0444   -4908299.73545  -3685628.59361
  21251432.653    -5439725.085 5  -3767027.93421
  18906678.6224  -27462293.14748 -21399117.77364
  20668786.911    -2457482.512 6  -1838083.15021
  19408615.802   -23830358.996 7 -16854637.72623
 91  3 26  0 46 14.9930000  0  5G15G13G 2G19G 6
  21731387.8574   -4942038.91745  -3711918.78561
  21237557.7004   -5512625.86545  -3823833.30561
  18903266.7634  -27480228.58148 -21413093.39564
  20672367.021    -2438650.093 6  -1823408.59321
  19400308.0524  -23874015.24747 -16888655.49863
 91  3 26  0 46 29.9930000  0  5G15G13G 2G19G 6
  21724983.0604   -4975675.82745  -3738129.27961
  21223693.810    -5585476.890 5  -3880599.96521
  18899861.6614  -27498123.74848 -21427037.64664
  20675966.567    -2419755.633 5  -1808685.69321
  19392008.614   -23917636.459 7 -16922645.96623
 91  3 26  0 46 44.9930000  0  5G15G13G 2G19G 6
  21718604.802    -5009207.504 5  -3764257.74621
  21209840.599    -5658275.666 5  -3937325.90121
  18896464.8494  -27515976.03948 -21440948.48664
  20679571.552    -2400796.655 6  -1793912.51121
  19383714.388   -23961219.764 7 -16956606.90623
 91  3 26  0 46 59.9930000  0  5G15G13G 2G19G 6
  21712243.138    -5042629.610 5  -3790300.86121
  21195999.5214   -5731017.28945  -3994007.26461
  18893076.5444  -27533781.62348 -21454822.92464
  20683194.372    -2381769.337 5  -1779086.08821
  19375428.130   -24004760.960 7 -16990535.02423
 91  3 26  0 47 14.9930000  0  5G15G13G 2G19G 6
  21705905.232    -5075941.898 5  -3816258.39421
  21182167.880    -5803701.656 5  -4050644.05721
  18889696.2474  -27551540.54248 -21468661.00764
  20686825.5604   -2362673.53245  -1764206.29161
  19367150.935   -24048259.728 7 -17024430.09223
 91  3 26  0 47 29.9930000  0  5G15G13G 2G19G 6
  21699588.513    -5109148.371 5  -3842133.49521
  21168347.357    -5876332.740 5  -4107239.33121
  18886326.1464  -27569257.19248 -21482466.15364
  20690474.1694   -2343513.69645  -1749276.61161
  19358880.661   -24091720.107 7 -17058295.24723
 91  3 26  0 47 44.9930000  0  5G15G13G 2G19G 6
  21693287.716    -5142248.176 5  -3867925.47821
  21154535.083    -5948909.531 5  -4163792.27621
  18882962.4424  -27586931.06848 -21496237.96764
  20694129.997    -2324289.294 5  -1734296.61221
  19350617.521   -24135141.451 7 -17092129.98123
 91  3 26  0 47 59.9930000  0  5G15G13G 2G19G 6
  21687004.153    -5175243.515 5  -3893636.05621
  21140735.0914   -6021434.00445  -4220304.49361
  18879607.2784  -27604564.62148 -21509978.35864
  20697804.411    -2305002.866 5  -1719268.27621
  19342361.661   -24178525.864 7 -17125935.94423
 91  3 26  0 48 14.9930000  0  5G15G13G 2G19G 6
  21680748.4824   -5208135.46945  -3919266.07061
  21126943.9664   -6093907.07546  -4276776.64661
  18876258.2944  -27622159.03648 -21523688.25764
  20701483.3334   -2285655.69345  -1704192.62261
  19334113.216   -24221874.330 7 -17159713.89323
 91  3 26  0 48 29.9930000  0  5G15G13G 2G19G 6
  21674513.1464   -5240914.33845  -3944807.95461
  21113162.6924   -6166319.12545  -4333201.24861
  18872918.5444  -27639705.20548 -21537360.55764
  20705178.661    -2266238.632 5  -1689062.49821
  19325872.458   -24265177.320 7 -17193456.40723
 91  3 26  0 48 44.9930000  0  5G15G13G 2G19G 6
  21668294.4504   -5273587.56445  -3970267.55261
  21099393.7164   -6238677.37545  -4389583.90961
  18869587.3964  -27657210.83848 -21551001.27064
  20708883.036    -2246759.241 5  -1673883.80421
  19317639.755   -24308442.133 7 -17227169.17323
 91  3 26  0 48 59.9930000  0  5G15G13G 2G19G 6
  21662096.833    -5306148.853 5  -3995639.91221
  21085635.005    -6310975.042 5  -4445919.41221
  18866265.732   -27674669.844 8 -21564605.64924
  20712606.9894   -2227211.37745  -1658651.76361
  19309413.739   -24351662.345 7 -17260847.18523
 91  3 26  0 49 14.9930000  0  5G15G13G 2G19G 6
  21655923.255    -5338599.258 5  -4020925.86121
  21071885.755    -6383213.585 5  -4502208.82521
  18862952.6144  -27692083.48348 -21578174.67964
  20716334.482    -2207596.558 5  -1643367.53121
  19301198.958   -24394839.135 7 -17294491.36723
 91  3 26  0 49 29.9930000  0  5G15G13G 2G19G 6
  21649771.5054   -5370940.40345  -4046126.67261
  21058153.036    -6455394.517 5  -4558453.34821
  18859646.4584  -27709453.74148 -21591709.90664
  20720084.560    -2187916.846 5  -1628032.74321
  19292989.911   -24437974.132 7 -17328102.97223
 91  3 26  0 49 44.9930000  0  5G15G13G 2G19G 6
  21643634.161    -5403167.049 5  -4071238.27421
  21044427.2164   -6527512.57945  -4614648.88761
  18856351.2554  -27726776.15248 -21605207.85364
  20723839.6384   -2168167.60545  -1612643.78361
  19284791.552   -24481062.454 7 -17361678.21123
 91  3 26  0 49 59.9930000  0  5G15G13G 2G19G 6
  21637525.2084   -5435283.44345  -4096263.93661
  21030717.146    -6599571.701 5  -4670798.51621
  18853062.6464  -27744054.70648 -21618671.62264
  20727612.466    -2148352.918 5  -1597203.81821
  19276599.0674  -24524107.95647 -17395220.07063
 91  3 26  0 50 14.9930000  0  5G15G13G 2G19G 6
  21631434.0524   -5467293.39745  -4121206.67261
  21017012.872    -6671575.795 5  -4726905.25821
  18849782.6224  -27761293.96048 -21632104.77464
  20731391.552    -2128477.090 5  -1581716.20721
  19268415.810   -24567114.562 7 -17428731.63423
 91  3 26  0 50 29.9930000  0  5G15G13G 2G19G 6
  21625359.9504   -5499187.79645  -4146059.34161
  21003323.0604   -6743515.47545  -4782961.81661
  18846510.0364  -27778484.93148 -21645500.30964
  20735191.1924   -2108531.16345  -1566173.99461
  19260239.450   -24610073.234 7 -17462205.85123
 91  3 26  0 50 44.9930000  0  5G15G13G 2G19G 6
  21619316.2244   -5530969.34545  -4170824.08161
  20989642.567    -6815393.207 5  -4838970.11021
  18843248.4894  -27795630.38548 -21658860.37164
  20738996.7084   -2088518.14345  -1550579.49961
  19252073.880   -24652986.502 7 -17495644.68623
 91  3 26  0 50 59.9930000  0  5G15G13G 2G19G 6
  21613289.138    -5562644.043 5  -4195505.55621
  20975977.755    -6887215.001 5  -4894934.80321
  18839992.6924  -27812737.14248 -21672190.27964
  20742820.700    -2068444.684 5  -1534937.89021
  19243915.427   -24695860.688 7 -17529053.05823
 91  3 26  0 51 14.9930000  0  5G15G13G 2G19G 6
  21607281.2324   -5594203.17545  -4220097.00461
  20962322.9424   -6958972.01045  -4950849.06761
  18836746.2944  -27829796.59148 -21685483.32364
  20746649.1854   -2048302.26945  -1519242.56361
  19235767.0444  -24738686.94647 -17562424.09963
 91  3 26  0 51 29.9930000  0  5G15G13G 2G19G 6
  21601297.466    -5625647.524 5  -4244598.97821
  20948680.8494   -7030664.80546  -5006713.24461
  18833508.6694  -27846809.62348 -21698740.19564
  20750496.2164   -2028091.93745  -1503494.31961
  19227624.3024  -24781465.83347 -17595758.23563
 91  3 26  0 51 44.9930000  0  5G15G13G 2G19G 6
  21595335.8254   -5656980.72845  -4269014.36161
  20935046.482    -7102297.079 5  -5062530.31021
  18830280.4664  -27863780.40148 -21711964.14964
  20754352.638    -2007817.828 5  -1487696.35921
  19219493.8414  -24824201.25747 -17629058.50163
 91  3 26  0 51 59.9930000  0  5G15G13G 2G19G 6
  21589398.771    -5688199.168 5  -4293340.31521
  20921430.271    -7173865.020 6  -5118297.21121
  18827057.739   -27880705.545 8 -21725152.54624
  20758224.8104   -1987476.50145  -1471846.03061
  19211368.013   -24866889.549 7 -17662322.03123
 91  3 26  0 52 14.9930000  0  5G15G13G 2G19G 6
  21583478.388    -5719304.460 5  -4317578.09521
  20907821.169    -7245370.196 6  -5174015.24921
  18823845.1774  -27897586.83148 -21738306.77264
  20762106.591    -1967069.711 5  -1455944.69121
  19203254.411   -24909532.191 7 -17695549.99123
 91  3 26  0 52 29.9930000  0  5G15G13G 2G19G 6
  21577581.232    -5750294.922 5  -4341726.40521
  20894228.333    -7316810.891 6  -5229683.01021
  18820642.6854  -27914423.03148 -21751425.85564
  20766002.778    -1946596.328 5  -1439991.45221
  19195149.3334  -24952127.55847 -17728741.09563
 91  3 26  0 52 44.9930000  0  5G15G13G 2G19G 6
  21571704.841    -5781165.740 5  -4365781.51421
  20880645.380    -7388182.223 6  -5285296.75521
  18817448.4584  -27931209.73648 -21764506.37264
  20769912.294    -1926052.112 5  -1423983.04121
  19187052.4354  -24994671.07147 -17761891.81263
 91  3 26  0 52 59.9930000  0  5G15G13G 2G19G 6
  21565850.8644   -5811923.74245  -4389748.68861
  20867077.013    -7459490.903 6  -5340861.65121
  18814262.380   -27947953.995 8 -21777553.82324
  20773841.505    -1905443.955 5  -1407924.78921
  19178967.5524  -25037169.36547 -17795007.30763
 91  3 26  0 53 14.9930000  0  5G15G13G 2G19G 6
  21560018.357    -5842569.594 5  -4413628.46621
  20853516.7554   -7530737.22846  -5396378.01561
  18811082.5834  -27964656.93448 -21790569.06264
  20777766.872    -1884772.850 5  -1391817.47221
  19170887.8724  -25079622.95647 -17828087.96563
 91  3 26  0 53 29.9930000  0  5G15G13G 2G19G 6
  21554210.138    -5873105.203 5  -4437422.35121
  20839972.4744   -7601923.15646  -5451847.24261
  18807910.9894  -27981320.55948 -21803553.67064
  20781714.185    -1864040.770 5  -1375662.66421
  19162816.411   -25122033.735 7 -17861135.24823
 91  3 26  0 53 44.9930000  0  5G15G13G 2G19G 6
  21548423.028    -5903516.622 6  -4461119.45421
  20826439.067    -7673034.625 6  -5507258.53221
  18804750.9504  -27997931.19148 -21816496.98864
  20785673.2244   -1843234.23845  -1359449.84661
  19154756.747   -25164387.843 7 -17894138.36323
 91  3 26  0 53 59.9930000  0  5G15G13G 2G19G 6
  21542658.4114   -5933809.12845  -4484723.90661
  20812921.200    -7744076.581 6  -5562615.57921
  18801599.2084  -28014494.12948 -21829403.13764
  20789647.599    -1822358.585 5  -1343183.15321
  19146707.692   -25206690.229 7 -17927101.18423
 91  3 26  0 54 14.9930000  0  5G15G13G 2G19G 6
  21536911.271    -5963987.880 5  -4508239.73621
  20799411.458    -7815054.388 5  -5617922.70621
  18798454.2244  -28031015.33048 -21842276.76364
  20793629.700    -1801419.869 5  -1326867.32521
  19138665.4974  -25248946.54647 -17960028.12463
 91  3 26  0 54 29.9930000  0  5G15G13G 2G19G 6
  21531195.224    -5994045.224 6  -4531660.95421
  20785920.138    -7885960.400 6  -5673173.86321
  18795320.6924  -28047487.21948 -21855111.96464
  20797630.4274   -1780410.57645  -1310496.51861
  19130634.536   -25291148.965 7 -17992913.04423
 91  3 26  0 54 44.9930000  0  5G15G13G 2G19G 6
  21525496.3334   -6023990.39446  -4554994.76261
  20772436.9974   -7956803.27645  -5728375.80161
  18792194.7164  -28063919.09648 -21867915.98464
  20801637.4744   -1759339.91945  -1294077.87761
  19122611.3804  -25333306.37647 -18025762.90563
 91  3 26  0 54 59.9930000  0  5G15G13G 2G19G 6
  21519818.8414   -6053816.89146  -4578236.07661
  20758972.3104   -8027576.40946  -5783523.43361
  18789075.2554  -28080304.84748 -21880684.06464
  20805661.6384   -1738202.04845  -1277606.87561
  19114600.5914  -25375412.48947 -18058572.80363
 91  3 26  0 55 14.9930000  0  5G15G13G 2G19G 6
  21514167.2944   -6083526.54546  -4601386.36961
  20745514.935    -8098281.959 6  -5838618.38221
  18785965.435   -28096646.811 8 -21893418.02124
  20809695.1854   -1716999.11145  -1261085.16961
  19106597.4824  -25417469.12247 -18091344.14463
 91  3 26  0 55 29.9930000  0  5G15G13G 2G19G 6
  21508537.7164   -6113116.68446  -4624443.52161
  20732074.7084   -8168916.97646  -5893658.35561
  18782865.1074  -28112942.61548 -21906116.00864
  20813746.6774   -1695728.63245  -1244510.83661
  19098602.966   -25459473.662 7 -18124074.88023
 91  3 26  0 55 44.9930000  0  5G15G13G 2G19G 6
  21502927.528    -6142590.546 6  -4647410.07121
  20718645.8964   -8239484.44446  -5948645.74961
  18779771.583   -28129195.638 8 -21918780.65624
  20817803.333    -1674394.174 5  -1227886.64621
  19090620.1144  -25501429.25847 -18156767.47763
 91  3 26  0 55 59.9930000  0  5G15G13G 2G19G 6
  21497340.005    -6171941.096 5  -4670280.51321
  20705230.849    -8309977.065 6  -6003574.76021
  18776688.4664  -28145399.06248 -21931406.67064
  20821878.3724   -1652988.87545  -1211207.26261
  19082646.435   -25543328.746 7 -18189416.35823
 91  3 26  0 56 14.9930000  0  5G15G13G 2G19G 6
  21491779.692    -6201170.053 5  -4693056.25821
  20691830.442    -8380396.684 6  -6058446.93021
  18773614.247   -28161554.935 8 -21943995.61924
  20825960.3334   -1631514.94345  -1194474.39261
  19074683.028   -25585173.870 7 -18222022.87223
 91  3 26  0 56 29.9930000  0  5G15G13G 2G19G 6
  21486238.864    -6230279.116 5  -4715738.53121
  20678443.9354   -8450744.84246  -6113263.40061
  18770547.2634  -28177665.27748 -21956549.08864
  20830067.4114   -1609974.36545  -1177689.58961
  19066730.3024  -25626966.32647 -18254588.35264
 91  3 26  0 56 44.9930000  0  5G15G13G 2G19G 6
  21480723.403    -6259267.482 5  -4738326.76121
  20665071.9034   -8521020.65946  -6168023.46961
  18767491.169   -28193729.689 8 -21969066.76624
  20834173.0754   -1588366.56445  -1160852.40961
  19058788.1304  -25668705.28347 -18287112.14364
 91  3 26  0 56 59.9930000  0  5G15G13G 2G19G 6
  21475232.0604   -6288132.62945  -4760818.98761
  20651710.7084   -8591221.30346  -6222725.03861
  18764442.364   -28209745.914 8 -21981546.89424
  20838301.6464   -1566689.44445  -1143961.21061
  19050854.7474  -25710388.23947 -18319592.30464
 91  3 26  0 57 14.9930000  0  5G15G13G 2G19G 6
  21469759.044    -6316880.191 5  -4783219.57621
  20638365.6854   -8661352.41446  -6277372.33161
  18761404.169   -28225719.709 8 -21993993.96024
  20842436.294    -1544948.882 5  -1127020.56021
  19042934.732   -25752020.691 7 -18352033.10424
 91  3 26  0 57 29.9930000  0  5G15G13G 2G19G 6
  21464311.458    -6345508.971 6  -4805527.62421
  20625032.7554   -8731412.66146  -6331964.48561
  18758372.091   -28241650.183 8 -22006407.26624
  20846587.4354   -1523144.15245  -1110029.92661
  19035022.083   -25793601.511 7 -18384433.66624
 91  3 26  0 57 44.9930000  0  5G15G13G 2G19G 6
  21458885.677    -6374020.304 5  -4827744.14621
  20611716.1464   -8801403.23046  -6386502.28661
  18755347.685   -28257538.898 8 -22018788.03824
  20850746.2554   -1501276.76945  -1092990.46561
  19027118.294   -25835131.742 7 -18416794.81424
 91  3 26  0 57 59.9930000  0  5G15G13G 2G19G 6
  21453484.669    -6402409.856 6  -4849865.77721
  20598407.067    -8871319.226 6  -6440982.01721
  18752334.153   -28273381.568 8 -22031132.92824
  20854921.7244   -1479342.49045  -1075898.87961
  19019224.958   -25876606.965 7 -18449113.09224
 91  3 26  0 58 14.9930000  0  5G15G13G 2G19G 6
  21448104.849    -6430678.301 6  -4871893.05221
  20585119.466    -8941161.603 6  -6495404.35721
  18749327.419   -28289179.409 8 -22043442.89024
  20859106.7084   -1457342.51145  -1058756.09661
  19011342.419   -25918028.027 7 -18481389.16524
 91  3 26  0 58 29.9930000  0  5G15G13G 2G19G 6
  21442748.0754   -6458829.09146  -4893828.63661
  20571841.177    -9010933.680 6  -6549771.91821
  18746330.310   -28304936.203 8 -22055720.86524
  20863306.0604   -1435280.71145  -1041565.14761
  19003470.7244  -25959398.27947 -18513625.64164
 91  3 26  0 58 44.9930000  0  5G15G13G 2G19G 6
  21437414.0604   -6486857.51845  -4915668.87361
  20558578.6924   -9080630.71546  -6604081.01761
  18743339.677   -28320647.496 8 -22067963.38624
  20867515.3574   -1413152.54245  -1024322.48461
  18995608.286   -26000713.134 7 -18545818.96624
 91  3 26  0 58 59.9930000  0  5G15G13G 2G19G 6
  21432101.9424   -6514763.70645  -4937413.85961
  20545328.8724   -9150252.67046  -6658331.62661
  18740358.638   -28336313.521 8 -22080170.63324
  20871741.8414   -1390958.38945  -1007028.39961
  18987756.3494  -26041972.57447 -18577969.11363
 91  3 26  0 59 14.9930000  0  5G15G13G 2G19G 6
  21426815.505    -6542549.363 5  -4959064.93121
  20532094.4744   -9219801.06246  -6712524.86861
  18737386.263   -28351936.358 8 -22092344.22524
  20875975.5134   -1368700.32045   -989684.50661
  18979915.8574  -26083178.19147 -18610077.31664
 91  3 26  0 59 29.9930000  0  5G15G13G 2G19G 6
  21421552.700    -6570208.929 5  -4980617.75221
  20518873.5214   -9289270.33446  -6766656.50461
  18734421.6694  -28367510.93848 -22104480.22064
  20880225.9034   -1346373.30745   -972286.89961
  18972086.4034  -26124324.53647 -18642139.33364
 91  3 26  0 59 44.9930000  0  5G15G13G 2G19G 6
  21416311.9034   -6597747.61645  -5002076.38161
  20505668.833    -9358665.464 6  -6820730.35121
  18731465.567   -28383042.462 8 -22116582.66424
  20884482.9274   -1323982.54445   -954839.61161
  18964267.0994  -26165416.48547 -18674158.96464
 91  3 26  0 59 59.9930000  0  5G15G13G 2G19G 6
  21411094.192    -6625161.894 6  -5023438.06821
  20492477.638    -9427982.751 6  -6874743.55521
  18728520.0754  -28398527.61248 -22128648.97464
  20888757.9824   -1301524.56245   -937339.94861
  18956457.8964  -26206450.48547 -18706133.43564
 91  3 26  1  0 14.9930000  0  5G15G13G 2G19G 6
  21405900.763    -6652455.937 5  -5044706.08521
  20479302.208    -9497226.341 6  -6928699.31621
  18725579.4584  -28413970.90248 -22140682.67064
  20893043.732    -1279004.102 5   -919791.61221
  18948658.5214  -26247430.77647 -18738066.06664
 91  3 26  1  0 29.9930000  0  5G15G13G 2G19G 6
  21400730.5674   -6679623.38646  -5065875.43661
  20466139.763    -9566389.731 6  -6982592.58821
  18722649.638   -28429366.147 8 -22152678.91724
  20897345.4194   -1256415.25145   -902189.96461
  18940872.685   -26288350.824 7 -18769951.74324
 91  3 26  1  0 44.9930000  0  5G15G13G 2G19G 6
  21395584.466    -6706667.242 6  -5086948.49021
  20452993.8494   -9635475.60546  -7036425.46861
  18719729.2474  -28444716.62348 -22164640.28664
  20901652.942    -1233761.062 5   -884537.42321
  18933095.9504  -26329213.64447 -18801792.83363
 91  3 26  1  0 59.9920000  0  5G15G13G 2G19G 6
  21390462.3054   -6733583.75946  -5107922.31561
  20439861.4064   -9704477.18946  -7090192.65461
  18716815.1804  -28460019.74447 -22176564.75264
  20905980.250    -1211041.734 5   -866834.12721
  18925331.9614  -26370014.63947 -18833585.74463
 91  3 26  1  1 14.9920000  0  5G15G13G 2G19G 6
  21385362.313    -6760371.369 6  -5128795.69921
  20426746.055    -9773398.526 6  -7143897.31021
  18713915.7424  -28475272.43748 -22188449.93164
  20910314.938    -1188249.127 5   -849073.70921
  18917579.813   -26410753.799 7 -18865330.48023
 91  3 26  1  1 29.9920000  0  5G15G13G 2G19G 6
  21380292.414    -6787035.857 6  -5149573.15521
  20413644.938    -9842242.458 6  -7197541.64721
  18711019.7274  -28490481.82248 -22200301.36064
  20914666.5704   -1165393.01245   -831263.81261
  18909837.9844  -26451436.16947 -18897030.95563
 91  3 26  1  1 44.9920000  0  5G15G13G 2G19G 6
  21375240.305    -6813575.154 5  -5170253.05321
  20400559.1954   -9911006.71846  -7251123.93961
  18708134.5474  -28505645.71348 -22212117.34864
  20919026.7504   -1142471.32945   -813402.82661
  18902108.391   -26492059.353 7 -18928685.31623
 91  3 26  1  1 59.9920000  0  5G15G13G 2G19G 6
  21370214.0944   -6839991.49145  -5190837.12561
  20387489.4774   -9979693.34246  -7304645.69361
  18705257.9144  -28520766.60248 -22223899.82164
  20923400.945    -1119486.506 5   -795492.65121
  18894388.6494  -26532625.53347 -18960295.25963
 91  3 26  1  2 14.9920000  0  5G15G13G 2G19G 6
  21365210.1564   -6866285.75346  -5211326.07161
  20374432.602   -10048303.094 6  -7358107.57521
  18702388.2814  -28535845.76248 -22235649.77764
  20927786.8834   -1096439.69845   -777534.16761
  18886679.2344  -26573135.50647 -18991861.40163
 91  3 26  1  2 29.9920000  0  5G15G13G 2G19G 6
  21360233.0944   -6892455.49146  -5231717.99961
  20361393.180   -10116833.581 6  -7411507.67721
  18699527.8834  -28550881.09448 -22247365.58664
  20932186.8524   -1073328.84645   -759525.76861
  18878981.2034  -26613586.95247 -19023381.94463
 91  3 26  1  2 44.9920000  0  5G15G13G 2G19G 6
  21355274.555    -6918496.868 6  -5252009.90321
  20348367.633   -10185280.921 6  -7464843.01121
  18696673.5864  -28565868.94848 -22259044.39264
  20936592.516    -1050150.629 5   -741464.89021
  18871296.2424  -26653976.04147 -19054853.89263
 91  3 26  1  2 59.9920000  0  5G15G13G 2G19G 6
  21350341.0554   -6944409.82745  -5272201.72461
  20335357.8284  -10253644.68846  -7518113.22061
  18693832.0084  -28580809.21448 -22270686.12264
  20941018.984    -1026905.071 5   -723351.53221
  18863622.0164  -26694302.41047 -19086276.97563
 91  3 26  1  3 14.9920000  0  5G15G13G 2G19G 6
  21345434.094    -6970199.160 5  -5292297.21921
  20322363.9064  -10321929.43746  -7571321.84661
  18690995.9844  -28595707.14648 -22282294.86464
  20945452.1884   -1003597.27345   -705189.66661
  18855959.6254  -26734570.71347 -19117654.80663
 91  3 26  1  3 29.9920000  0  5G15G13G 2G19G 6
  21340551.539    -6995865.386 5  -5312296.79521
  20309383.047   -10390135.843 6  -7624469.44221
  18688169.2274  -28610563.55348 -22293871.25264
  20949906.078     -980228.051 5   -686979.96921
  18848307.8134  -26774781.51847 -19148987.83863
 91  3 26  1  3 44.9920000  0  5G15G13G 2G19G 6
  21335692.750    -7021401.483 6  -5332194.97521
  20296421.938   -10458256.272 6  -7677550.02621
  18685353.3594  -28625371.52548 -22305409.89864
  20954360.727     -956790.633 5   -668717.12121
  18840667.8444  -26814927.53447 -19180270.37963
 91  3 26  1  3 59.9920000  0  5G15G13G 2G19G 6
  21330857.422    -7046808.292 6  -5351992.40921
  20283476.172   -10526291.758 6  -7730564.43621
  18682542.6254  -28640132.31148 -22316911.77564
  20958833.5634    -933286.21945   -650402.06261
  18833040.2114  -26855009.65347 -19211503.13763
 91  3 26  1  4 14.9920000  0  5G15G13G 2G19G 6
  21326047.578    -7072090.004 6  -5371692.36621
  20270541.5394  -10594246.29446  -7783515.77561
  18679742.7344  -28654850.13448 -22328380.18064
  20963316.445     -909719.167 5   -632038.20121
  18825424.7584  -26895032.03947 -19242689.34863
 91  3 26  1  4 29.9920000  0  5G15G13G 2G19G 6
  21321260.4774   -7097246.14146  -5391294.45761
  20257628.352   -10662119.354 6  -7836403.61621
  18676949.391   -28669524.940 8 -22339815.06724
  20967815.609     -886089.426 5   -613625.50021
  18817819.5394  -26934994.19847 -19273828.63363
 91  3 26  1  4 44.9920000  0  5G15G13G 2G19G 6
  21316497.227    -7122273.565 6  -5410796.25521
  20244726.0394  -10729907.71346  -7889225.46161
  18674166.438   -28684153.818 8 -22351214.16424
  20972323.625     -862394.273 5   -595161.79921
  18810226.8834  -26974892.87747 -19304918.45263
 91  3 26  1  4 59.9920000  0  5G15G13G 2G19G 6
  21311756.2424   -7147171.24545  -5430196.95261
  20231843.6494  -10797609.93446  -7941980.19261
  18671390.9844  -28698735.63948 -22362576.59864
  20976847.289     -838632.586 5   -576646.27421
  18802645.8914  -27014726.68447 -19335957.72063
 91  3 26  1  5 14.9920000  0  5G15G13G 2G19G 6
  21307045.688    -7171942.557 6  -5449499.20221
  20218974.2194  -10865229.38146  -7994670.40661
  18668624.4454  -28713274.28048 -22373905.37564
  20981379.7744    -814808.41845   -558082.07661
  18795078.5944  -27054499.20047 -19366949.23063
 91  3 26  1  5 29.9920000  0  5G15G13G 2G19G 6
  21302354.406    -7196589.273 6  -5468704.34821
  20206121.375   -10932767.505 6  -8047297.27721
  18665865.3284  -28727771.37048 -22385201.78164
  20985927.024     -790923.429 5   -539470.47421
  18787521.7744  -27094211.93647 -19397894.15863
 91  3 26  1  5 44.9920000  0  5G15G13G 2G19G 6
  21297688.6024   -7221112.36045  -5487813.16261
  20193286.2814  -11000225.22346  -8099861.48061
  18663114.6174  -28742228.43648 -22396466.99964
  20990478.555     -766979.115 5   -520812.64421
  18779975.5704  -27133865.82447 -19428793.23363
 91  3 26  1  5 59.9920000  0  5G15G13G 2G19G 6
  21293046.156    -7245504.981 5  -5506820.30021
  20180464.633   -11067595.594 6  -8152357.63821
  18660371.3594  -28756638.92048 -22407695.92064
  20995052.031     -742968.947 5   -502103.49821
  18772442.047   -27173454.020 7 -19459641.12323
 91  3 26  1  6 14.9920000  0  5G15G13G 2G19G 6
  21288429.563    -7269769.041 5  -5525727.25621
  20167661.633   -11134880.287 6  -8204787.01521
  18657638.250   -28771004.921 8 -22418890.17924
  20999628.477     -718895.032 5   -483344.68021
  18764920.4144  -27212978.20347 -19490439.12763
 91  3 26  1  6 29.9920000  0  5G15G13G 2G19G 6
  21283836.6414   -7293900.74146  -5544531.08061
  20154873.977   -11202075.595 6  -8257146.76021
  18654914.055   -28785322.763 8 -22430046.91224
  21004225.6174    -694753.90845   -464533.48061
  18757412.320   -27252434.542 7 -19521184.27523
 91  3 26  1  6 44.9920000  0  5G15G13G 2G19G 6
  21279267.5394   -7317904.40146  -5563235.14261
  20142104.8444  -11269185.59646  -8309440.02961
  18652198.383   -28799597.021 8 -22441169.68424
  21008829.8134    -670550.19045   -445673.51061
  18749915.461   -27291827.277 7 -19551879.85923
 91  3 26  1  6 59.9920000  0  5G15G13G 2G19G 6
  21274726.0474   -7341780.22346  -5581839.59261
  20129349.3134  -11336210.21446  -8361666.77061
  18649489.1724  -28813828.08448 -22452258.79764
  21013448.500     -646284.258 5   -426765.06721
  18742431.914   -27331156.353 7 -19582525.83523
 91  3 26  1  7 14.9920000  0  5G15G13G 2G19G 6
  21270207.5164   -7365522.93446  -5600340.30461
  20116609.938   -11403144.325 6  -8413822.99821
  18646790.555   -28828010.874 8 -22463310.29324
  21018077.7894    -621951.30545   -407804.40761
  18734962.125   -27370416.655 7 -19613118.23223
 91  3 26  1  7 29.9920000  0  5G15G13G 2G19G 6
  21265711.0784   -7389135.71645  -5618739.77561
  20103892.0864  -11469990.83646  -8465910.92361
  18644100.133   -28842149.037 8 -22474327.02124
  21022724.000     -597554.785 5   -388794.19421
  18727503.6024  -27409611.31847 -19643659.47164
 91  3 26  1  7 44.9920000  0  5G15G13G 2G19G 6
  21261242.367    -7412624.704 6  -5637042.77821
  20091184.813   -11536755.639 6  -8517935.24521
  18641416.594   -28856248.839 8 -22485313.85524
  21027373.227     -573101.045 5   -369739.40221
  18720054.844   -27448746.225 7 -19674154.15223
 91  3 26  1  7 59.9920000  0  5G15G13G 2G19G 6
  21256801.3134   -7435981.01246  -5655242.40861
  20078498.3834  -11603429.48346  -8569888.66161
  18638742.539   -28870301.315 8 -22496263.80824
  21032043.1724    -548581.29845   -350633.17561
  18712620.289   -27487812.195 7 -19704595.11423
 91  3 26  1  8 14.9920000  0  5G15G13G 2G19G 6
  21252381.3834   -7459204.23446  -5673338.33161
  20065828.7114  -11670012.17446  -8621771.04461
  18636076.6334  -28884306.39547 -22507176.83164
  21036718.727     -523995.506 5   -331475.49121
  18705200.492   -27526808.821 7 -19734982.04023
 91  3 26  1  8 29.9920000  0  5G15G13G 2G19G 6
  21247982.305    -7482301.026 5  -5691335.72321
  20053172.1334  -11736509.83946  -8673587.19161
  18633420.719   -28898270.701 8 -22518058.08324
  21041411.055     -499350.503 5   -312271.67621
  18697791.563   -27565742.562 7 -19765319.96723
 91  3 26  1  8 44.9920000  0  5G15G13G 2G19G 6
  21243614.4844   -7505268.17545  -5709232.11861
  20040536.656   -11802918.893 6  -8725334.27021
  18630771.1414  -28912191.34248 -22528905.30664
  21046109.945     -474643.304 5   -293019.37721
  18690395.609   -27604609.993 7 -19795606.21924
 91  3 26  1  8 59.9920000  0  5G15G13G 2G19G 6
  21239268.8834   -7528103.61846  -5727025.87261
  20027917.383   -11869237.327 6  -8777010.75121
  18628131.3284  -28926066.60248 -22539717.16764
  21050830.1884    -449872.33445   -273717.40061
  18683011.6414  -27643409.04147 -19825839.18964
 91  3 26  1  9 14.9920000  0  5G15G13G 2G19G 6
  21234949.8754   -7550807.34246  -5744716.99861
  20015312.2274  -11935465.02646  -8828616.53861
  18625499.0554  -28939896.53148 -22550493.71364
  21055550.6954    -425037.91045   -254365.95661
  18675641.633   -27682139.749 7 -19856018.90523
 91  3 26  1  9 29.9920000  0  5G15G13G 2G19G 6
  21230653.9694   -7573376.29146  -5762303.11661
  20002729.8754  -12001598.61746  -8880148.98561
  18622876.8364  -28953678.04748 -22561232.52664
  21060288.7114    -400136.86545   -234962.59961
  18668284.3914  -27720798.67147 -19886142.68363
 91  3 26  1  9 44.9920000  0  5G15G13G 2G19G 6
  21226383.766    -7595819.859 6  -5779791.50921
  19990160.445   -12067647.502 6  -8931615.43521
  18620261.4144  -28967420.85048 -22571941.16964
  21065037.727     -375179.064 5   -215515.04421
  18660941.2664  -27759395.21247 -19916217.84964
 91  3 26  1  9 59.9920000  0  5G15G13G 2G19G 6
  21222138.0164   -7618132.29346  -5797177.73361
  19977608.9924  -12133605.82946  -8983011.32661
  18617654.1334  -28981119.50348 -22582615.41264
  21069802.1724    -350159.06245   -196019.01961
  18653608.8054  -27797923.45647 -19946239.80664
 91  3 26  1 10 14.9920000  0  5G15G13G 2G19G 6
  21217914.625    -7640312.287 6  -5814460.74221
  19965072.930   -12199472.332 6  -9034335.64821
  18615056.8054  -28994773.26448 -22593254.67364
  21074573.0004    -325076.08045   -176473.88761
  18646290.1804  -27836382.36047 -19976207.71564
 91  3 26  1 10 29.9920000  0  5G15G13G 2G19G 6
  21213719.3594   -7662360.30145  -5831640.91661
  19952558.0634  -12265247.02746  -9085588.46661
  18612465.6644  -29008382.62548 -22603859.34064
  21079359.391     -299930.793 5   -156880.23621
  18638984.7664  -27874771.89447 -20006121.57864
 91  3 26  1 10 44.9920000  0  5G15G13G 2G19G 6
  21209549.0244   -7684277.31745  -5848719.02661
  19940058.5084  -12330930.63246  -9136770.27761
  18609884.1414  -29021948.38547 -22614430.03264
  21084151.938     -274724.134 5   -137238.74921
  18631692.7344  -27913092.87947 -20035982.02664
 91  3 26  1 10 59.9920000  0  5G15G13G 2G19G 6
  21205403.6564   -7706063.95346  -5865695.52861
  19927575.8134  -12396523.56546  -9187881.46161
  18607310.688   -29035471.325 7 -22624967.36124
  21088963.602     -249457.093 5   -117550.23021
  18624412.5944  -27951345.78847 -20065789.42864
 91  3 26  1 11 14.9920000  0  5G15G13G 2G19G 6
  21201282.2504   -7727719.89645  -5882570.18961
  19915111.336   -12462025.610 6  -9238921.80221
  18604747.5004  -29048951.54748 -22635471.40464
  21093781.375     -224129.850 5    -97814.77621
  18617147.6024  -27989530.40547 -20095543.61164
 91  3 26  1 11 29.9920000  0  5G15G13G 2G19G 6
  21197184.367    -7749243.443 5  -5899341.68621
  19902665.086   -12527434.904 6  -9289889.87721
  18602189.649   -29062387.480 8 -22645940.93524
  21098617.0784    -198740.90845    -78031.26261
  18609893.5554  -28027644.80247 -20125243.08264
 91  3 26  1 11 44.9920000  0  5G15G13G 2G19G 6
  21193114.2344   -7770635.81845  -5916010.97561
  19890231.9694  -12592752.22646  -9340786.30561
  18599643.0474  -29075780.33348 -22656376.89764
  21103457.5164    -173291.57545    -58200.67961
  18602654.6094  -28065689.89547 -20154888.55064
 91  3 26  1 11 59.9920000  0  5G15G13G 2G19G 6
  21189067.297    -7791896.009 5  -5932577.27821
  19877822.266   -12657976.682 6  -9391610.33821
  18597101.8054  -29089129.76448 -22666779.02464
  21108313.2664    -147781.21545    -38322.54161
  18595428.0944  -28103664.82547 -20184479.34964
 91  3 26  1 12 14.9920000  0  5G15G13G 2G19G 6
  21185048.1334   -7813024.84445  -5949041.22661
  19865429.508   -12723108.941 6  -9442362.54921
  18594569.0244  -29102436.65148 -22677147.99864
  21113174.8674    -122211.01145    -18397.77061
  18588212.922   -28141570.248 7 -20214015.98824
 91  3 26  1 12 29.9920000  0  5G15G13G 2G19G 6
  21181055.328    -7834017.937 6  -5965399.39121
  19853051.500   -12788144.286 6  -9493039.24321
  18592045.7344  -29115696.60648 -22687480.39764
  21118058.688      -96576.712 5      1576.92721
  18581015.602   -28179401.615 7 -20243494.91324
 91  3 26  1 12 44.9920000  0  5G15G13G 2G19G 6
  21177082.172    -7854875.712 5  -5981652.11221
  19840694.781   -12853082.639 6  -9543640.37121
  18589531.3674  -29128910.10848 -22697776.59565
  21122946.227      -70878.907 5     21601.12121
  18573830.1024  -28217158.91347 -20272916.13164
 91  3 26  1 12 59.9920000  0  5G15G13G 2G19G 6
  21173138.727    -7875607.675 5  -5997806.78321
  19828355.172   -12917933.813 6  -9594173.51821
  18587022.5084  -29142086.89748 -22708044.19265
  21127847.5944     -45127.54145     41667.05461
  18566656.461   -28254851.720 7 -20302287.09024
 91  3 26  1 13 14.9920000  0  5G15G13G 2G19G 6
  21169218.1414   -7896210.26146  -6013860.66261
  19816030.5164  -12982694.10046  -9644635.92661
  18584523.7664  -29155223.83948 -22718280.73365
  21132756.4454     -19319.23045     61777.36061
  18559498.0314  -28292476.50347 -20331605.04964
 91  3 26  1 13 29.9920000  0  5G15G13G 2G19G 6
  21165324.9304   -7916676.57745  -6029808.34161
  19803724.039   -13047356.139 6  -9695021.70821
  18582032.6094  -29168314.07248 -22728480.88165
  21137681.6954       6552.73145     81937.26661
  18552352.1094  -28330026.02547 -20360864.35764
 91  3 26  1 13 44.9920000  0  5G15G13G 2G19G 6
  21161455.5244   -7937013.70445  -6045655.35761
  19791438.6174  -13111926.72946  -9745336.24261
  18579550.5004  -29181364.54848 -22738650.04665
  21142612.961       32481.161 5    102141.17321
  18545220.0084  -28367507.04947 -20390070.28864
 91  3 26  1 13 59.9920000  0  5G15G13G 2G19G 6
  21157612.4614   -7957208.19946  -6061391.23361
  19779170.641   -13176392.425 6  -9795569.06021
  18577078.0394  -29194362.00948 -22748777.90264
  21147562.453       58479.180 5    122399.29921
  18538103.9534  -28404906.02447 -20419212.28564
 91  3 26  1 14 14.9920000  0  5G15G13G 2G19G 6
  21153793.6254   -7977268.11045  -6077022.24861
  19766921.4924  -13240761.34746  -9845726.47461
  18574610.8204  -29207314.80048 -22758870.94664
  21152519.539       84538.196 5    142704.95921
  18530999.6954  -28442231.10747 -20448296.70664
 91  3 26  1 14 29.9920000  0  5G15G13G 2G19G 6
  21149998.555    -7997198.860 5  -6092552.59421
  19754689.141   -13305038.661 6  -9895812.48521
  18572153.617   -29220228.803 8 -22768933.76524
  21157490.7744     110652.60445    163053.78461
  18523910.4224  -28479487.55447 -20477327.63964
 91  3 26  1 14 44.9920000  0  5G15G13G 2G19G 6
  21146234.9064   -8016992.81645  -6107976.35761
  19742475.3364  -13369216.65746  -9945821.12361
  18569703.727   -29233096.281 8 -22778960.32824
  21162471.5634     136829.72845    183451.47761
  18516835.8994  -28516667.53747 -20506298.98864
 91  3 26  1 14 59.9920000  0  5G15G13G 2G19G 6
  21142491.859    -8036650.521 5  -6123293.93821
  19730280.8054  -13433295.30746  -9995752.35561
  18567265.2974  -29245917.77948 -22788951.06664
  21167465.8834     163069.07845    203897.65761
  18509774.5004  -28553771.31347 -20535210.95764
 91  3 26  1 15 14.9920000  0  5G15G13G 2G19G 6
  21138780.078    -8056171.610 5  -6138505.07721
  19718107.0944  -13497274.43346 -10045606.02961
  18564834.477   -29258693.538 8 -22798906.15924
  21172468.3054     189370.39345    224392.13161
  18502729.9224  -28590798.62247 -20564063.34164
 91  3 26  1 15 29.9920000  0  5G15G13G 2G19G 6
  21135087.524    -8075556.255 5  -6153609.87921
  19705953.242   -13561153.720 6 -10095381.89221
  18562411.813   -29271423.785 8 -22808825.78824
  21177488.5244     215733.39045    244934.65261
  18495697.6024  -28627749.34247 -20592856.04464
 91  3 26  1 15 44.9920000  0  5G15G13G 2G19G 6
  21131424.8524   -8094806.99545  -6168610.35961
  19693814.656   -13624935.404 6 -10145081.73221
  18559996.867   -29284110.661 8 -22818711.62424
  21182515.3364     242155.37445    265523.14661
  18488680.6494  -28664625.54447 -20621590.68464
 91  3 26  1 15 59.9920000  0  5G15G13G 2G19G 6
  21127789.8054   -8113930.20845  -6183511.47061
  19681691.7664  -13688625.89446 -10194710.50461
  18557588.609   -29296760.932 8 -22828568.93224
  21187556.8204     268629.52745    286152.28361
  18481676.3134  -28701433.72447 -20650272.31364
 91  3 26  1 16 14.9920000  0  5G15G13G 2G19G 6
  21124174.313    -8132918.773 5  -6198307.65221
  19669593.8364  -13752217.71546 -10244262.36861
  18555190.594   -29309367.559 8 -22838392.23024
  21192601.781      295163.196 5    306827.81621
  18474684.9844  -28738166.32347 -20678895.05064
 91  3 26  1 16 29.9920000  0  5G15G13G 2G19G 6
  21120588.609    -8151775.746 5  -6213001.28721
  19657511.1094  -13815713.94346 -10293739.76261
  18552797.789   -29321933.925 8 -22848184.15724
  21197662.016      321752.952 5    327547.03221
  18467709.2344  -28774826.53747 -20707461.38364
 91  3 26  1 16 44.9920000  0  5G15G13G 2G19G 6
  21117025.0394   -8170493.40545  -6227586.36361
  19645445.250   -13879106.725 6 -10343136.55121
  18550416.727   -29334452.514 8 -22857938.85624
  21202729.5244     348405.92845    348315.51861
  18460748.6564  -28811406.47547 -20735965.16264
 91  3 26  1 16 59.9920000  0  5G15G13G 2G19G 6
  21113491.5554   -8189076.65145  -6242066.69861
  19633398.359   -13942401.017 6 -10392456.60021
  18548042.586   -29346928.597 8 -22867660.43224
  21207817.305      375116.797 5    369129.10021
  18453802.2034  -28847911.03947 -20764410.20864
 91  3 26  1 17 14.9920000  0  5G15G13G 2G19G 6
  21109977.3994   -8207522.72446  -6256440.16361
  19621377.5394  -14005593.49846 -10441697.28161
  18545677.899   -29359359.128 8 -22877346.50624
  21212910.9614     401888.36145    389989.98861
  18446869.078   -28884337.017 7 -20792794.01224
 91  3 26  1 17 29.9920000  0  5G15G13G 2G19G 6
  21106493.3834   -8225835.52246  -6270709.77861
  19609371.5864  -14068687.49446 -10490861.23861
  18543321.149   -29371747.854 8 -22887000.00924
  21218016.820      428716.891 5    410895.26921
  18439952.672   -28920687.947 7 -20821119.33824
 91  3 26  1 17 44.9920000  0  5G15G13G 2G19G 6
  21103032.6094   -8244009.94046  -6284871.56361
  19597381.422   -14131678.188 6 -10539944.72121
  18540971.164   -29384090.544 8 -22896617.63424
  21223132.242      455606.628 5    431848.23521
  18433050.336   -28956958.891 7 -20849382.34124
 91  3 26  1 17 59.9920000  0  5G15G13G 2G19G 6
  21099603.0244   -8262043.20146  -6298923.35761
  19585413.9224  -14194562.67646 -10588945.43161
  18538631.703   -29396384.505 8 -22906197.29524
  21228266.727      482560.143 5    452850.89821
  18426163.617   -28993147.055 7 -20877580.83524
 91  3 26  1 18 14.9920000  0  5G15G13G 2G19G 6
  21096196.0554   -8279952.09346  -6312878.24461
  19573468.5314  -14257357.27846 -10637876.09261
  18536298.8204  -29408646.18048 -22915751.79064
  21233399.047      509560.797 5    473890.28221
  18419289.664   -29029268.721 7 -20905727.50624
 91  3 26  1 18 29.9920000  0  5G15G13G 2G19G 6
  21092808.602    -8297723.283 6  -6326725.82421
  19561537.703   -14320048.603 6 -10686726.27021
  18533973.672   -29420862.443 8 -22925270.89524
  21238553.844      536621.615 4    494976.55921
  18412430.445   -29065310.385 7 -20933811.83924
 91  3 26  1 18 44.9920000  0  5G15G13G 2G19G 6
  21089456.7424   -8315359.78946  -6340468.45761
  19549625.6414  -14382639.59346 -10735498.28561
  18531656.914   -29433036.465 8 -22934757.10024
  21243710.2584     563739.22945    516107.07561
  18405587.1414  -29101274.86547 -20961836.04764
 91  3 26  1 18 59.9920000  0  5G15G13G 2G19G 6
  21086123.180    -8332860.072 6  -6354104.93921
  19537733.5554  -14445128.53946 -10784190.79261
  18529348.797   -29445167.033 8 -22944209.43924
  21248884.1804     590914.84645    537282.79961
  18398759.172   -29137160.635 7 -20989798.91124
 91  3 26  1 19 14.9920000  0  5G15G13G 2G19G 6
  21082826.3674   -8350223.66246  -6367634.91861
  19525860.0704  -14507514.85246 -10832803.30061
  18527047.742   -29457253.640 8 -22953627.52224
  21254064.453      618148.779 4    558503.97321
  18391944.242   -29172967.069 7 -21017699.95824
 91  3 26  1 19 29.9920000  0  5G15G13G 2G19G 6
  21079541.5704   -8367447.78446  -6381056.22761
  19514012.031   -14569795.316 6 -10881333.35921
  18524757.945   -29469293.737 8 -22963009.36324
  21259259.1414     645443.44244    579772.46761
  18385147.016   -29208691.107 7 -21045536.79924
 91  3 26  1 19 44.9920000  0  5G15G13G 2G19G 6
  21076294.0944   -8384532.15946  -6394368.64661
  19502180.945   -14631969.589 6 -10929780.62521
  18522475.359   -29481286.978 8 -22972354.69424
  21264463.0084     672798.95445    601088.38261
  18378365.117   -29244332.225 7 -21073309.02524
 91  3 26  1 19 59.9920000  0  5G15G13G 2G19G 6
  21073069.891    -8401480.051 5  -6407574.71021
  19490366.274   -14694040.900 6 -10978147.70721
  18520201.711   -29493236.844 8 -22981666.22224
  21269683.0004     700211.83444    622448.97361
  18371597.156   -29279893.683 7 -21101019.18324
 91  3 26  1 20 14.9920000  0  5G15G13G 2G19G 6
  21069869.8594   -8418293.36946  -6420675.90961
  19478573.805   -14756010.641 6 -11026435.63821
  18517933.758   -29505145.310 8 -22990945.49624
  21274905.102      727680.200 4    643852.81321
  18364845.313   -29315376.932 7 -21128668.39524
 91  3 26  1 20 29.9920000  0  5G15G13G 2G19G 6
  21066694.711    -8434970.824 6  -6433671.25921
  19466802.8204  -14817877.20846 -11074643.14361
  18515675.828   -29517011.234 8 -23000191.62324
  21280146.3674     755205.00444    665300.62961
  18358107.7114  -29350780.53447 -21156255.54864
 91  3 26  1 20 44.9920000  0  5G15G13G 2G19G 6
  21063546.5634   -8451512.09145  -6446560.46661
  19455049.734   -14879640.149 7 -11122769.92821
  18513427.758   -29528834.351 8 -23009404.39124
  21285391.6334     782786.32044    686792.48661
  18351386.1094  -29386103.94247 -21183780.21764
 91  3 26  1 20 59.9920000  0  5G15G13G 2G19G 6
  21060421.8444   -8467912.56345  -6459339.97161
  19443315.063   -14941294.848 6 -11170812.36321
  18511185.672   -29540610.110 8 -23018580.26124
  21290655.805      810428.577 4    708331.83721
  18344679.9614  -29421342.21247 -21211238.54064
 91  3 26  1 21 14.9920000  0  5G15G13G 2G19G 6
  21057331.500    -8484172.806 5  -6472010.20821
  19431603.375   -15002841.721 6 -11218770.78521
  18508954.672   -29552339.412 8 -23027719.93124
  21295925.883      838130.780 4    729917.87321
  18337990.7664  -29456496.08147 -21238631.09763
 91  3 26  1 21 29.9920000  0  5G15G13G 2G19G 6
  21054266.1414   -8500295.55546  -6484573.29061
  19419911.008   -15064283.180 6 -11266647.06321
  18506728.953   -29564024.973 8 -23036825.51424
  21301214.711      865889.930 4    751548.29221
  18331317.0084  -29491568.00547 -21265959.80863
 91  3 26  1 21 44.9920000  0  5G15G13G 2G19G 6
  21051222.524    -8516284.635 6  -6497032.23521
  19408238.586   -15125623.051 6 -11314444.16921
  18504514.274   -29575670.613 8 -23045899.99324
  21306500.508      893702.112 5    773220.06121
  18324657.6494  -29526561.59047 -21293227.47363
 91  3 26  1 21 59.9920000  0  5G15G13G 2G19G 6
  21048202.922    -8532133.798 6  -6509382.14921
  19396587.6254  -15186854.62246 -11362156.88861
  18502305.508   -29587270.382 8 -23054938.72624
  21311807.250      921573.364 4    794937.84821
  18318013.5394  -29561470.46047 -21320429.12363
 91  3 26  1 22 14.9920000  0  5G15G13G 2G19G 6
  21045212.1564   -8547851.20446  -6521629.38861
  19384953.977   -15247986.103 6 -11409791.62421
  18500106.188   -29598832.614 8 -23063948.21724
  21317116.797      949495.140 4    816694.99421
  18311385.8594  -29596302.64647 -21347571.03363
 91  3 26  1 22 29.9920000  0  5G15G13G 2G19G 6
  21042250.2424   -8563433.53646  -6533771.37561
  19373341.149   -15309013.763 6 -11457345.46021
  18497912.586   -29610354.122 8 -23072925.97124
  21322443.1094     977470.57044    838493.95861
  18304773.2274  -29631054.42447 -21374650.27663
 91  3 26  1 22 44.9920000  0  5G15G13G 2G19G 6
  21039308.8754   -8578875.08146  -6545803.66361
  19361747.7584  -15369931.70146 -11504813.79761
  18495730.3754  -29621829.05848 -23081867.44064
  21327775.2744    1005505.18844    860339.02461
  18298177.4924  -29665719.99247 -21401662.35063
 91  3 26  1 22 59.9920000  0  5G15G13G 2G19G 6
  21036397.5634   -8594182.23046  -6557731.20861
  19350175.3914  -15430746.38546 -11552201.66661
  18493553.649   -29633264.101 8 -23090777.81825
  21333121.492     1033592.147 4    882224.89121
  18291594.0944  -29700305.56747 -21428612.08363
 91  3 26  1 23 14.9920000  0  5G15G13G 2G19G 6
  21033509.4304   -8609348.61646  -6569549.07461
  19338623.867   -15491450.989 6 -11599503.75821
  18491387.8524  -29644652.86648 -23099652.13564
  21338478.656     1061737.736 5    904156.43021
  18285030.0314  -29734804.51947 -21455494.32463
 91  3 26  1 23 29.9920000  0  5G15G13G 2G19G 6
  21030652.859    -8624378.455 5  -6581260.56221
  19327091.984   -15552049.725 6 -11646723.36721
  18489226.563   -29655999.512 8 -23108493.63724
  21343847.9304    1089937.65344    926130.30061
  18278481.6804  -29769220.81647 -21482312.15363
 91  3 26  1 23 44.9920000  0  5G15G13G 2G19G 6
  21027814.1954   -8639271.82545  -6592865.68861
  19315578.836   -15612542.281 6 -11693860.23421
  18487076.016   -29667304.208 8 -23117302.44824
  21349219.883     1118191.735 4    948146.39321
  18271947.5474  -29803554.20947 -21509065.37963
 91  3 26  1 23 59.9920000  0  5G15G13G 2G19G 6
  21025005.570    -8654026.760 5  -6604362.93921
  19304088.6644  -15672926.55046 -11740912.73261
  18484932.539   -29678565.164 8 -23126077.17324
  21354611.0634    1146501.68144    970206.00361
  18265428.8284  -29837802.57847 -21535752.35763
 91  3 26  1 24 14.9920000  0  5G15G13G 2G19G 6
  21022229.9774   -8668645.51346  -6615754.08561
  19292618.4304  -15733204.85946 -11787882.65861
  18482799.2504  -29689784.77348 -23134819.68564
  21360006.219     1174864.727 4    992307.02321
  18258928.2974  -29871968.21547 -21562374.86463
 91  3 26  1 24 29.9920000  0  5G15G13G 2G19G 6
  21019471.3134   -8683128.49845  -6627039.42761
  19281169.328   -15793376.983 6 -11834769.85421
  18480671.1884  -29700963.73948 -23143530.52564
  21365415.891     1203280.315 4   1014448.95721
  18252442.1414  -29906051.26347 -21588933.02063
 91  3 26  1 24 44.9920000  0  5G15G13G 2G19G 6
  21016745.453    -8697469.215 6  -6638213.90621
  19269739.9614  -15853436.21847 -11881569.06261
  18478551.258   -29712095.478 8 -23152204.56524
  21370830.7424    1231754.79744   1036636.78161
  18245972.6334  -29940044.88047 -21615421.49163
 91  3 26  1 24 59.9910000  0  5G15G13G 2G19G 6
  21014038.706    -8711674.416 5  -6649282.78521
  19258331.917   -15913386.041 7 -11928283.03821
  18476442.112   -29723186.901 8 -23160847.19125
  21376259.0344    1260278.52944   1058862.95461
  18239520.6984  -29973954.27147 -21641844.32263
 91  3 26  1 25 14.9910000  0  5G15G13G 2G19G 6
  21011365.3704   -8725739.33846  -6660242.37761
  19246941.9724  -15973227.70946 -11974912.73861
  18474340.5034  -29734232.84148 -23169454.37565
  21381695.9174    1288861.69144   1081135.47961
  18233084.5974  -30007777.07047 -21668199.68864
 91  3 26  1 25 29.9910000  0  5G15G13G 2G19G 6
  21008712.0974   -8739671.55246  -6671098.54461
  19235575.878   -16032965.529 6 -12021461.51121
  18472244.355   -29745241.135 8 -23178032.22725
  21387148.519     1317493.559 3   1103445.96821
  18226663.1674  -30041519.34647 -21694492.30963
 91  3 26  1 25 44.9910000  0  5G15G13G 2G19G 6
  21006084.151    -8753464.073 6  -6681845.87321
  19224229.776   -16092592.590 6 -12067923.97821
  18470159.6834  -29756205.13048 -23186575.55964
  21392607.534     1346181.042 4   1125799.76221
  18220259.3864  -30075173.90647 -21720716.57663
 91  3 26  1 25 59.9910000  0  5G15G13G 2G19G 6
  21003484.6444   -8767115.62846  -6692483.36761
  19212904.5504  -16152107.24347 -12114298.84361
  18468082.0034  -29767123.65148 -23195083.46265
  21398078.862     1374925.038 3   1148197.60221
  18213871.4254  -30108739.32847 -21746871.39163
 91  3 26  1 26 14.9910000  0  5G15G13G 2G19G 6
  21000914.9954   -8780634.04746  -6703017.10861
  19201599.4954  -16211516.75446 -12160591.80361
  18466009.6444  -29778004.25348 -23203561.81065
  21403553.7144    1403717.83443   1170633.47261
  18207499.3624  -30142222.93347 -21772962.45463
 91  3 26  1 26 29.9910000  0  5G15G13G 2G19G 6
  20998371.581    -8794016.075 6  -6713444.54921
  19190312.0344  -16270817.93646 -12206800.34361
  18463947.378   -29788844.046 8 -23212008.36025
  21409041.7614    1432562.15743   1193109.49761
  18201145.5344  -30175621.42847 -21798987.19663
 91  3 26  1 26 44.9910000  0  5G15G13G 2G19G 6
  20995848.7144   -8807255.10246  -6723760.57461
  19179048.8004  -16330003.88046 -12252919.08561
  18461893.9874  -29799636.32148 -23220417.88165
  21414542.1514    1461464.39043   1215630.63861
  18194806.4014  -30208928.05847 -21824940.35463
 91  3 26  1 26 59.9910000  0  5G15G13G 2G19G 6
  20993361.4094   -8820355.58346  -6733968.65761
  19167807.7614  -16389079.00946 -12298951.48361
  18459848.730   -29810385.650 8 -23228793.94025
  21420054.3474    1490419.95743   1238193.33361
  18188485.4644  -30242147.01247 -21850825.19663
 91  3 26  1 27 14.9910000  0  5G15G13G 2G19G 6
  20990886.5814   -8833318.18846  -6744069.29561
  19156588.1364  -16448043.68746 -12344897.80961
  18457810.2614  -29821092.66448 -23237137.02864
  21425569.784     1519428.032 3   1260796.97821
  18182181.1364  -30275278.77447 -21876642.09563
 91  3 26  1 27 29.9910000  0  5G15G13G 2G19G 6
  20988451.284    -8846145.837 6  -6754064.76721
  19145386.831   -16506900.544 6 -12390760.13321
  18455779.159   -29831760.223 8 -23245449.36824
  21431103.605     1548485.547 3   1283439.10921
  18175892.3234  -30308325.80747 -21902392.97863
 91  3 26  1 27 44.9910000  0  5G15G13G 2G19G 6
  20986030.6984   -8858834.57745  -6763951.99361
  19134208.972   -16565645.443 6 -12436535.20321
  18453759.175   -29842384.788 8 -23253728.20524
  21436643.237     1577596.188 3   1306122.65721
  18169620.3084  -30341284.22147 -21928074.79263
 91  3 26  1 27 59.9910000  0  5G15G13G 2G19G 6
  20983644.1364   -8871383.27645  -6773730.09261
  19123052.316   -16624276.923 6 -12482221.90121
  18451746.214   -29852965.028 8 -23261972.50524
  21442196.206     1606761.169 3   1328848.52721
  18163364.776   -30374152.316 7 -21953686.24023
 91  3 26  1 28 14.9910000  0  5G15G13G 2G19G 6
  20981285.5344   -8883793.13446  -6783400.03061
  19111917.511   -16682796.130 7 -12527821.12021
  18449739.886   -29863502.289 8 -23270183.31724
  21447751.269     1635978.743 3   1351615.39521
  18157127.167   -30406931.228 7 -21979228.19423
 91  3 26  1 28 29.9910000  0  5G15G13G 2G19G 6
  20978950.073    -8896067.761 5  -6792964.59121
  19100801.339   -16741206.486 6 -12573335.52621
  18447741.269   -29874000.330 8 -23278363.56524
  21453328.894     1665245.119 3   1374420.27821
  18150906.761   -30439624.470 7 -22004703.39223
 91  3 26  1 28 44.9910000  0  5G15G13G 2G19G 6
  20976639.7304   -8908203.69945  -6802421.07061
  19089704.691   -16799504.324 6 -12618762.26121
  18445753.5264  -29884455.72548 -23286510.58564
  21458902.3624    1694563.53743   1397265.70961
  18144702.120   -30472228.100 7 -22030108.76423
 91  3 26  1 28 59.9910000  0  5G15G13G 2G19G 6
  20974362.2534   -8920194.27046  -6811764.29461
  19078633.8554  -16857682.56446 -12664095.79661
  18443771.870   -29894861.777 8 -23294619.15524
  21464494.6284    1723940.47244   1420156.75661
  18138515.1674  -30504735.30147 -22055438.99163
 91  3 26  1 29 14.9910000  0  5G15G13G 2G19G 6
  20972106.394    -8932044.592 5  -6820998.21621
  19067586.0344  -16915746.36646 -12709340.16061
  18441801.839   -29905223.717 8 -23302693.35224
  21470092.589     1753370.573 4   1443089.22221
  18132347.011   -30537151.107 7 -22080698.00723
 91  3 26  1 29 29.9910000  0  5G15G13G 2G19G 6
  20969872.730    -8943754.628 5  -6830122.83521
  19056559.1514  -16973695.59546 -12754495.24861
  18439834.347   -29915541.766 8 -23310733.34424
  21475702.8864    1782853.45944   1466062.83261
  18126196.589   -30569475.272 7 -22105885.61523
 91  3 26  1 29 44.9910000  0  5G15G13G 2G19G 6
  20967670.433    -8955330.987 5  -6839143.30121
  19045551.847   -17031536.471 6 -12799565.90321
  18437882.097   -29925822.341 8 -23318744.14024
  21481319.823     1812382.576 4   1489072.44921
  18120060.691   -30601713.904 7 -22131006.57023
 91  3 26  1 29 59.9910000  0  5G15G13G 2G19G 6
  20965490.206    -8966766.266 5  -6848053.81921
  19034565.8314  -17089261.70146 -12844546.45161
  18435932.8944  -29936058.17748 -23326720.07864
  21486951.112     1841965.064 4   1512123.66921
  18113943.9484  -30633859.59347 -22156055.10463
 91  3 26  1 30 14.9910000  0  5G15G13G 2G19G 6
  20963344.019    -8978062.996 5  -6856856.38821
  19023603.7224  -17146873.12446 -12889438.31561
  18433994.370   -29946251.744 8 -23334663.07424
  21492591.1124    1871598.27044   1535214.40861
  18107843.331   -30665914.504 7 -22181032.90223
 91  3 26  1 30 29.9910000  0  5G15G13G 2G19G 6
  20961221.691    -8989219.761 6  -6865549.90021
  19012662.9644  -17204369.11046 -12934240.23061
  18432062.1124  -29956401.47248 -23342571.91664
  21498244.769     1901283.494 3   1558345.67521
  18101762.011   -30697877.107 7 -22205938.77523
 91  3 26  1 30 44.9910000  0  5G15G13G 2G19G 6
  20959120.5584   -9000238.21545  -6874135.65161
  19001742.8704  -17261751.17346 -12978953.37561
  18430137.862   -29966509.321 8 -23350448.12024
  21503897.878     1931018.803 4   1581515.94421
  18095697.800   -30729748.516 7 -22230773.58723
 91  3 26  1 30 59.9910000  0  5G15G13G 2G19G 6
  20957057.167    -9011113.363 5  -6882609.72821
  18990844.8864  -17319014.18846 -13023573.75961
  18428223.6674  -29976570.18348 -23358287.71564
  21509569.6284    1960809.01944   1604729.01161
  18089650.730   -30761523.672 7 -22255533.39623
 91  3 26  1 31 14.9910000  0  5G15G13G 2G19G 6
  20955011.2144   -9021846.16046  -6890972.86361
  18979970.0734  -17376158.66746 -13068101.77561
  18426316.019   -29986584.969 8 -23366091.39824
  21515245.7614    1990653.30944   1627984.19461
  18083621.550   -30793203.158 7 -22280218.66223
 91  3 26  1 31 29.9910000  0  5G15G13G 2G19G 6
  20952998.0194   -9032438.78445  -6899226.78261
  18969118.714   -17433186.696 6 -13112539.05921
  18424419.409   -29996556.089 8 -23373861.05924
  21520936.261     2020549.098 3   1651279.54521
  18077609.925   -30824788.992 7 -22304830.95623
 91  3 26  1 31 44.9910000  0  5G15G13G 2G19G 6
  20951006.7144   -9042895.98345  -6907375.16461
  18958286.8004  -17490102.77646 -13156889.09761
  18422530.3234  -30006488.25948 -23381600.36764
  21526632.401     2050491.416 3   1674611.15121
  18071617.698   -30856285.480 7 -22329373.62023
 91  3 26  1 31 59.9910000  0  5G15G13G 2G19G 6
  20949041.0814   -9053215.35246  -6915416.17761
  18947478.9954  -17546904.37846 -13201149.94561
  18420649.7064  -30016379.07248 -23389307.45564
  21532345.1284    2080482.55543   1697980.77761
  18065642.120   -30887690.253 7 -22353844.81623
 91  3 26  1 32 14.9910000  0  5G15G13G 2G19G 6
  20947108.3004   -9063384.93746  -6923340.46661
  18936693.6984  -17603579.36746 -13245312.12761
  18418775.8944  -30026216.75748 -23396973.14264
  21538058.417     2110534.077 4   1721397.46521
  18059684.292   -30918991.123 7 -22378235.05623
 91  3 26  1 32 29.9910000  0  5G15G13G 2G19G 6
  20945198.7374   -9073415.30645  -6931156.25861
  18925930.3784  -17660137.76446 -13289383.46461
  18416911.058   -30036011.596 8 -23404605.43224
  21543788.980     2140635.498 3   1744853.03021
  18053746.472   -30950197.976 7 -22402552.03023
 91  3 26  1 32 44.9910000  0  5G15G13G 2G19G 6
  20943320.9564   -9083306.92345
  18915189.558   -17716580.237 6 -13333364.46821
  18415056.831   -30045764.322 8
  21549525.089     2170785.939 3   1768346.79421
  18047826.237   -30981311.404 7 -22426796.20823
 91  3 26  1 32 59.9910000  0  5G15G13G 2G19G 6
  20941465.4874   -9093053.70345
  18904473.034   -17772900.261 7 -13377250.05521
  18413209.878   -30055468.804 8
  21555273.2694    2200991.43043   1791883.42661
  18041923.995   -31012325.050 7 -22450962.63623
 91  3 26  1 33 14.9910000  0  5G15G13G 2G19G 6
  20939635.5974   -9102659.44645  -6953943.69261
  18893777.7534  -17829101.47347 -13421043.06361
  18411372.597   -30065128.805 8 -23427294.02724
  21561030.136     2231247.981 4   1815459.89421
  18036039.198   -31043242.310 7 -22475053.95023
 91  3 26  1 33 29.9910000  0  5G15G13G 2G19G 6
  20937833.261    -9112125.827 5  -6961320.02021
  18883105.253   -17885185.338 7 -13464744.63421
  18409540.441   -30074746.140 8 -23434788.00824
  21566798.8084    2261553.73743   1839074.71361
  18030174.7694  -31074064.81447 -22499071.43163
 91  3 26  1 33 44.9910000  0  5G15G13G 2G19G 6
  20936057.597    -9121454.283 5  -6968588.85921
  18872455.870   -17941152.858 7 -13508355.54421
  18407718.331   -30084321.991 8 -23442249.66624
  21572570.4484    2291907.16143   1862726.65461
  18024327.753   -31104793.412 7 -22523015.74123
 91  3 26  1 33 59.9910000  0  5G15G13G 2G19G 6
  20934306.5734   -9130639.02745  -6975745.73261
  18861828.4174  -17996998.30647 -13551871.33561
  18405906.542   -30093850.718 8 -23449674.60524
  21578362.284     2322313.780 3   1886420.02921
  18018498.847   -31135422.300 7 -22546882.35323
 91  3 26  1 34 14.9910000  0  5G15G13G 2G19G 6
  20932587.9644   -9139691.10845  -6982799.23761
  18851222.5974  -18052732.51747 -13595300.44761
  18404098.714   -30103343.575 8 -23457071.58824
  21584150.378     2352762.145 3   1910145.96221
  18012687.261   -31165962.406 7 -22570679.78123
 91  3 26  1 34 29.9910000  0  5G15G13G 2G19G 6
  20930891.675    -9148602.663 5  -6989743.22721
  18840640.159   -18108347.153 7 -13638636.38821
  18402298.964   -30112792.550 8 -23464434.38224
  21589957.925     2383260.151 3   1933910.56921
  18006894.355   -31196405.312 7 -22594401.47123
 91  3 26  1 34 44.9910000  0  5G15G13G 2G19G 6
  20929222.1054   -9157367.15545  -6996572.64161
  18830079.917   -18163835.477 7 -13681873.90421
  18400510.9014  -30122191.07748 -23471757.86664
  21595768.5344    2413814.22043   1957718.82161
  18001119.1914  -31226744.07747 -22618042.00963
 91  3 26  1 34 59.9910000  0  5G15G13G 2G19G 6
  20927582.558    -9165998.861 5  -7003298.56321
  18819541.066   -18219211.936 7 -13725024.24521
  18398731.222   -30131553.492 8 -23479053.20624
  21601594.730     2444409.899 3   1981559.54121
  17995364.9174  -31256992.87847 -22641612.44863
 91  3 26  1 35 14.9910000  0  5G15G13G 2G19G 6
  20925963.995    -9174486.613 6  -7009912.32821
  18809028.0114  -18274464.77647 -13768078.26361
  18396959.003   -30140868.462 8 -23486311.57424
  21607424.6124    2475058.26543   2005441.30961
  17989627.644   -31287140.371 7 -22665103.94923
 91  3 26  1 35 29.9910000  0  5G15G13G 2G19G 6
  20924379.323    -9182837.278 6  -7016419.25121
  18798535.386   -18329600.721 7 -13811041.19721
  18395192.323   -30150142.953 8 -23493538.40824
  21613267.2454    2505752.23443   2029358.59061
  17983907.6364  -31317192.90247 -22688521.44564
 91  3 26  1 35 44.9910000  0  5G15G13G 2G19G 6
  20922813.378    -9191047.536 6  -7022816.78021
  18788066.0894  -18384616.13647 -13853910.21161
  18393436.042   -30159373.647 8 -23500731.11424
  21619117.237     2536494.880 3   2053313.82921
  17978207.8864  -31347147.01547 -22711862.25463
 91  3 26  1 35 59.9910000  0  5G15G13G 2G19G 6
  20921276.6514   -9199120.06346  -7029107.00461
  18777618.058   -18439513.426 7 -13896687.17321
  18391687.050   -30168563.253 8 -23507891.79824
  21624978.253     2567283.264 3   2077304.69521
  17972527.6984  -31377005.28847 -22735128.38263
 91  3 26  1 36 14.9910000  0  5G15G13G 2G19G 6
  20919765.878    -9207056.626 6  -7035291.24921
  18767193.886   -18494294.437 7 -13939373.53321
  18389944.573   -30177713.496 8 -23515021.81124
  21630845.237     2598115.417 3   2101329.65221
  17966862.253   -31406769.168 7 -22758320.95823
 91  3 26  1 36 29.9910000  0  5G15G13G 2G19G 6
  20918284.9874   -9214853.48546  -7041366.64661
  18756792.3474  -18548954.98947 -13981966.02261
  18388213.534   -30186820.667 8 -23522118.25724
  21636725.480     2628995.041 3   2125391.61321
  17961217.339   -31436434.405 7 -22781436.67223
 91  3 26  1 36 44.9910000  0  5G15G13G 2G19G 6
  20916824.909    -9222506.458 5  -7047329.92421
  18746414.2144  -18603490.77647 -14024461.29561
  18386489.331   -30195880.657 8 -23529177.94224
  21642607.0974    2659926.14043   2149493.71061
  17955591.9954  -31465996.80847 -22804472.24763
 91  3 26  1 36 59.9910000  0  5G15G13G 2G19G 6
  20915399.558    -9230018.078 6  -7053183.07921
  18736059.7374  -18657903.92747 -14066861.00961
  18384773.167   -30204895.718 8 -23536202.62224
  21648502.4564    2690906.08843   2173633.86261
  17949985.5264  -31495458.40447 -22827429.27963
 91  3 26  1 37 14.9910000  0  5G15G13G 2G19G 6
  20913995.6514   -9237390.01746  -7058927.34561
  18725726.378   -18712196.081 7 -14109166.45021
  18383067.714   -30213867.690 8 -23543193.72524
  21654404.370     2721933.257 3   2197810.77121
  17944399.167   -31524820.546 7 -22850308.82223
 91  3 26  1 37 29.9910000  0  5G15G13G 2G19G 6
  20912619.9254   -9244621.93646  -7064562.53561
  18715418.362   -18766366.631 7 -14151377.11821
  18381367.519   -30222796.288 8 -23550151.02224
  21660318.737     2753007.505 3   2222024.39821
  17938830.9414  -31554082.73547 -22873110.46663
 91  3 26  1 37 44.9910000  0  5G15G13G 2G19G 6
  20911266.6284   -9251716.30646  -7070090.54761
  18705134.667   -18820417.950 7 -14193494.87921
  18379675.526   -30231684.133 8 -23557076.56924
  21666241.323     2784126.138 4   2246272.61121
  17933280.4014  -31583247.57947 -22895836.25963
 91  3 26  1 37 59.9910000  0  4G15G13G 2G 6
  20909944.0194   -9258664.47446  -7075504.61361
  18694874.339   -18874340.751 7 -14235512.50121
  18377991.886   -30240522.081 8 -23563963.24124
  17927750.2064  -31612305.41347 -22918478.67163
 91  3 26  1 38 14.9910000  0  4G15G13G 2G 6
  20908653.448    -9265464.871 6  -7080803.54321
  18684638.237   -18928133.465 7 -14277428.76221
  18376320.816   -30249308.747 8 -23570809.94924
  17922241.4014  -31641254.72047 -22941036.51063
 91  3 26  1 38 29.9910000  0  4G15G13G 2G 6
  20907383.6514   -9272125.16145  -7085993.28661
  18674425.0664  -18981803.51247 -14319249.43461
  18374659.394   -30258051.685 8 -23577622.58424
  17916751.8394  -31670102.84247 -22963515.51163
 91  3 26  1 38 44.9910000  0  4G15G13G 2G 6
  20906143.0814   -9278641.82346  -7091071.12861
  18664234.5034  -19035347.29947 -14360971.72961
  18373004.026   -30266747.585 8 -23584398.56624
  17911282.0424  -31698846.01047 -22985912.72163
 91  3 26  1 38 59.9910000  0  4G15G13G 2G 6
  20904931.855    -9285013.699 5  -7096036.12721
  18654070.198   -19088763.218 7 -14402594.38321
  18371357.003   -30275395.155 8 -23591136.88924
  17905831.8474  -31727482.72647 -23008226.98563
 91  3 26  1 39 14.9910000  0  4G15G13G 2G 6
  20903744.7304   -9291250.83245  -7100896.14961
  18643926.941   -19142061.194 7 -14444125.13722
  18369719.901   -30284004.262 8 -23597845.23524
  17900400.5664  -31756022.76147 -23030465.91963
 91  3 26  1 39 29.9910000  0  4G15G13G 2G 6
  20902580.980    -9297345.510 5  -7105645.17921
  18633808.816   -19195233.267 7 -14485557.78121
  18368089.355   -30292567.295 8 -23604517.68324
  17894989.8624  -31784458.16847 -23052623.32463
 91  3 26  1 39 44.9910000  0  4G15G13G 2G 6
  20901455.5264   -9303296.25945  -7110282.03761
  18623714.191   -19248277.593 7 -14526890.88621
  18366468.683   -30301082.752 8 -23611153.06724
  17889600.823   -31812787.185 7 -23074697.82623
 91  3 26  1 39 59.9910000  0  4G15G13G 2G 6
  20900345.503    -9309106.717 5  -7114809.58021
  18613643.159   -19301197.662 7 -14568127.16521
  18364859.253   -30309554.149 8 -23617754.11124
  17884228.714   -31841012.943 7 -23096691.86723
 91  3 26  1 40 14.9910000  0  4G15G13G 2G 6
  20899265.7764   -9314779.15045  -7119229.59261
  18603596.972   -19353995.544 7 -14609268.23021
  18363253.472   -30317983.950 8 -23624322.73724
  17878875.6284  -31869137.69547 -23118607.19963
 91  3 26  1 40 29.9910000  0  4G15G13G 2G 6
  20898215.019    -9320303.868 6  -7123534.47621
  18593575.097   -19406661.484 7 -14650306.48721
  18361660.667   -30326362.283 8 -23630851.26924
  17873544.9484  -31897151.43347 -23140436.03163
 91  3 26  1 40 44.9910000  0  4G15G13G 2G 6
  20897187.5344   -9325694.65645  -7127734.98961
  18583576.300   -19459208.676 7 -14691252.22121
  18360073.3164  -30334702.84948 -23637350.37564
  17868233.878   -31925067.489 7 -23162188.74823
 91  3 26  1 40 59.9910000  0  4G15G13G 2G 6
  20896190.839    -9330946.629 5  -7131827.35021
  18573599.5734  -19511632.10147 -14732101.50061
  18358492.6984  -30343000.82448 -23643816.29164
  17862941.5114  -31952880.68547 -23183861.30863
 91  3 26  1 41 14.9910000  0  4G15G13G 2G 6
  20895216.894    -9336054.803 5  -7135807.64021
  18563647.714   -19563926.367 7 -14772850.14421
  18356923.4954  -30351250.83248 -23650244.82964
  17857668.214   -31980585.542 7 -23205449.45023
 91  3 26  1 41 29.9910000  0  4G15G13G 2G 6
  20894268.050    -9341028.165 5  -7139682.88221
  18553719.526   -19616100.542 7 -14813505.21321
  18355360.8624  -30359461.92348 -23656643.04864
  17852416.300   -32008190.980 7 -23226960.12723
 91  3 26  1 41 44.9910000  0  4G15G13G 2G 6
  20893353.316    -9345856.940 6  -7143445.47321
  18543815.573   -19668144.555 7 -14854058.85921
  18353808.5974  -30367624.53748 -23663003.48364
  17847182.042   -32035687.045 7 -23248385.58123
 91  3 26  1 41 59.9910000  0  4G15G13G 2G 6
  20892462.605    -9350542.517 6  -7147096.45821
  18533936.573   -19720059.603 7 -14894512.01421
  18352261.6514  -30375739.96448 -23669327.15864
  17841971.964   -32063074.802 7 -23269726.64323
 91  3 26  1 42 14.9910000  0  4G15G13G 2G 6
  20891599.5894   -9355081.54746  -7150633.27461
  18524082.597   -19771841.809 7 -14934861.65221
  18350728.0814  -30383804.63048 -23675611.27664
  17836780.909   -32090350.396 7 -23290980.30423
 91  3 26  1 42 29.9910000  0  4G15G13G 2G 6
  20890758.7064   -9359478.80745  -7154059.61661
  18514252.120   -19823496.072 7 -14975111.59821
  18349201.9174  -30391823.52548 -23681859.72764
  17831611.276   -32117518.465 7 -23312150.18323
 91  3 26  1 42 44.9910000  0  4G15G13G 2G 6
  20889953.089    -9363737.691 6  -7157378.14821
  18504448.1514  -19875025.31347 -15015264.13161
  18347682.9094  -30399799.71948 -23688074.91164
  17826459.495   -32144581.918 7 -23333238.53623
 91  3 26  1 42 59.9910000  0  4G15G13G 2G 6
  20889164.7764   -9367859.50645  -7160589.88061
  18494665.4414  -19926431.03947 -15055320.41661
  18346173.8164  -30407734.60748 -23694257.90764
  17821330.456   -32171541.993 7 -23354246.34723
 91  3 26  1 43 14.9910000  0  4G15G13G 2G 6
  20888410.2614   -9371843.15545  -7163693.94961
  18484906.3004  -19977711.69447 -15095279.24261
  18344670.5814  -30415626.92548 -23700407.72964
  17816220.800   -32198397.201 7 -23375172.44023
 91  3 26  1 43 29.9910000  0  4G15G13G 2G 6
  20887676.0344   -9375679.98945  -7166683.57961
  18475173.0894  -20028857.99947 -15135133.38461
  18343181.8784  -30423467.96348 -23706517.60064
  17811131.5424  -32225138.49147 -23396009.77263
 91  3 26  1 43 44.9910000  0  4G15G13G 2G 6
  20886972.737    -9379377.569 5  -7169564.73021
  18465463.7374  -20079877.62547 -15174888.81961
  18341698.3314  -30431265.54948 -23712593.61064
  17806062.9414  -32251773.46247 -23416764.25563
 91  3 26  1 43 59.9910000  0  4G15G13G 2G 6
  20886295.073    -9382942.366 5  -7172342.40421
  18455778.4804  -20130776.38547 -15214550.07361
  18340218.4724  -30439025.63948 -23718640.40364
  17801013.2534  -32278307.64547 -23437440.20763
 91  3 26  1 44 14.9910000  0  4G15G13G 2G 6
  20885645.1914   -9386361.75746  -7175006.77661
  18446119.2454  -20181541.73347 -15254107.36761
  18338753.409   -30446735.605 8 -23724648.14324
  17795984.2844  -32304728.32947 -23458027.71563
 91  3 26  1 44 29.9910000  0  4G15G13G 2G 6
  20885014.0894   -9389643.56245  -7177563.93161
  18436481.3624  -20232181.41547 -15293566.74761
  18337293.3704  -30454403.36148 -23730622.98764
  17790978.4484  -32331043.26847 -23478532.82963
 91  3 26  1 44 44.9910000  0  4G15G13G 2G 6
  20884420.8554   -9392784.17946  -7180011.11461
  18426871.1984  -20282691.54147 -15332925.16861
  18335840.558   -30462025.274 8 -23736562.11324
  17785993.1054  -32357248.52047 -23498952.47163
 91  3 26  1 44 59.9910000  0  4G15G13G 2G 6
  20883851.5894   -9395779.61546  -7182345.14761
  18417284.237   -20333067.670 7 -15372179.18321
  18334398.573   -30469597.121 8 -23742462.23624
  17781026.9254  -32383339.67247 -23519283.20363
 91  3 26  1 45 14.9910000  0  4G15G13G 2G 6
  20883307.3784   -9398634.00046  -7184569.26561
  18407722.1284  -20383313.84547 -15411331.93261
  18332969.8944  -30477123.10848 -23748326.60864
  17776083.1984  -32409320.54347 -23539528.00363
 91  3 26  1 45 29.9910000  0  4G15G13G 2G 6
  20882789.3554   -9401354.37746  -7186688.97361
  18398184.5034  -20433436.69447 -15450388.58261
  18331545.737   -30484609.777 8 -23754160.34624
  17771158.8624  -32435197.56347 -23559691.88563
 91  3 26  1 45 44.9910000  0  4G15G13G 2G 6
  20882297.448    -9403939.354 5  -7188703.16421
  18388671.0584  -20483434.56947 -15489347.85262
  18330128.6204  -30492055.86748 -23759962.46764
  17766254.2694  -32460969.13547 -23579773.59763
 91  3 26  1 45 59.9910000  0  4G15G13G 2G 6
  20881837.409    -9406382.968 6  -7190607.22021
  18379180.105   -20533301.505 7 -15528205.09522
  18328719.9414  -30499455.41748 -23765728.31764
  17761371.5114  -32486629.22547 -23599768.43563
 91  3 26  1 46 14.9910000  0  4G15G13G 2G 6
  20881398.5424   -9408687.13945  -7192402.61661
  18369715.144   -20583039.049 7 -15566961.51422
  18327323.480   -30506810.274 8 -23771459.35324
  17756509.0114  -32512179.37747 -23619677.61463
 91  3 26  1 46 29.9910000  0  4G15G13G 2G 6
  20880982.909    -9410850.104 5  -7194087.97521
  18360275.284   -20632645.551 7 -15605615.82222
  18325929.5814  -30514118.80148 -23777154.26964
  17751667.0424  -32537617.65647 -23639499.61363
 91  3 26  1 46 44.9910000  0  4G15G13G 2G 6
  20880598.0814   -9412875.56445  -7195666.19761
  18350860.823   -20682124.187 7 -15644170.49222
  18324546.9874  -30521384.53848 -23782815.85064
  17746848.9334  -32562947.33147 -23659236.99163
 91  3 26  1 46 59.9910000  0  4G15G13G 2G 6
  20880239.378    -9414763.770 5  -7197137.48721
  18341468.581   -20731474.783 7 -15682625.39022
  18323172.4414  -30528607.38548 -23788444.01864
  17742048.3864  -32588168.12347 -23678889.52363
 91  3 26  1 47 14.9910000  0  4G15G13G 2G 6
  20879907.378    -9416511.174 5  -7198498.98721
  18332102.636   -20780693.916 7 -15720977.84622
  18321805.9874  -30535784.01348 -23794036.15964
  17737270.4094  -32613276.42347 -23698454.39163
 91  3 26  1 47 29.9910000  0  4G15G13G 2G 6
  20879599.042    -9418118.652 5  -7199751.49821
  18322761.026   -20829782.177 7 -15759228.33022
  18320449.6674  -30542915.14148 -23799592.85364
  17732515.1364  -32638272.79847 -23717932.05263
 91  3 26  1 47 44.9910000  0  4G15G13G 2G 6
  20879321.800    -9419588.860 5  -7200897.05821
  18313444.417   -20878741.870 7 -15797378.63122
  18319100.9564  -30550003.24348 -23805116.02664
  17727777.2304  -32663159.41947 -23737324.18963
 91  3 26  1 47 59.9910000  0  4G15G13G 2G 6
  20879069.4094   -9420919.58646  -7201933.91361
  18304151.566   -20927570.324 7 -15835426.66822
  18317759.4644  -30557045.99248 -23810603.85264
  17723064.8004  -32687933.75447 -23756628.83463
 91  3 26  1 48 14.9910000  0  4G15G13G 2G 6
  20878836.542    -9422116.652 5  -7202866.61221
  18294884.894   -20976273.052 7 -15873376.74422
  18316428.3784  -30564048.91548 -23816060.64764
  17718369.3394  -32712601.20847 -23775850.19463
 91  3 26  1 48 29.9910000  0  4G15G13G 2G 6
  20878641.706    -9423170.571 6  -7203687.78021
  18285642.667   -21024840.597 7 -15911221.47622
  18315103.9484  -30571002.63048 -23821479.09564
  17713698.9484  -32737151.87947 -23794980.55663
 91  3 26  1 48 44.9910000  0  4G15G13G 2G 6
  20878462.026    -9424086.796 5  -7204401.65721
  18276423.784   -21073278.337 7 -15948965.06522
  18313789.1514  -30577912.45948 -23826863.34464
  17709048.1204  -32761591.29847 -23814024.22263
 91  3 26  1 48 59.9910000  0  4G15G13G 2G 6
  20878317.4174   -9424860.05345  -7205004.13261
  18267233.5814  -21121580.65947 -15986603.13662
  18312484.4014  -30584773.17048 -23832209.32364
  17704418.4094  -32785913.71947 -23832976.72763
 91  3 26  1 49 14.9910000  0  4G15G13G 2G 6
  20878193.808    -9425495.277 5  -7205499.03821
  18258067.636   -21169752.237 7 -16024139.32722
  18311185.2064  -30591589.50348 -23837520.72364
  17699811.7924  -32810123.73947 -23851841.64063
 91  3 26  1 49 29.9900000  0  4G15G13G 2G 6
  20878104.9044   -9425993.48046  -7205887.18461
  18248923.951   -21217790.698 7 -16061571.78922
  18309897.0454  -30598362.04148 -23842797.99764
  17695225.2644  -32834220.55047 -23870618.34263
 91  3 26  1 49 44.9900000  0  4G15G13G 2G 6
  20878030.4984   -9426350.34845  -7206165.16861
  18239808.5534  -21265697.78047 -16098901.88262
  18308619.303   -30605086.990 8 -23848038.19424
  17690662.0064  -32858202.45947 -23889305.50963
 91  3 26  1 49 59.9900000  0  4G15G13G 2G 6
  20877991.0144   -9426567.08345  -7206333.99261
  18230716.8654  -21313471.13647 -16136127.77462
  18307349.1394  -30611764.94448 -23853241.76464
  17686120.9754  -32882068.63947 -23907902.49763
 91  3 26  1 50 14.9900000  0  4G15G13G 2G 6
  20877977.8344   -9426647.07745
  18221651.8504  -21361113.93147 -16173251.93162
  18306084.1394  -30618399.47548 -23858411.48864
  17681601.5534  -32905822.34447 -23926411.83663
 91  3 26  1 50 29.9900000  0  4G15G13G 2G 6
  20877986.8424   -9426591.41445
  18212609.225   -21408627.054 7 -16210275.03922
  18304831.772   -30624991.416 8 -23863548.03724
  17677102.7724  -32929464.26347 -23944834.07663
 91  3 26  1 50 44.9900000  0  4G15G13G 2G 6
  20878025.701    -9426398.134 5
  18203594.397   -21456008.382 7 -16247195.45622
  18303582.8654  -30631538.75948 -23868649.82464
  17672623.7564  -32952992.18747 -23963167.48563
 91  3 26  1 50 59.9900000  0  4G15G13G 2G 6
  20878084.2174   -9426066.87645
  18194602.779   -21503257.168 7 -16284012.58322
  18302347.6004  -30638041.21848 -23873716.64164
  17668169.2724  -32976405.41247 -23981411.52063
 91  3 26  1 51 14.9900000  0  4G15G13G 2G 6
  20878174.9434   -9425596.55245  -7205577.35661
  18185637.803   -21550372.194 7 -16320725.49722
  18301120.1394  -30644497.35648 -23878747.36964
  17663736.0614  -32999702.46847 -23999565.03163
 91  3 26  1 51 29.9900000  0  4G15G13G 2G 6
  20878292.7874   -9424988.86745  -7205103.74661
  18176696.967   -21597354.656 7 -16357335.10822
  18299898.5224  -30650908.54448 -23883743.06864
  17659324.756   -33022884.512 7 -24017628.91923
 91  3 26  1 51 44.9900000  0  4G15G13G 2G 6
  20878436.2324   -9424241.96045  -7204521.66561
  18167780.639   -21644203.068 7 -16393840.26522
  18298689.186   -30657273.421 8 -23888702.68024
  17654934.4824  -33045949.98347 -24035601.97363
 91  3 26  1 51 59.9900000  0  4G15G13G 2G 6
  20878602.818    -9423361.190 5  -7203835.29321
  18158890.943   -21690922.388 7 -16430244.83222
  18297486.795   -30663596.898 8 -23893630.03524
  17650566.0764  -33068903.56547 -24053487.84263
 91  3 26  1 52 14.9900000  0  4G15G13G 2G 6
  20878795.0224   -9422343.64845  -7203042.28261
  18150025.8814  -21737509.05947 -16466546.03862
  18296289.4754  -30669875.51248 -23898522.43564
  17646220.5454  -33091741.75747 -24071283.79763
 91  3 26  1 52 29.9900000  0  4G15G13G 2G 6
  20879019.037    -9421187.669 5  -7202141.42621
  18141186.0614  -21783961.47147 -16502742.62762
  18295103.0294  -30676107.88548 -23903378.79664
  17641898.100   -33114462.869 7 -24088988.52023
 91  3 26  1 52 44.9900000  0  4G15G13G 2G 6
  20879261.5844   -9419888.29945  -7201128.82961
  18132372.6074  -21830274.51347 -16538830.61762
  18293928.334   -30682289.099 8 -23908195.30324
  17637597.186   -33137061.729 7 -24106597.98123
 91  3 26  1 52 59.9900000  0  4G15G13G 2G 6
  20879532.154    -9418457.772 5  -7200014.03121
  18123583.8974  -21876459.73147 -16574819.00662
  18292757.9754  -30688430.83948 -23912981.04864
  17633319.748   -33159549.755 7 -24124121.07923
 91  3 26  1 53 14.9900000  0  4G15G13G 2G 6
  20879833.0224   -9416886.65045  -7198789.71261
  18114821.9904  -21922507.59947 -16610700.36662
  18291598.8574  -30694523.71048 -23917728.71464
  17629059.7644  -33181917.32747 -24141550.32163
 91  3 26  1 53 29.9900000  0  4G15G13G 2G 6
  20880160.045    -9415178.708 5  -7197458.75921
  18106083.7874  -21968421.60847 -16646477.42662
  18290448.709   -30700571.443 8 -23922441.20424
  17624826.7644  -33204168.06747 -24158888.52663
 91  3 26  1 53 44.9900000  0  4G15G13G 2G 6
  20880509.0684   -9413337.47145  -7196023.94961
  18097371.2324  -22014205.01647 -16682152.71662
  18289304.2404  -30706577.18448 -23927120.96764
  17620613.436   -33226304.863 7 -24176137.93823
 91  3 26  1 53 59.9900000  0  4G15G13G 2G 6
  20880884.154    -9411358.840 5  -7194482.05921
  18088684.1234  -22059853.79747 -16717723.10562
  18288172.4124  -30712536.94148 -23931764.90464
  17616425.3814  -33248323.51747 -24193295.29263
 91  3 26  1 54 14.9900000  0  4G15G13G 2G 6
  20881289.287    -9409244.743 5  -7192834.64321
  18080022.5924  -22105369.56347 -16753189.84562
  18287043.5224  -30718452.45748 -23936374.35864
  17612255.4124  -33270225.48647 -24210361.71963
 91  3 26  1 54 29.9900000  0  4G15G13G 2G 6
  20881714.732    -9406991.902 5  -7191079.08921
  18071388.2724  -22150748.65447 -16788550.08862
  18285929.2094  -30724320.31348 -23940946.68164
  17608110.3574  -33292007.27647 -24227334.50263
 91  3 26  1 54 44.9900000  0  4G15G13G 2G 6
  20882173.4514   -9404597.45445  -7189213.19561
  18062778.4984  -22195988.15547 -16823801.55262
  18284821.272   -30730137.801 8 -23945479.76824
  17603989.592   -33313665.799 7 -24244211.23523
 91  3 26  1 54 59.9900000  0  4G15G13G 2G 6
  20882650.1784   -9402071.95845  -7187245.17161
  18054194.6864  -22241098.44347 -16858952.34262
  18283723.0144  -30735915.08048 -23949981.51464
  17599890.7324  -33335211.16247 -24260999.79063
 91  3 26  1 55 14.9900000  0  4G15G13G 2G 6
  20883158.8504   -9399409.22545  -7185170.23861
  18045636.2794  -22286072.98547 -16893997.34562
  18282631.2724  -30741645.44348 -23954446.69764
  17595812.5924  -33356636.65447 -24277694.94563
 91  3 26  1 55 29.9900000  0  4G15G13G 2G 6
  20883690.256    -9396609.563 5  -7182988.59221
  18037103.7254  -22330911.74747 -16928936.55262
  18281549.5924  -30747329.35548 -23958875.69564
  17591757.7564  -33377942.38347 -24294296.77363
 91  3 26  1 55 44.9900000  0  4G15G13G 2G 6
  20884248.1004   -9393682.97845  -7180708.04761
  18028596.0684  -22375624.31847 -16963777.42762
  18280475.2794  -30752976.45948 -23963276.01264
  17587724.3184  -33399137.77847 -24310812.62463
 91  3 26  1 55 59.9900000  0  4G15G13G 2G 6
  20884831.397    -9390616.394 5  -7178318.42621
  18020113.0844  -22420197.86147 -16998509.97262
  18279411.022   -30758573.876 8 -23967637.61124
  17583715.209   -33420209.740 7 -24327232.28623
 91  3 26  1 56 14.9900000  0  4G15G13G 2G 6
  20885441.5534   -9387411.30245  -7175820.86861
  18011657.084   -22464633.397 7 -17033134.97822
  18278356.022   -30764122.846 8 -23971961.45924
  17579728.6004  -33441159.19347 -24343556.50163
 91  3 26  1 56 29.9900000  0  4G15G13G 2G 6
  20886076.467    -9384068.002 5  -7173215.62821
  18003227.5924  -22508930.64847 -17067652.22962
  18277307.5844  -30769623.55448 -23976247.71264
  17575765.7874  -33461986.09247 -24359785.21763
 91  3 26  1 56 44.9900000  0  4G15G13G 2G 6
  20886739.615    -9380588.737 5  -7170504.45621
  17994822.600   -22553092.132 7 -17102063.68922
  18276269.6474  -30775078.02848 -23980497.92564
  17571824.834   -33482692.463 7 -24375920.01023
 91  3 26  1 56 59.9900000  0  4G15G13G 2G 6
  20887426.5144   -9376977.33345  -7167690.29461
  17986445.1544  -22597121.25047 -17136372.00762
  18275240.717   -30780489.984 8 -23984715.01624
  17567907.1784  -33503281.65047 -24391963.49263
 91  3 26  1 57 14.9900000  0  4G15G13G 2G 6
  20888139.451    -9373230.997 5  -7164771.03121
  17978093.0064  -22641014.92647 -17170574.78762
  18274219.264   -30785856.348 8 -23988896.58424
  17564010.7954  -33523750.54247 -24407913.23963
 91  3 26  1 57 29.9900000  0  4G15G13G 2G 6
  20888875.3814   -9369350.70945  -7161747.37561
  17969765.678   -22684773.576 7 -17204672.35022
  18273205.162   -30791177.618 8 -23993043.00124
  17560141.5684  -33544099.61547 -24423769.62463
 91  3 26  1 57 44.9900000  0  4G15G13G 2G 6
  20889642.3034   -9365333.83045  -7158617.26461
  17961463.5064  -22728394.66747 -17238662.72461
  18272202.842   -30796451.625 8 -23997152.59624
  17556290.6234  -33564326.20747 -24439530.56863
 91  3 26  1 57 59.9900000  0  4G15G13G 2G 6
  20890433.2954   -9361178.19545  -7155379.05061
  17953190.045   -22771875.860 7 -17272544.08921
  18271208.8654  -30801676.01848 -24001223.52264
  17552465.9824  -33584427.82247 -24455194.13063
 91  3 26  1 58 14.9900000  0  4G15G13G 2G 6
  20891247.0764   -9356884.66745  -7152033.38761
  17944942.287   -22815217.779 7 -17306316.93121
  18270223.154   -30806851.166 8 -24005256.08124
  17548663.9984  -33604404.81247 -24470760.57763
 91  3 26  1 58 29.9900000  0  4G15G13G 2G 6
  20892094.8974   -9352459.73345  -7148585.34861
  17936719.7724  -22858426.72747 -17339986.15561
  18269247.029   -30811983.542 8 -24009255.31224
  17544882.8814  -33624263.31047 -24486234.68163
 91  3 26  1 58 44.9900000  0  4G15G13G 2G 6
  20892961.5454   -9347906.37645  -7145037.18661
  17928522.5224  -22901505.07447 -17373553.61162
  18268279.490   -30817075.862 8 -24013223.33124
  17541126.7644  -33644005.85447 -24501618.46363
 91  3 26  1 58 59.9900000  0  4G15G13G 2G 6
  20893851.217    -9343218.039 5  -7141383.88421
  17920350.9284  -22944446.19847 -17407014.14361
  18267318.279   -30822121.540 8 -24017155.00524
  17537393.4124  -33663625.74447 -24516906.65863
 91  3 26  1 59 14.9900000  0  4G15G13G 2G 6
  20894768.2644   -9338391.45145  -7137622.83761
  17912205.686   -22987246.650 7 -17440365.06022
  18266366.342   -30827117.029 8 -24021047.57724
  17533685.7874  -33683119.15147 -24532096.28963
 91  3 26  1 59 29.9900000  0  4G15G13G 2G 6
  20895712.7014   -9333435.02545  -7133760.61661
  17904086.545   -23029914.339 7 -17473612.52322
  18265425.990   -30832070.237 8 -24024907.19724
  17529998.2794  -33702493.96147 -24547193.51463
 91  3 26  1 59 44.9900000  0  4G15G13G 2G 6
  20896681.1784   -9328344.18245  -7129793.61861
  17895993.982   -23072444.709 7 -17506752.98921
  18264491.639   -30836976.911 8 -24028730.56824
  17526334.2094  -33721745.53947 -24562194.71163
 91  3 26  1 59 59.9900000  0  4G15G13G 2G 6
  20897674.4284   -9323118.45245  -7125721.56861
  17887927.662   -23114836.967 7 -17539785.83322
  18263565.217   -30841836.272 7 -24032517.06124
  17522694.1474  -33740873.06047 -24577099.24163
 91  3 26  2  0 14.9900000  0  4G15G13G 2G 6
  20898699.022    -9317757.931 5  -7121544.47221
  17879886.115   -23157090.941 7 -17572710.92322
  18262650.201   -30846648.053 8 -24036266.48324
  17519078.3114  -33759876.12247 -24591906.79263
 91  3 26  2  0 29.9900000  0  4G15G13G 2G 6
  20899739.225    -9312261.283 5  -7117261.30721
  17871871.9284  -23199205.16247 -17605527.11462
  18261744.639   -30851410.730 7 -24039977.64224
  17515486.2174  -33778753.04247 -24606616.04963
 91  3 26  2  0 44.9900000  0  4G15G13G 2G 6
  20900810.9984   -9306637.26945  -7112878.86961
  17863882.975   -23241188.156 7 -17638241.04922
  18260844.428   -30856133.185 8 -24043657.45524
  17511915.9434  -33797512.47447 -24621233.76463
 91  3 26  2  0 59.9900000  0  4G15G13G 2G 6
  20901905.006    -9300875.796 5  -7108389.33821
  17855921.2874  -23283029.80047 -17670844.84762
  18259954.272   -30860805.128 7 -24047297.90624
  17508370.920   -33816143.855 7 -24635751.69823
 91  3 26  2  1 14.9900000  0  4G15G13G 2G 6
  20903027.436    -9294984.178 5  -7103798.41021
  17847984.0844  -23324736.83047 -17703343.74962
  18259076.842   -30865433.523 8 -24050904.42324
  17504848.787   -33834654.126 7 -24650175.26323
 91  3 26  2  1 29.9900000  0  4G15G13G 2G 6
  20904175.459    -9288956.381 5  -7099101.36621
  17840074.389   -23366302.728 7 -17735732.67622
  18258202.7174  -30870011.94848 -24054471.99764
  17501349.9364  -33853036.57547 -24664499.21763
 91  3 26  2  1 44.9900000  0  4G15G13G 2G 6
  20905348.4044   -9282794.35645  -7094299.66261
  17832192.0374  -23407729.30747 -17768013.04562
  18257340.7954  -30874542.32548 -24058002.12264
  17497875.8034  -33871292.86047 -24678724.86763
 91  3 26  2  1 59.9900000  0  4G15G13G 2G 6
  20906549.1074   -9276502.22646  -7089396.64261
  17824332.936   -23449020.675 7 -17800188.05622
  18256488.6074  -30879028.64948 -24061497.93064
  17494426.982   -33889426.956 7 -24692855.30223
 91  3 26  2  2 14.9900000  0  4G15G13G 2G 6
  20907769.2254   -9270076.25545  -7084389.30761
  17816502.3974  -23490172.96447 -17832254.68962
  18255644.4204  -30883467.14148 -24064956.46964
  17490998.936   -33907434.937 7 -24706887.47223
 91  3 26  2  2 29.9900000  0  4G15G13G 2G 6
  20909017.9754   -9263515.61645  -7079277.02261
  17808697.287   -23531185.253 7 -17864212.23722
  18254808.9594  -30887856.81648 -24068376.96164
  17487596.2324  -33925315.58747 -24720820.41563
 91  3 26  2  2 44.9900000  0  4G15G13G 2G 6
  20910294.412    -9256818.063 5  -7074058.05321
  17800920.029   -23572054.615 7 -17896058.41622
  18253981.842   -30892194.789 8 -24071757.18224
  17484217.607   -33943065.921 7 -24734651.82123
 91  3 26  2  2 59.9900000  0  4G15G13G 2G 6
  20911593.3264   -9249990.93345  -7068738.10261
  17793168.397   -23612788.118 7 -17927798.72622
  18253164.248   -30896488.433 8 -24075102.85324
  17480863.3814  -33960693.16447 -24748387.30763
 91  3 26  2  3 14.9900000  0  4G15G13G 2G 6
  20912913.3264   -9243032.00845  -7063315.47461
  17785443.311   -23653383.658 7 -17959431.53622
  18252355.420   -30900735.623 8 -24078412.33024
  17477532.7954  -33978194.99347 -24762025.06963
 91  3 26  2  3 29.9900000  0  4G15G13G 2G 6
  20914260.709    -9235945.536 5  -7057793.48521
  17777743.498   -23693844.913 7 -17990959.70822
  18251556.303   -30904939.855 8 -24081688.32824
  17474226.295   -33995574.804 7 -24775567.75723
 91  3 26  2  3 44.9900000  0  4G15G13G 2G 6
  20915635.1234   -9228725.76445  -7052167.63661
  17770070.357   -23734166.274 7 -18022378.87222
  18250767.6784  -30909095.51448 -24084926.47164
  17470942.467   -34012826.688 7 -24789010.75723
 91  3 26  2  3 59.9900000  0  4G15G13G 2G 6
  20917035.600    -9221372.555 5  -7046437.77321
  17762424.764   -23774347.028 7 -18053688.46622
  18249984.1004  -30913202.02748 -24088126.31764
  17467684.068   -34029950.012 7 -24802353.58423
 91  3 26  2  4 14.9900000  0  4G15G13G 2G 6
  20918460.232    -9213889.810 5  -7040606.96221
  17754803.889   -23814391.249 7 -18084891.67622
  18249212.5764  -30917263.42648 -24091291.01064
  17464449.0454  -34046948.64147 -24815599.24463
 91  3 26  2  4 29.9900000  0  4G15G13G 2G 6
  20919908.1074   -9206268.12845  -7034667.90861
  17747211.912   -23854288.895 7 -18115980.66922
  18248449.5764  -30921269.89748 -24094412.90664
  17461240.029   -34063812.599 7 -24828739.96823
 91  3 26  2  4 44.9900000  0  4G15G13G 2G 6
  20921387.178    -9198515.272 5  -7028626.58621
  17739646.045   -23894047.633 7 -18146961.42322
  18247698.0614  -30925229.13048 -24097497.99063
  17458056.467   -34080549.282 7 -24841781.52423
 91  3 26  2  4 59.9900000  0  4G15G13G 2G 6
  20922883.170    -9190636.779 5  -7022487.41821
  17732106.0064  -23933672.50147 -18177837.86062
  18246952.1314  -30929146.18448 -24100550.20063
  17454893.779   -34097163.710 7 -24854727.80723
 91  3 26  2  5 14.9900000  0  4G15G13G 2G 6
  20924406.3264   -9182625.15945  -7016244.48561
  17724591.912   -23973156.139 7 -18208604.24922
  18246218.1394  -30933013.56248 -24103563.72064
  17451757.443   -34113648.219 7 -24867572.85723
 91  3 26  2  5 29.9900000  0  4G15G13G 2G 6
  20925955.9594   -9174483.78045  -7009900.45461
  17717104.381   -24012501.466 7 -18239262.86322
  18245489.5684  -30936834.37448 -24106540.94164
  17448644.686   -34130005.711 7 -24880318.93023
 91  3 26  2  5 44.9900000  0  4G15G13G 2G 6
  20927529.701    -9166219.610 5  -7003460.71321
  17709642.139   -24051715.096 7 -18269818.86122
  18244768.154   -30940615.307 8 -24109487.10024
  17445554.9364  -34146242.81747 -24892971.19263
 91  3 26  2  5 59.9900000  0  4G15G13G 2G 6
  20929129.0144   -9157822.50445  -6996917.41661
  17702208.350   -24090786.700 7 -18300264.18922
  18244058.029   -30944346.037 8 -24112394.13524
  17442489.6004  -34162348.96947 -24905521.41763
 91  3 26  2  6 14.9900000  0  4G15G13G 2G 6
  20930752.7404   -9149298.23445  -6990275.04561
  17694798.131   -24129722.108 7 -18330603.38822
  18243355.975   -30948032.135 8 -24115266.39623
  17439448.4904  -34178329.75247 -24917973.95163
 91  3 26  2  6 29.9900000  0  4G15G13G 2G 6
  20932397.662    -9140642.785 5  -6983530.43721
  17687416.623   -24168516.662 7 -18360832.83222
  18242663.936   -30951669.284 8 -24118100.52624
  17436431.420   -34194180.759 7 -24930325.36023
 91  3 26  2  6 44.9900000  0  4G15G13G 2G 6
  20934070.6544   -9131860.85145  -6976687.26761
  17680059.084   -24207175.437 7 -18390956.47322
  18241979.154   -30955262.430 8 -24120900.35624
  17433438.8974  -34209906.57047 -24942579.21463
 91  3 26  2  6 59.9900000  0  4G15G13G 2G 6
  20935763.818    -9122950.272 5  -6969743.79021
  17672729.998   -24245695.862 7 -18420972.31322
  18241306.0294  -30958808.97248 -24123663.86664
  17430470.6234  -34225504.50347 -24954733.42263
 91  3 26  2  7 14.9900000  0  4G15G13G 2G 6
  20937487.037    -9113908.108 5  -6962697.86221
  17665425.522   -24284074.735 7 -18450877.84722
  18240639.217   -30962305.754 8 -24126388.61124
  17427528.6004  -34240971.24047 -24966785.39963
 91  3 26  2  7 29.9900000  0  4G15G13G 2G 6
  20939227.7564   -9104738.15745  -6955552.30961
  17658148.076   -24322315.363 7 -18480675.66522
  18239985.717   -30965756.200 8 -24129077.24024
  17424608.256   -34256310.193 7 -24978737.80523
 91  3 26  2  7 44.9900000  0  4G15G13G 2G 6
  20941001.990    -9095432.589 5  -6948301.13321
  17650900.232   -24360409.748 7 -18510359.52522
  18239338.662   -30969152.232 8 -24131723.47324
  17421716.342   -34271512.979 7 -24990584.10923
 91  3 26  2  7 59.9900000  0  4G15G13G 2G 6
  20942797.272    -9085999.099 5  -6940950.21521
  17643675.748   -24398365.548 7 -18539935.39922
  18238700.4904  -30972501.48748 -24134333.25663
  17418847.8574  -34286587.11147 -25002330.15463
 91  3 26  2  8 14.9900000  0  4G15G13G 2G 6
  20944615.779    -9076439.690 5  -6933501.21421
  17636480.092   -24436184.116 7 -18569404.33522
  18238071.1314  -30975805.38648 -24136907.69164
  17416003.365   -34301533.773 7 -25013976.88123
 91  3 26  2  8 29.9900000  0  4G15G13G 2G 6
  20946457.904    -9066749.491 5  -6925950.34721
  17629310.436   -24473860.704 7 -18598762.64122
  18237452.4044  -30979059.31848 -24139443.19264
  17413183.6314  -34316348.31747 -25025520.65863
 91  3 26  2  8 44.9900000  0  4G15G13G 2G 6
  20948326.8734   -9056932.74345  -6918300.82161
  17622166.053   -24511399.511 7 -18628013.58122
  18236842.467   -30982267.018 8 -24141942.67523
  17410388.397   -34331034.502 7 -25036964.41023
 91  3 26  2  8 59.9900000  0  4G15G13G 2G 6
  20950219.943    -9046985.132 5  -6910549.33021
  17615050.381   -24548795.765 7 -18657153.44322
  18236240.2954  -30985423.89148 -24144402.55064
  17407620.2794  -34345587.59447 -25048304.45063
 91  3 26  2  9 14.9900000  0  4G15G13G 2G 6
  20952132.545    -9036907.654 5  -6902696.66021
  17607961.373   -24586049.827 7 -18686182.50622
  18235649.1784  -30988530.49248 -24146823.24663
  17404876.209   -34360007.910 7 -25059541.03623
 91  3 26  2  9 29.9900000  0  4G15G13G 2G 6
  20954076.404    -9026702.038 5  -6894744.13621
  17600898.670   -24623163.086 7 -18715101.85722
  18235068.0374  -30991588.32748 -24149205.94864
  17402156.0614  -34374296.77347 -25070675.19063
 91  3 26  2  9 44.9900000  0  4G15G13G 2G 6
  20956041.717    -9016378.198 5  -6886699.45621
  17593860.514   -24660145.590 7 -18743919.31822
  18234493.5844  -30994607.31148 -24151558.37263
  17399460.1234  -34388464.07047 -25081714.61663
 91  3 26  2  9 59.9900000  0  4G15G13G 2G 6
  20958033.506    -9005926.012 5  -6878554.82321
  17586850.318   -24696987.064 7 -18772626.88422
  18233928.3654  -30997577.08548 -24153872.45063
  17396792.0374  -34402499.28747 -25092651.11963
 91  3 26  2 10 14.9900000  0  4G15G13G 2G 6
  20960041.9984   -8995348.59945  -6870312.54961
  17579866.397   -24733690.432 7 -18801226.83722
  18233373.537   -31000500.571 8 -24156150.46523
  17394143.9284  -34416405.11747 -25103486.80463
 91  3 26  2 10 29.9900000  0  4G15G13G 2G 6
  20962081.7874   -8984647.46345  -6861973.89661
  17572907.647   -24770257.061 7 -18829720.24222
  18232825.1474  -31003379.15348 -24158393.49363
  17391522.5844  -34430182.85047 -25114222.66963
 91  3 26  2 10 44.9900000  0  4G15G13G 2G 6
  20964145.2014   -8973814.08946  -6853532.18261
  17565976.654   -24806677.874 7 -18858100.02422
  18232287.1784  -31006204.13148 -24160594.74463
  17388927.0064  -34443823.61747 -25124851.81263
 91  3 26  2 10 59.9900000  0  4G15G13G 2G 6
  20966227.904    -8962854.621 5  -6844992.20821
  17559073.076   -24842959.031 7 -18886370.98422
  18231759.1394  -31008981.20748 -24162758.66663
  17386355.7014  -34457333.18247 -25135378.71463
 91  3 26  2 11 14.9900000  0  4G15G13G 2G 6
  20968340.7094   -8951771.41946  -6836355.84161
  17552193.6784  -24879102.50047 -18914534.65662
  18231239.4434  -31011712.35148 -24164886.80063
  17383809.8114  -34470713.32447 -25145804.77063
 91  3 26  2 11 29.9900000  0  4G15G13G 2G 6
  20970472.2174   -8940564.81245  -6827623.30361
  17545344.357   -24915108.678 7 -18942591.34422
  18230727.6004  -31014397.79448 -24166979.32563
  17381288.7794  -34483964.20047 -25156130.09463
 91  3 26  2 11 44.9900000  0  4G15G13G 2G 6
  20972626.654    -8929234.461 5  -6818794.35321
  17538517.0844  -24950976.90747 -18970540.54562
  18230224.615   -31017036.987 8 -24169035.81923
  17378790.1864  -34497085.05147 -25166354.10463
 91  3 26  2 11 59.9900000  0  4G15G13G 2G 6
  20974805.662    -8917772.016 5  -6809862.46021
  17531719.0064  -24986698.42547 -18998375.42562
  18229733.0144  -31019621.15848 -24171049.43063
  17376319.9824  -34510066.96647 -25176469.85463
 91  3 26  2 12 14.9900000  0  4G15G13G 2G 6
  20977009.678    -8906186.073 5  -6800834.34221
  17524948.600   -25022281.776 7 -19026102.64222
  18229249.014   -31022158.804 8 -24173026.78723
  17373875.6154  -34522918.43547 -25186483.95163
 91  3 26  2 12 29.9900000  0  4G15G13G 2G 6
  20979237.7874   -8894477.96545  -6791711.00961
  17518204.2174  -25057727.96647 -19053722.98262
  18228774.795   -31024650.971 8 -24174968.72523
  17371454.4754  -34535640.40347 -25196397.14363
 91  3 26  2 12 44.9900000  0  4G15G13G 2G 6
  20981492.139    -8882640.477 5  -6782486.87921
  17511485.3114  -25093029.65647 -19081230.72662
  18228310.576   -31027090.367 8 -24176869.52223
  17369058.9984  -34548225.44647 -25206203.63063
 91  3 26  2 12 59.9900000  0  4G15G13G 2G 6
  20983767.397    -8870681.727 5  -6773168.23721
  17504792.9514  -25128194.54747 -19108631.87662
  18227857.756   -31029484.669 8 -24178735.19223
  17366689.7724  -34560681.00847 -25215909.23263
 91  3 26  2 13 14.9900000  0  4G15G13G 2G 6
  20986064.9284   -8858607.49845  -6763759.60561
  17498126.7094  -25163228.18747 -19135930.74962
  18227407.0294  -31031839.52548 -24180570.11663
  17364341.1544  -34573012.56547 -25225518.20363
 91  3 26  2 13 29.9900000  0  4G15G13G 2G 6
  20988387.084    -8846408.559 6  -6754253.74321
  17491488.1234  -25198121.18047 -19163120.02962
  18226970.4434  -31034145.30348 -24182366.79263
  17362021.1234  -34585210.57947 -25235023.11063
 91  3 26  2 13 44.9900000  0  4G15G13G 2G 6
  20990732.1074   -8834083.04345  -6744649.26861
  17484875.5924  -25232871.27147 -19190197.95162
  18226539.107   -31036399.699 7 -24184123.44523
  17359725.9514  -34597272.54247 -25244422.00963
 91  3 26  2 13 59.9900000  0  3G13G 2G 6
  17478289.7564  -25267476.32747 -19217162.86462
  18226120.451   -31038600.563 7 -24185838.37723
  17357456.6314  -34609196.20047 -25253713.13863
 91  3 26  2 14 14.9890000  0  3G13G 2G 6
  17471731.9464  -25301938.62947 -19244016.54062
  18225711.4544  -31040752.23847 -24187514.97563
  17355212.9854  -34620985.20347 -25262899.34563
 91  3 26  2 14 29.9890000  0  3G13G 2G 6
  17465198.4394  -25336269.73247 -19270767.98262
  18225309.1034  -31042861.78348 -24189158.74763
  17352995.3454  -34632647.86047 -25271987.09163
 91  3 26  2 14 44.9890000  0  3G13G 2G 6
  17458692.8064  -25370459.80247 -19297409.53162
  18224920.8924  -31044921.73748 -24190763.88763
  17350800.8844  -34644176.06247 -25280970.06963
 91  3 26  2 14 59.9890000  0  3G13G 2G 6
  17452213.0014  -25404506.19047 -19323939.12162
  18224538.5794  -31046929.47648 -24192328.32363
  17348633.2674  -34655566.70847 -25289845.85563
 91  3 26  2 15 14.9890000  0  3G13G 2G 6
  17445761.6344  -25438410.96747 -19350358.36462
  18224165.899   -31048887.009 8 -24193853.65023
  17346490.9154  -34666821.85547 -25298616.06063
 91  3 26  2 15 29.9890000  0  3G13G 2G 6
  17439335.3294  -25472182.29447 -19376673.61762
  18223799.1034  -31050802.43747 -24195346.16663
  17344373.5564  -34677949.47147 -25307286.89863
 91  3 26  2 15 44.9890000  0  3G13G 2G 6
  17432935.1574  -25505811.47247 -19402878.11062
  18223444.6894  -31052666.88547 -24196798.94263
  17342282.3534  -34688940.71947 -25315851.46963
